[[{"header":{"parameterUnit":"m.s-1","parameterCategory":1,"la1":31.0,"la2":29.5877,"lo1":-88.7671,"lo2":-86.6584,"dy":0.0162,"dx":0.0185,"nx":115,"ny":88,"refTime":"2023-04-01T12:00:00:Z","depth":0,"parameterNumber":2,"parameterNumberName":"U-component_of_WINDS"},"data":[0.0,0.0,0.0,0.0,0.0,0.0,0.0,0.0,0.0,0.0,0.0,0.0,0.0,0.0,0.0,0.0,0.0,0.0,0.0,0.0,0.0,0.0,0.0,0.0,0.0,0.0,0.0,0.0,0.0,0.0,0.0,0.0,0.0,0.0,0.0,0.0,0.0,0.0,0.0,0.0,0.0,0.0,0.0,0.0,0.0,0.0,0.0,0.0,0.0,0.0,0.0,0.0,0.0,0.0,0.0,0.0,0.0,0.0,0.0,0.0,0.0,0.0,0.0,0.0,0.0,0.0,0.0,0.0,0.0,0.0,0.0,0.0,0.0,0.0,0.0,0.0,0.0,0.0,0.0,0.0,0.0,0.0,0.0,0.0,0.0,0.0,0.0,0.0,0.0,0.0,0.0,0.0,0.0,0.0,0.0,0.0,0.0,0.0,0.0,0.0,0.0,0.0,0.0,0.0,0.0,0.0,0.0,0.0,0.0,0.0,0.0,0.0,0.0,0.0,0.0,0.0,0.0,0.0,0.0,0.0,0.0,0.0,0.0,0.0,0.0,0.0,0.0,0.0,0.0,0.0,0.0,0.0,0.0,0.0,0.0,0.0,0.0,0.0,0.0,0.0,0.0,0.0,0.0,0.0,0.0,0.0,0.0,0.0,0.0,0.0,0.0,0.0,0.0,0.0,0.0,0.0,0.0,0.0,0.0,0.0,0.0,0.0,0.0,0.0,0.0,0.0,0.0,0.0,0.0,0.0,0.0,0.0,0.0,0.0,0.0,0.0,0.0,0.0,0.0,0.0,0.0,0.0,0.0,0.0,0.0,0.0,0.0,0.0,0.0,0.0,0.0,0.0,0.0,0.0,0.0,0.0,0.0,0.0,0.0,0.0,0.0,0.0,0.0,0.0,0.0,0.0,0.0,0.0,0.0,0.0,0.0,0.0,0.0,0.0,0.0,0.0,0.0,0.0,0.0,0.0,0.0,0.0,0.0,0.0,0.0,0.0,0.0,0.0,0.0,0.0,0.0,0.0,0.0,0.0,0.0,0.0,0.0,0.0,0.0,0.0,0.0,0.0,0.0,0.0,0.0,0.0,0.0,0.0,0.0,0.0,0.0,0.0,0.0,0.0,0.0,0.0,0.0,0.0,0.0,0.0,0.0,0.0,0.0,0.0,0.0,0.0,0.0,0.0,0.0,0.0,0.0,0.0,0.0,0.0,0.0,0.0,0.0,0.0,0.0,0.0,0.0,0.0,0.0,0.0,0.0,0.0,0.0,0.0,0.0,0.0,0.0,0.0,0.0,0.0,0.0,0.0,0.0,0.0,0.0,0.0,0.0,0.0,0.0,0.0,0.0,0.0,0.0,0.0,0.0,0.0,0.0,0.0,0.0,0.0,0.0,0.0,0.0,0.0,0.0,0.0,0.0,0.0,0.0,0.0,0.0,0.0,0.0,0.0,0.0,0.0,0.0,0.0,0.0,0.0,0.0,0.0,0.0,0.0,0.0,0.0,0.0,0.0,0.0,0.0,0.0,0.0,0.0,0.0,0.0,0.0,0.0,0.0,0.0,0.0,0.0,0.0,0.0,0.0,0.0,0.0,0.0,0.0,0.0,0.0,0.0,0.0,0.0,0.0,0.0,0.0,0.0,0.0,0.0,0.0,0.0,0.0,0.0,0.0,0.0,0.0,0.0,0.0,0.0,0.0,0.0,0.0,0.0,0.0,0.0,0.0,0.0,0.0,0.0,0.0,0.0,0.0,0.0,0.0,0.0,0.0,0.0,0.0,0.0,0.0,0.0,0.0,0.0,0.0,0.0,0.0,0.0,0.0,0.0,0.0,0.0,0.0,0.0,0.0,0.0,0.0,0.0,0.0,0.0,0.0,0.0,0.0,0.0,0.0,0.0,0.0,0.0,0.0,0.0,0.0,0.0,0.0,0.0,0.0,0.0,0.0,0.0,0.0,0.0,0.0,0.0,0.0,0.0,0.0,0.0,0.0,0.0,0.0,0.0,0.0,0.0,0.0,0.0,0.0,0.0,0.0,0.0,0.0,0.0,0.0,0.0,0.0,0.0,0.0,0.0,0.0,0.0,0.0,0.0,0.0,0.0,0.0,0.0,0.0,0.0,0.0,0.0,0.0,0.0,0.0,0.0,0.0,0.0,0.0,0.0,0.0,0.0,0.0,0.0,0.0,0.0,0.0,0.0,0.0,0.0,0.0,0.0,0.0,0.0,0.0,0.0,0.0,0.0,0.0,0.0,0.0,0.0,0.0,0.0,0.0,0.0,0.0,0.0,0.0,0.0,0.0,0.0,0.0,0.0,0.0,0.0,0.0,0.0,0.0,0.0,0.0,0.0,0.0,0.0,0.0,0.0,0.0,0.0,0.0,0.0,0.0,0.0,0.0,0.0,0.0,0.0,0.0,0.0,0.0,0.0,0.0,0.0,0.0,0.0,0.0,0.0,0.0,0.0,0.0,0.0,0.0,0.0,0.0,0.0,0.0,0.0,0.0,0.0,0.0,0.0,0.0,0.0,0.0,0.0,0.0,0.0,0.0,0.0,0.0,0.0,0.0,0.0,0.0,0.0,0.0,0.0,0.0,0.0,0.0,0.0,0.0,0.0,0.0,0.0,0.0,0.0,0.0,0.0,0.0,0.0,0.0,0.0,0.0,0.0,0.0,0.0,0.0,0.0,0.0,0.0,0.0,0.0,0.0,0.0,0.0,0.0,0.0,0.0,0.0,0.0,0.0,0.0,0.0,0.0,0.0,0.0,0.0,0.0,0.0,0.0,0.0,0.0,0.0,0.0,0.0,0.0,0.0,0.0,0.0,0.0,0.0,0.0,0.0,0.0,0.0,0.0,0.0,0.0,0.0,0.0,0.0,0.0,0.0,0.0,0.0,0.0,0.0,0.0,0.0,0.0,0.0,0.0,0.0,0.0,0.0,0.0,0.0,0.0,0.0,0.0,0.0,0.0,0.0,0.0,0.0,0.0,0.0,0.0,0.0,0.0,0.0,0.0,0.0,0.0,0.0,0.0,0.0,0.0,0.0,0.0,0.0,0.0,0.0,0.0,0.0,0.0,0.0,0.0,0.0,0.0,0.0,0.0,0.0,0.0,0.0,0.0,0.0,0.0,0.0,0.0,0.0,0.0,0.0,0.0,0.0,0.0,0.0,0.0,0.0,0.0,0.0,0.0,0.0,0.0,0.0,0.0,0.0,0.0,0.0,0.0,0.0,0.0,0.0,0.0,0.0,0.0,0.0,0.0,0.0,0.0,0.0,0.0,0.0,0.0,0.0,0.0,0.0,0.0,0.0,0.0,0.0,0.0,0.0,0.0,0.0,0.0,0.0,0.0,0.0,0.0,0.0,0.0,0.0,0.0,0.0,0.0,0.0,0.0,0.0,0.0,0.0,0.0,0.0,0.0,0.0,0.0,0.0,0.0,0.0,0.0,0.0,0.0,0.0,0.0,0.0,0.0,0.0,0.0,0.0,0.0,0.0,0.0,0.0,0.0,0.0,0.0,0.0,0.0,0.0,0.0,0.0,0.0,0.0,0.0,0.0,0.0,0.0,0.0,0.0,0.0,0.0,0.0,0.0,0.0,0.0,0.0,0.0,0.0,0.0,0.0,0.0,0.0,0.0,0.0,0.0,0.0,0.0,0.0,0.0,0.0,0.0,0.0,0.0,0.0,0.0,0.0,0.0,0.0,0.0,0.0,0.0,0.0,0.0,0.0,0.0,0.0,0.0,0.0,0.0,0.0,0.0,0.0,0.0,0.0,0.0,0.0,0.0,0.0,0.0,0.0,0.0,0.0,0.0,0.0,0.0,0.0,0.0,0.0,0.0,0.0,0.0,0.0,0.0,0.0,0.0,0.0,0.0,0.0,0.0,0.0,0.0,0.0,0.0,0.0,0.0,0.0,0.0,0.0,0.0,0.0,0.0,0.0,0.0,0.0,0.0,0.0,0.0,0.0,0.0,0.0,0.0,0.0,0.0,0.0,0.0,0.0,0.0,0.0,0.0,0.0,0.0,0.0,0.0,0.0,0.0,0.0,0.0,0.0,0.0,0.0,0.0,0.0,0.0,0.0,0.0,0.0,0.0,0.0,0.0,0.0,0.0,0.0,0.0,0.0,0.0,0.0,0.0,0.0,0.0,0.0,0.0,0.0,0.0,0.0,0.0,0.0,0.0,0.0,0.0,0.0,0.0,0.0,0.0,0.0,0.0,0.0,0.0,0.0,0.0,0.0,0.0,0.0,0.0,0.0,0.0,0.0,0.0,-1.0402,0.0,0.0,0.0,0.0,0.0,0.0,0.0,0.0,0.0,0.0,0.0,0.0,0.0,0.0,0.0,0.0,0.0,0.0,0.0,0.0,0.0,0.0,0.0,0.0,0.0,0.0,0.0,0.0,0.0,0.0,0.0,0.0,0.0,0.0,0.0,0.0,0.0,0.0,0.0,0.0,0.0,0.0,0.0,0.0,0.0,0.0,0.0,0.0,0.0,0.0,0.0,0.0,0.0,0.0,0.0,0.0,0.0,0.0,0.0,0.0,0.0,0.0,0.0,0.0,0.0,0.0,0.0,0.0,0.0,0.0,0.0,0.0,0.0,0.0,0.0,0.0,0.0,0.0,0.0,0.0,0.0,0.0,0.0,0.0,0.0,0.0,0.0,0.0,0.0,0.0,0.0,0.0,0.0,0.0,0.0,0.0,0.0,0.0,0.0,0.0,0.0,0.0,0.0,0.0,0.0,0.0,0.0,0.0,0.0,0.0,-0.8324,-0.938,-1.0239,-1.1204,-1.2264,0.0,0.0,0.0,0.0,0.0,0.0,0.0,0.0,0.0,0.0,0.0,0.0,0.0,0.0,0.0,0.0,0.0,0.0,0.0,0.0,0.0,0.0,0.0,0.0,0.0,0.0,0.0,0.0,0.0,0.0,0.0,0.0,0.0,0.0,0.0,0.0,0.0,0.0,0.0,0.0,0.0,0.0,0.0,0.0,0.0,0.0,0.0,0.0,0.0,0.0,0.0,0.0,0.0,0.0,0.0,0.0,0.0,0.0,0.0,0.0,0.0,0.0,0.0,0.0,0.0,0.0,0.0,0.0,0.0,0.0,0.0,0.0,0.0,0.0,0.0,0.0,0.0,0.0,0.0,0.0,0.0,0.0,0.0,0.0,0.0,0.0,0.0,0.0,0.0,0.0,0.0,0.0,0.0,0.0,0.0,0.0,0.0,0.0,0.0,0.0,0.0,0.0,0.0,0.0,0.0,0.0,0.0,0.0,0.0,0.0,0.0,0.0,-1.194,-1.3042,-1.4267,0.0,0.0,0.0,0.0,0.0,0.0,0.0,0.0,0.0,0.0,0.0,0.0,0.0,0.0,0.0,0.0,0.0,0.0,0.0,0.0,0.0,0.0,0.0,0.0,0.0,0.0,0.0,0.0,0.0,0.0,0.0,0.0,0.0,0.0,0.0,0.0,0.0,0.0,0.0,0.0,0.0,0.0,0.0,0.0,0.0,0.0,0.0,0.0,0.0,0.0,0.0,0.0,0.0,0.0,0.0,0.0,0.0,0.0,0.0,0.0,0.0,0.0,0.0,0.0,0.0,0.0,0.0,0.0,0.0,0.0,0.0,0.0,0.0,0.0,0.0,0.0,0.0,0.0,0.0,0.0,0.0,0.0,0.0,0.0,0.0,0.0,0.0,0.0,0.0,0.0,0.0,0.0,0.0,0.0,0.0,0.0,0.0,0.0,0.0,0.0,0.0,0.0,0.0,0.0,0.0,0.0,0.0,0.0,0.0,0.0,-1.1091,-1.2457,-1.3231,0.0,-1.6047,0.0,0.0,0.0,0.0,0.0,0.0,0.0,0.0,0.0,0.0,0.0,0.0,0.0,0.0,0.0,0.0,0.0,0.0,0.0,0.0,0.0,0.0,0.0,0.0,0.0,0.0,0.0,0.0,0.0,0.0,0.0,0.0,0.0,0.0,0.0,0.0,0.0,0.0,0.0,0.0,0.0,0.0,0.0,0.0,0.0,0.0,0.0,0.0,0.0,0.0,0.0,0.0,0.0,0.0,0.0,0.0,0.0,0.0,0.0,0.0,0.0,0.0,0.0,0.0,0.0,0.0,0.0,0.0,0.0,0.0,0.0,0.0,0.0,0.0,0.0,0.0,0.0,0.0,0.0,0.0,0.0,0.0,0.0,0.0,0.0,0.0,0.0,0.0,0.0,0.0,0.0,0.0,0.0,0.0,0.0,0.0,0.0,0.0,0.0,0.0,0.0,0.0,0.0,0.0,0.0,0.0,0.0,0.0,0.0,0.0,-1.2174,-1.3698,-1.5666,-1.7309,0.0,0.0,0.0,0.0,0.0,0.0,0.0,0.0,0.0,0.0,0.0,0.0,0.0,0.0,0.0,0.0,0.0,0.0,0.0,0.0,0.0,0.0,0.0,0.0,0.0,0.0,0.0,0.0,0.0,0.0,0.0,0.0,0.0,0.0,0.0,0.0,0.0,0.0,0.0,0.0,0.0,0.0,0.0,0.0,0.0,0.0,0.0,0.0,0.0,0.0,0.0,0.0,0.0,0.0,0.0,0.0,0.0,0.0,0.0,0.0,0.0,0.0,0.0,0.0,0.0,0.0,0.0,0.0,0.0,0.0,0.0,0.0,0.0,0.0,0.0,0.0,0.0,0.0,0.0,0.0,0.0,0.0,0.0,0.0,0.0,0.0,0.0,0.0,0.0,0.0,0.0,0.0,0.0,0.0,0.0,0.0,0.0,0.0,0.0,0.0,0.0,0.0,0.0,0.0,0.0,0.0,0.0,0.0,0.0,0.0,-1.1241,-1.3105,-1.5177,-1.7713,-1.9413,-2.0207,0.0,0.0,0.0,0.0,0.0,0.0,0.0,0.0,0.0,0.0,0.0,0.0,0.0,0.0,0.0,0.0,0.0,0.0,0.0,0.0,0.0,0.0,0.0,0.0,0.0,0.0,0.0,0.0,0.0,0.0,0.0,0.0,0.0,0.0,0.0,0.0,0.0,0.0,0.0,0.0,0.0,0.0,0.0,0.0,0.0,0.0,0.0,0.0,0.0,0.0,0.0,0.0,0.0,0.0,0.0,0.0,0.0,0.0,0.0,0.0,0.0,0.0,0.0,0.0,0.0,0.0,0.0,0.0,0.0,0.0,0.0,0.0,0.0,0.0,0.0,0.0,0.0,0.0,0.0,0.0,0.0,0.0,0.0,0.0,0.0,0.0,0.0,0.0,0.0,0.0,0.0,0.0,0.0,0.0,0.0,0.0,0.0,0.0,0.0,0.0,0.0,0.0,0.0,0.0,0.0,0.0,0.0,0.0,-0.9593,-1.1499,-1.3931,-1.705,-1.8691,-2.006,0.0,0.0,0.0,0.0,0.0,0.0,0.0,0.0,0.0,0.0,0.0,0.0,0.0,0.0,0.0,0.0,0.0,0.0,0.0,0.0,0.0,0.0,0.0,0.0,0.0,0.0,0.0,0.0,0.0,0.0,0.0,0.0,0.0,0.0,0.0,0.0,0.0,0.0,0.0,0.0,0.0,0.0,0.0,0.0,0.0,0.0,0.0,0.0,0.0,0.0,0.0,0.0,0.0,0.0,0.0,0.0,0.0,0.0,0.0,0.0,0.0,0.0,0.0,0.0,0.0,0.0,0.0,0.0,0.0,0.0,0.0,0.0,0.0,0.0,0.0,0.0,0.0,0.0,0.0,0.0,0.0,0.0,0.0,0.0,0.0,0.0,0.0,0.0,0.0,0.0,0.0,0.0,0.0,0.0,0.0,0.0,0.0,0.0,0.0,0.0,0.0,0.0,0.0,0.0,0.0,0.0,0.0,0.0,0.0,-1.0106,-1.3237,-1.6211,-1.8797,-2.0623,-2.2027,0.0,0.0,0.0,0.0,0.0,0.0,0.0,0.0,0.0,0.0,0.0,0.0,0.0,0.0,0.0,0.0,0.0,0.0,0.0,0.0,0.0,0.0,0.0,0.0,0.0,0.0,0.0,0.0,0.0,0.0,0.0,0.0,0.0,0.0,0.0,0.0,0.0,0.0,0.0,0.0,0.0,0.0,0.0,0.0,0.0,0.0,0.0,0.0,0.0,0.0,0.0,0.0,0.0,0.0,0.0,0.0,0.0,0.0,0.0,0.0,0.0,0.0,0.0,0.0,0.0,0.0,0.0,0.0,0.0,0.0,0.0,0.0,0.0,0.0,0.0,0.0,0.0,0.0,0.0,0.0,0.0,0.0,0.0,0.0,0.0,0.0,0.0,0.0,0.0,0.0,0.0,0.0,0.0,0.0,0.0,0.0,0.0,0.0,0.0,0.0,0.0,0.0,0.0,0.0,0.0,0.0,0.0,0.0,0.0,-1.1305,0.0,-1.7349,-1.9828,-2.1607,-2.3158,0.0,0.0,0.0,0.0,0.0,0.0,0.0,0.0,0.0,0.0,0.0,0.0,0.0,0.0,0.0,0.0,0.0,0.0,0.0,0.0,0.0,0.0,0.0,0.0,0.0,0.0,0.0,0.0,0.0,0.0,0.0,0.0,0.0,0.0,0.0,0.0,0.0,0.0,0.0,0.0,0.0,0.0,0.0,0.0,0.0,0.0,0.0,0.0,0.0,0.0,0.0,0.0,0.0,0.0,0.0,0.0,0.0,0.0,0.0,0.0,0.0,0.0,0.0,0.0,0.0,0.0,0.0,0.0,0.0,0.0,0.0,0.0,0.0,0.0,0.0,0.0,0.0,0.0,0.0,0.0,0.0,0.0,0.0,0.0,0.0,0.0,0.0,0.0,0.0,0.0,0.0,0.0,0.0,0.0,0.0,0.0,0.0,0.0,0.0,0.0,0.0,0.0,0.0,0.0,0.0,0.0,0.0,0.0,-1.0351,-1.3275,-1.5072,-1.7332,-2.0052,-2.1769,-2.3169,0.0,0.0,0.0,0.0,0.0,0.0,0.0,0.0,0.0,0.0,0.0,0.0,0.0,0.0,0.0,0.0,0.0,0.0,0.0,0.0,0.0,0.0,0.0,0.0,0.0,0.0,0.0,0.0,0.0,0.0,0.0,0.0,0.0,0.0,0.0,0.0,0.0,0.0,0.0,0.0,0.0,0.0,0.0,0.0,0.0,0.0,0.0,0.0,0.0,0.0,0.0,0.0,0.0,0.0,0.0,0.0,0.0,0.0,0.0,0.0,0.0,0.0,0.0,0.0,0.0,0.0,0.0,0.0,0.0,0.0,0.0,0.0,0.0,0.0,0.0,0.0,0.0,0.0,0.0,0.0,0.0,0.0,0.0,0.0,0.0,0.0,0.0,0.0,0.0,0.0,0.0,0.0,0.0,0.0,0.0,0.0,0.0,0.0,0.0,0.0,0.0,0.0,0.0,0.0,0.0,0.0,0.0,0.0,0.0,-1.4028,-1.6078,-1.8178,-2.0324,-2.2167,-2.3537,0.0,0.0,0.0,0.0,0.0,0.0,0.0,0.0,0.0,0.0,0.0,0.0,0.0,0.0,0.0,0.0,0.0,0.0,0.0,0.0,0.0,0.0,0.0,0.0,0.0,0.0,0.0,0.0,0.0,0.0,0.0,0.0,0.0,0.0,0.0,0.0,0.0,0.0,0.0,0.0,0.0,0.0,0.0,0.0,0.0,0.0,0.0,0.0,0.0,0.0,0.0,0.0,0.0,0.0,0.0,0.0,0.0,0.0,0.0,0.0,0.0,0.0,0.0,0.0,0.0,0.0,0.0,0.0,0.0,0.0,0.0,0.0,0.0,0.0,0.0,0.0,0.0,0.0,0.0,0.0,0.0,0.0,0.0,0.0,0.0,0.0,0.0,0.0,0.0,0.0,0.0,0.0,0.0,0.0,0.0,0.0,0.0,0.0,0.0,0.0,0.0,0.0,0.0,0.0,0.0,0.0,0.0,0.0,0.0,-1.409,-1.6064,-1.7946,-1.9856,-2.1628,-2.2925,-2.3734,0.0,0.0,0.0,0.0,0.0,0.0,0.0,0.0,0.0,0.0,0.0,0.0,0.0,0.0,0.0,0.0,0.0,0.0,0.0,0.0,0.0,0.0,0.0,0.0,0.0,0.0,0.0,0.0,0.0,0.0,0.0,0.0,0.0,0.0,0.0,0.0,0.0,0.0,0.0,0.0,0.0,0.0,0.0,0.0,0.0,0.0,0.0,0.0,0.0,0.0,0.0,0.0,0.0,0.0,0.0,0.0,0.0,0.0,0.0,0.0,0.0,0.0,0.0,0.0,0.0,0.0,0.0,0.0,0.0,0.0,0.0,0.0,0.0,0.0,0.0,0.0,0.0,0.0,0.0,0.0,0.0,0.0,0.0,0.0,0.0,0.0,0.0,0.0,0.0,0.0,0.0,0.0,0.0,0.0,0.0,0.0,0.0,0.0,0.0,0.0,0.0,0.0,0.0,0.0,0.0,0.0,0.0,0.0,-1.3686,-1.5127,-1.6862,-1.878,-2.043,-2.1649,0.0,0.0,0.0,0.0,0.0,0.0,0.0,0.0,0.0,0.0,0.0,0.0,0.0,0.0,0.0,0.0,0.0,0.0,0.0,0.0,0.0,0.0,0.0,0.0,0.0,0.0,0.0,0.0,0.0,0.0,0.0,0.0,0.0,0.0,0.0,0.0,0.0,0.0,0.0,0.0,0.0,0.0,0.0,0.0,0.0,0.0,0.0,0.0,0.0,0.0,0.0,0.0,0.0,0.0,0.0,0.0,0.0,0.0,0.0,0.0,0.0,0.0,0.0,0.0,0.0,0.0,0.0,0.0,0.0,0.0,0.0,0.0,0.0,0.0,0.0,0.0,0.0,0.0,0.0,0.0,0.0,0.0,0.0,0.0,0.0,0.0,0.0,0.0,0.0,0.0,0.0,0.0,0.0,0.0,0.0,0.0,0.0,0.0,0.0,0.0,0.0,0.0,0.0,0.0,0.0,0.0,0.0,0.0,0.0,-1.2733,-1.3995,-1.5691,-1.7987,-1.9587,-2.0555,0.0,0.0,0.0,0.0,0.0,0.0,0.0,0.0,0.0,0.0,0.0,0.0,0.0,0.0,0.0,0.0,0.0,0.0,0.0,0.0,0.0,0.0,0.0,0.0,0.0,0.0,0.0,0.0,0.0,0.0,0.0,0.0,0.0,0.0,0.0,0.0,0.0,0.0,0.0,0.0,0.0,0.0,0.0,0.0,0.0,0.0,0.0,0.0,0.0,0.0,0.0,0.0,0.0,0.0,0.0,0.0,0.0,0.0,0.0,0.0,0.0,0.0,0.0,0.0,0.0,0.0,0.0,0.0,0.0,0.0,0.0,0.0,0.0,0.0,0.0,0.0,0.0,0.0,0.0,0.0,0.0,0.0,0.0,0.0,0.0,0.0,0.0,0.0,0.0,0.0,0.0,0.0,0.0,0.0,0.0,0.0,0.0,0.0,0.0,0.0,0.0,0.0,0.0,0.0,0.0,0.0,0.0,0.0,-1.114,-1.2785,-1.3958,-1.5447,-1.7392,-1.8439,-1.9173,0.0,0.0,0.0,0.0,0.0,0.0,0.0,0.0,0.0,0.0,0.0,0.0,0.0,0.0,0.0,0.0,0.0,0.0,0.0,0.0,0.0,0.0,0.0,0.0,0.0,0.0,0.0,0.0,0.0,0.0,0.0,0.0,0.0,0.0,0.0,0.0,0.0,0.0,0.0,0.0,0.0,0.0,0.0,0.0,0.0,0.0,0.0,0.0,0.0,0.0,0.0,0.0,0.0,0.0,0.0,0.0,0.0,0.0,0.0,0.0,0.0,0.0,0.0,0.0,0.0,0.0,0.0,0.0,0.0,0.0,0.0,0.0,0.0,0.0,0.0,0.0,0.0,0.0,0.0,0.0,0.0,0.0,0.0,0.0,0.0,0.0,0.0,0.0,0.0,0.0,0.0,0.0,0.0,0.0,0.0,0.0,0.0,0.0,0.0,0.0,0.0,0.0,0.0,0.0,0.0,0.0,0.0,0.0,-1.1324,-1.3251,-1.4595,-1.582,-1.6994,-1.7323,-1.7846,0.0,0.0,0.0,0.0,0.0,0.0,0.0,0.0,0.0,0.0,0.0,0.0,0.0,0.0,0.0,0.0,0.0,0.0,0.0,0.0,0.0,0.0,0.0,0.0,0.0,0.0,0.0,0.0,0.0,0.0,0.0,0.0,0.0,0.0,0.0,0.0,0.0,0.0,0.0,0.0,0.0,0.0,0.0,0.0,0.0,0.0,0.0,0.0,0.0,0.0,0.0,0.0,0.0,0.0,0.0,0.0,0.0,0.0,0.0,0.0,0.0,0.0,0.0,0.0,0.0,0.0,0.0,0.0,0.0,0.0,0.0,0.0,0.0,0.0,0.0,0.0,0.0,0.0,0.0,0.0,0.0,0.0,0.0,0.0,0.0,0.0,0.0,0.0,0.0,0.0,0.0,0.0,0.0,0.0,0.0,0.0,0.0,0.0,0.0,0.0,0.0,0.0,0.0,0.0,0.0,0.0,0.0,0.0,-1.189,-1.3228,-1.5139,-1.6505,-1.7423,-1.7598,-1.7986,0.0,0.0,0.0,0.0,0.0,0.0,0.0,0.0,0.0,0.0,0.0,0.0,0.0,0.0,0.0,0.0,0.0,0.0,0.0,0.0,0.0,0.0,0.0,0.0,0.0,0.0,0.0,0.0,0.0,0.0,0.0,0.0,0.0,0.0,0.0,0.0,0.0,0.0,0.0,0.0,0.0,0.0,0.0,0.0,0.0,0.0,0.0,0.0,-0.3652,0.0,0.0,0.0,0.0,0.0,0.0,0.0,0.0,0.0,0.0,0.0,0.0,0.0,0.0,0.0,0.0,0.0,0.0,0.0,0.0,0.0,0.0,0.0,0.0,0.0,0.0,0.0,0.0,0.0,0.0,0.0,0.0,0.0,0.0,0.0,0.0,0.0,0.0,0.0,0.0,0.0,0.0,0.0,0.0,0.0,0.0,0.0,0.0,0.0,0.0,0.0,0.0,0.0,0.0,0.0,0.0,0.0,0.0,0.0,-1.2347,-1.4066,-1.5976,-1.7479,-1.846,-1.8665,-1.8643,0.0,0.0,0.0,0.0,0.0,0.0,0.0,0.0,0.0,0.0,0.0,0.0,0.0,0.0,0.0,0.0,0.0,0.0,0.0,0.0,0.0,0.0,0.0,0.0,0.0,0.0,0.0,0.0,0.0,0.0,0.0,0.0,0.0,0.0,0.0,0.0,0.0,0.0,0.0,0.0,0.0,0.0,0.0,0.0,0.0,0.0,0.0,0.0,0.0,0.0,0.0,0.0,0.0,0.0,0.0,0.0,0.0,0.0,0.0,0.0,0.0,0.0,0.0,0.0,0.0,0.0,0.0,0.0,0.0,0.0,0.0,0.0,0.0,0.0,0.0,0.0,0.0,0.0,0.0,0.0,0.0,0.0,0.0,0.0,0.0,0.0,0.0,0.0,0.0,0.0,0.0,0.0,0.0,0.0,0.0,0.0,0.0,0.0,0.0,0.0,0.0,0.0,0.0,0.0,0.0,0.0,0.0,-1.117,-1.2945,-1.4918,-1.6975,-1.865,-1.9864,-1.9948,-1.9703,-1.902,0.0,0.0,0.0,0.0,0.0,0.0,0.0,0.0,0.0,0.0,0.0,0.0,0.0,0.0,0.0,0.0,0.0,0.0,0.0,0.0,0.0,0.0,0.0,0.0,0.0,0.0,0.0,0.0,0.0,0.0,0.0,0.0,0.0,0.0,0.0,0.0,0.0,0.0,-0.9276,-0.9162,0.0,0.0,0.0,0.0,0.0,0.0,0.0,0.0,-0.7345,0.0,0.0,0.0,0.0,0.0,0.0,0.0,0.0,0.0,0.0,0.0,0.0,0.0,0.0,0.0,0.0,0.0,0.0,0.0,0.0,0.0,0.0,0.0,0.0,0.0,0.0,0.0,0.0,0.0,0.0,0.0,0.0,0.0,0.0,0.0,0.0,0.0,0.0,0.0,0.0,0.0,0.0,0.0,0.0,0.0,0.0,0.0,0.0,0.0,0.0,0.0,0.0,0.0,0.0,0.0,0.0,-1.0154,-1.2531,-1.4364,-1.5476,-1.8302,-2.0025,-2.0688,-2.0966,-2.0925,-2.0462,0.0,0.0,0.0,0.0,0.0,0.0,0.0,0.0,0.0,0.0,0.0,0.0,0.0,0.0,0.0,0.0,0.0,0.0,0.0,0.0,0.0,0.0,0.0,0.0,0.0,0.0,0.0,0.0,0.0,0.0,0.0,0.0,0.0,0.0,0.0,0.0,0.0,0.0,0.0,-1.1097,-1.0808,0.0,0.0,0.0,0.0,0.0,0.0,0.0,0.0,-1.225,0.0,0.0,0.0,0.0,0.0,0.0,0.0,0.0,0.0,0.0,0.0,0.0,0.0,0.0,0.0,0.0,0.0,0.0,0.0,0.0,0.0,0.0,0.0,0.0,0.0,0.0,0.0,0.0,0.0,0.0,0.0,0.0,0.0,0.0,0.0,0.0,0.0,0.0,0.0,0.0,0.0,0.0,0.0,0.0,0.0,0.0,0.0,0.0,0.0,0.0,0.0,0.0,0.0,0.0,0.0,-1.1221,-1.3354,-1.5221,-1.6647,-1.8831,-2.0413,-2.1302,-2.1603,-2.1515,0.0,0.0,0.0,0.0,0.0,0.0,0.0,0.0,0.0,0.0,0.0,0.0,0.0,0.0,0.0,0.0,0.0,0.0,0.0,0.0,0.0,0.0,0.0,0.0,0.0,0.0,0.0,0.0,0.0,0.0,0.0,0.0,0.0,0.0,0.0,0.0,0.0,0.0,0.0,0.0,-1.2879,-1.2919,-1.2784,0.0,0.0,0.0,0.0,0.0,0.0,-1.3979,-1.4412,0.0,0.0,0.0,0.0,0.0,0.0,0.0,0.0,0.0,0.0,0.0,0.0,0.0,0.0,0.0,0.0,0.0,0.0,0.0,0.0,0.0,0.0,0.0,0.0,0.0,0.0,0.0,0.0,0.0,0.0,0.0,0.0,0.0,0.0,0.0,0.0,0.0,0.0,0.0,0.0,0.0,0.0,0.0,0.0,0.0,0.0,0.0,0.0,0.0,0.0,0.0,0.0,0.0,0.0,0.0,-1.2323,-1.4108,-1.5873,-1.757,-1.9346,-2.0704,-2.1694,-2.2047,-2.1981,0.0,0.0,0.0,0.0,0.0,0.0,0.0,0.0,0.0,0.0,0.0,0.0,0.0,0.0,0.0,0.0,0.0,0.0,0.0,0.0,0.0,0.0,0.0,0.0,0.0,0.0,0.0,0.0,0.0,0.0,0.0,0.0,0.0,0.0,0.0,0.0,0.0,0.0,0.0,0.0,0.0,-1.4702,-1.5012,-1.4473,0.0,0.0,0.0,0.0,-1.5829,-1.6409,0.0,0.0,0.0,0.0,0.0,0.0,0.0,0.0,0.0,0.0,0.0,0.0,0.0,0.0,0.0,0.0,0.0,0.0,0.0,0.0,0.0,0.0,0.0,0.0,0.0,0.0,0.0,0.0,0.0,0.0,0.0,0.0,0.0,0.0,0.0,0.0,0.0,0.0,0.0,0.0,0.0,0.0,0.0,0.0,0.0,0.0,0.0,0.0,0.0,0.0,0.0,0.0,0.0,0.0,0.0,0.0,-1.3132,-1.5045,-1.664,-1.7845,-1.9921,-2.1304,-2.1957,-2.2512,-2.2566,0.0,0.0,0.0,0.0,0.0,0.0,0.0,0.0,0.0,0.0,0.0,0.0,0.0,0.0,0.0,0.0,0.0,0.0,0.0,0.0,0.0,0.0,0.0,0.0,0.0,0.0,0.0,0.0,0.0,0.0,0.0,0.0,0.0,0.0,0.0,0.0,0.0,0.0,0.0,0.0,0.0,-1.5581,-1.6012,-1.6107,-1.6262,0.0,0.0,-1.9243,-1.8742,-2.06,0.0,0.0,0.0,0.0,0.0,0.0,0.0,0.0,0.0,0.0,0.0,0.0,0.0,0.0,0.0,0.0,0.0,0.0,0.0,0.0,0.0,0.0,0.0,0.0,0.0,0.0,0.0,0.0,0.0,0.0,0.0,0.0,0.0,0.0,0.0,0.0,0.0,0.0,0.0,0.0,0.0,0.0,0.0,0.0,0.0,0.0,0.0,0.0,0.0,0.0,0.0,0.0,0.0,0.0,0.0,-1.3375,-1.4057,-1.5967,-1.7565,-1.8842,-2.0221,-2.1379,-2.2304,-2.2399,-2.2177,0.0,0.0,0.0,0.0,0.0,0.0,0.0,0.0,0.0,0.0,0.0,0.0,0.0,0.0,0.0,0.0,0.0,0.0,0.0,0.0,0.0,0.0,0.0,0.0,0.0,0.0,0.0,0.0,0.0,0.0,0.0,0.0,0.0,0.0,0.0,0.0,0.0,0.0,0.0,0.0,0.0,0.0,-1.821,-1.8509,0.0,0.0,0.0,-2.1574,-2.1413,0.0,0.0,0.0,0.0,0.0,0.0,0.0,0.0,0.0,0.0,0.0,0.0,0.0,0.0,0.0,0.0,0.0,0.0,0.0,0.0,0.0,0.0,0.0,0.0,0.0,0.0,0.0,0.0,0.0,0.0,0.0,0.0,0.0,0.0,0.0,0.0,0.0,0.0,0.0,0.0,0.0,0.0,0.0,0.0,0.0,0.0,0.0,0.0,0.0,0.0,0.0,0.0,0.0,0.0,0.0,0.0,0.0,-1.498,-1.6704,-1.8253,-1.956,-2.04,-2.1412,-2.2381,-2.2231,0.0,0.0,0.0,0.0,0.0,0.0,0.0,0.0,0.0,0.0,0.0,0.0,0.0,0.0,0.0,0.0,0.0,0.0,0.0,0.0,0.0,0.0,0.0,0.0,0.0,0.0,0.0,-1.506,0.0,0.0,0.0,0.0,0.0,0.0,0.0,0.0,0.0,0.0,0.0,0.0,0.0,0.0,-1.9245,-2.0296,-2.0906,-2.1533,0.0,0.0,-2.3967,-2.4065,-2.482,-2.4829,0.0,0.0,0.0,0.0,0.0,0.0,0.0,0.0,0.0,0.0,0.0,0.0,0.0,0.0,0.0,0.0,0.0,0.0,0.0,0.0,0.0,0.0,0.0,0.0,0.0,0.0,0.0,0.0,0.0,0.0,0.0,0.0,0.0,0.0,0.0,0.0,0.0,0.0,0.0,0.0,0.0,0.0,0.0,0.0,0.0,0.0,0.0,0.0,0.0,0.0,0.0,0.0,0.0,0.0,-1.4993,-1.5831,-1.7203,-1.8372,-1.9478,-2.0605,-2.1494,-2.203,-2.197,-2.1769,0.0,0.0,0.0,0.0,0.0,0.0,0.0,0.0,0.0,0.0,0.0,0.0,0.0,0.0,0.0,0.0,0.0,0.0,0.0,0.0,0.0,0.0,0.0,0.0,0.0,0.0,0.0,0.0,0.0,0.0,0.0,0.0,0.0,0.0,0.0,0.0,0.0,0.0,0.0,0.0,0.0,-2.1058,-2.1933,-2.3153,-2.4156,0.0,-2.6064,-2.689,-2.6456,-2.7826,-2.7679,-2.3991,0.0,0.0,0.0,0.0,0.0,0.0,0.0,0.0,0.0,0.0,0.0,0.0,0.0,0.0,0.0,0.0,0.0,0.0,0.0,0.0,0.0,0.0,0.0,0.0,0.0,0.0,0.0,0.0,0.0,0.0,0.0,0.0,0.0,0.0,0.0,0.0,0.0,0.0,0.0,0.0,0.0,0.0,0.0,0.0,0.0,0.0,0.0,0.0,0.0,0.0,0.0,0.0,0.0,-1.5285,-1.6042,-1.7309,-1.8565,-1.9797,-2.0636,-2.1216,-2.182,-2.1611,-2.1142,0.0,0.0,0.0,0.0,0.0,0.0,0.0,0.0,0.0,0.0,0.0,0.0,0.0,0.0,0.0,0.0,0.0,0.0,0.0,0.0,0.0,0.0,0.0,0.0,0.0,0.0,0.0,0.0,-1.5398,-1.5671,-1.604,0.0,0.0,0.0,0.0,0.0,0.0,0.0,0.0,0.0,0.0,-2.1986,-2.3543,-2.4663,0.0,0.0,-2.717,-2.7747,-2.7331,-2.7643,-2.7254,-2.5119,-2.3731,0.0,0.0,0.0,0.0,0.0,0.0,0.0,0.0,0.0,0.0,0.0,0.0,0.0,0.0,0.0,0.0,0.0,0.0,0.0,0.0,0.0,0.0,0.0,0.0,0.0,0.0,0.0,0.0,0.0,0.0,0.0,0.0,0.0,0.0,0.0,0.0,0.0,0.0,0.0,0.0,0.0,0.0,0.0,0.0,0.0,0.0,0.0,0.0,0.0,0.0,0.0,0.0,-1.5513,-1.6451,-1.7473,-1.8696,-2.0039,-2.0491,-2.1019,-2.1522,-2.1192,-2.067,0.0,0.0,0.0,0.0,0.0,0.0,0.0,0.0,0.0,0.0,0.0,0.0,0.0,0.0,0.0,0.0,0.0,0.0,0.0,0.0,0.0,0.0,0.0,0.0,0.0,0.0,0.0,0.0,-1.6181,-1.6501,-1.6676,0.0,0.0,0.0,0.0,0.0,0.0,0.0,0.0,0.0,0.0,-2.3319,-2.4995,-2.634,-2.7199,-2.7608,-2.8251,-2.8482,-2.8017,-2.754,-2.6917,-2.5637,0.0,0.0,0.0,0.0,0.0,0.0,0.0,0.0,0.0,0.0,0.0,0.0,0.0,0.0,0.0,0.0,0.0,0.0,0.0,0.0,0.0,0.0,0.0,0.0,0.0,0.0,0.0,0.0,0.0,0.0,-1.6302,0.0,0.0,0.0,0.0,0.0,0.0,0.0,0.0,0.0,0.0,0.0,0.0,0.0,0.0,0.0,0.0,0.0,0.0,0.0,0.0,0.0,0.0,-1.5609,-1.6965,-1.7678,-1.8699,-2.004,-2.0411,-2.0719,-2.1224,-2.0806,-2.0437,-2.0361,0.0,0.0,0.0,0.0,0.0,0.0,0.0,0.0,0.0,0.0,0.0,0.0,0.0,0.0,0.0,0.0,0.0,0.0,0.0,0.0,0.0,0.0,0.0,0.0,0.0,0.0,-1.656,-1.6777,-1.6972,0.0,0.0,0.0,0.0,0.0,0.0,0.0,0.0,0.0,0.0,-2.3384,-2.5343,-2.6461,-2.8114,-2.9156,-2.91,-2.9483,-2.9465,-2.8729,-2.8219,-2.7341,0.0,0.0,0.0,0.0,0.0,0.0,0.0,0.0,0.0,0.0,0.0,0.0,0.0,0.0,0.0,0.0,0.0,0.0,0.0,0.0,0.0,0.0,0.0,0.0,0.0,0.0,0.0,-1.5866,-1.5708,0.0,0.0,0.0,0.0,0.0,0.0,0.0,0.0,0.0,0.0,0.0,-1.4832,-1.512,0.0,0.0,0.0,0.0,0.0,0.0,0.0,0.0,0.0,0.0,0.0,0.0,-1.5524,-1.6487,-1.7295,-1.8311,-1.9554,-1.9783,-2.0094,-2.049,-2.0189,-1.9728,-1.9108,0.0,0.0,0.0,0.0,0.0,0.0,0.0,0.0,0.0,0.0,0.0,0.0,0.0,0.0,0.0,0.0,0.0,0.0,0.0,0.0,0.0,0.0,0.0,0.0,0.0,-1.6501,0.0,0.0,0.0,0.0,0.0,0.0,0.0,0.0,0.0,0.0,0.0,-2.1209,-2.2799,-2.422,-2.5553,-2.6772,-2.823,-2.9186,0.0,0.0,0.0,0.0,0.0,0.0,0.0,0.0,0.0,0.0,0.0,0.0,0.0,0.0,-2.3004,-2.2107,-2.2086,-2.2228,-2.2228,0.0,0.0,0.0,0.0,0.0,0.0,0.0,0.0,0.0,0.0,0.0,0.0,0.0,0.0,-1.5922,0.0,-1.5575,0.0,0.0,0.0,0.0,0.0,0.0,0.0,0.0,-1.4481,-1.4756,-1.5044,-1.5512,-1.5601,0.0,-1.522,-1.4838,0.0,0.0,0.0,0.0,0.0,0.0,0.0,0.0,-1.5389,-1.6531,-1.705,-1.7915,-1.902,-1.9257,-1.9569,-1.9776,-1.9569,-1.9008,-1.8207,-1.7382,-1.6876,0.0,0.0,0.0,0.0,0.0,0.0,0.0,0.0,0.0,0.0,0.0,0.0,0.0,0.0,0.0,0.0,0.0,0.0,0.0,0.0,0.0,0.0,0.0,-1.6622,0.0,0.0,0.0,0.0,0.0,0.0,0.0,0.0,0.0,-2.0885,-2.133,-2.2352,-2.3974,-2.5086,-2.6177,-2.7283,0.0,0.0,0.0,0.0,0.0,0.0,0.0,-2.6818,-2.6684,-2.5715,-2.4787,-2.4587,-2.4434,-2.4116,-2.3591,0.0,0.0,-2.3029,-2.2967,-2.3106,-2.3113,-2.3106,-2.3175,-2.3497,-2.3378,-2.3412,0.0,0.0,0.0,0.0,0.0,0.0,0.0,0.0,-1.6443,-1.6536,0.0,-1.6094,0.0,0.0,0.0,0.0,0.0,-1.3811,0.0,0.0,-1.4469,-1.4746,-1.5035,-1.5858,-1.6025,-1.5523,-1.5517,-1.5297,-1.5012,-1.4467,0.0,0.0,0.0,0.0,0.0,0.0,-1.5404,-1.6836,-1.6878,-1.7415,-1.8715,-1.8743,-1.8959,-1.9189,-1.8952,-1.8386,-1.7606,-1.7264,-1.6678,-1.6026,-1.5895,0.0,0.0,0.0,0.0,0.0,0.0,0.0,0.0,0.0,0.0,0.0,0.0,0.0,0.0,0.0,0.0,0.0,0.0,0.0,0.0,-1.6943,0.0,0.0,0.0,0.0,0.0,0.0,0.0,0.0,0.0,0.0,-2.1486,-2.2325,-2.3454,-2.452,0.0,0.0,0.0,0.0,-2.9639,-2.9273,-2.8888,-2.852,-2.7781,-2.7103,-2.66,-2.6568,0.0,0.0,-2.4606,-2.4694,-2.462,-2.393,-2.4015,-2.4323,-2.4302,-2.4289,-2.4303,-2.431,-2.4289,-2.4324,-2.4331,-2.3997,-2.4122,-1.8948,0.0,0.0,0.0,0.0,-1.6781,-1.6483,-1.6292,-1.6088,-1.5994,-1.6008,-1.5545,0.0,0.0,0.0,0.0,0.0,0.0,-1.4239,-1.4867,-1.4946,-1.5121,-1.5384,-1.6033,-1.6092,-1.5742,-1.5742,-1.5433,-1.4702,-1.4531,-1.4194,-1.3613,0.0,0.0,0.0,0.0,-1.5038,-1.5838,-1.6469,-1.71,-1.7889,-1.8104,-1.8317,-1.8317,-1.7907,-1.766,-1.7573,-1.7141,-1.6756,-1.6514,-1.6088,0.0,0.0,0.0,0.0,0.0,0.0,0.0,0.0,0.0,0.0,0.0,0.0,0.0,0.0,0.0,0.0,0.0,0.0,0.0,-1.6374,-1.6959,-1.7406,0.0,0.0,0.0,0.0,0.0,0.0,0.0,0.0,0.0,-2.2559,-2.282,-2.3488,0.0,0.0,-2.6608,-2.6969,-2.7942,-2.8485,-2.8227,-2.8541,0.0,-2.7851,-2.7503,-2.7193,-2.6806,-2.6456,-2.6163,-2.5576,-2.5468,-2.5395,-2.4827,-2.4609,-2.4456,-2.4593,-2.4377,-2.4098,-2.3948,-2.4098,-2.4098,-2.3948,-2.4092,-2.4446,-1.9928,-1.914,-1.8243,-1.7648,-1.7227,-1.6927,-1.6647,-1.6482,-1.5899,-1.5758,-1.6158,-1.5411,-1.4769,-1.4182,-1.4069,0.0,0.0,0.0,-1.4678,-1.5414,-1.5078,-1.5035,-1.534,-1.5605,-1.558,-1.5308,-1.5288,-1.5038,-1.4669,-1.4164,-1.3798,-1.342,0.0,0.0,-1.3579,-1.3928,-1.4511,-1.5221,-1.5719,-1.6393,-1.7034,-1.7264,-1.7534,-1.7637,-1.727,-1.7128,-1.7336,-1.68,-1.651,-1.6342,-1.5713,-1.5209,0.0,0.0,0.0,0.0,0.0,0.0,0.0,0.0,0.0,0.0,0.0,-1.6784,-1.6777,0.0,0.0,0.0,-1.6176,-1.6332,-1.642,-1.7156,0.0,0.0,0.0,0.0,0.0,0.0,0.0,-2.1085,-2.1728,-2.2361,-2.2991,-2.3196,-2.3699,-2.5095,-2.6002,-2.6512,-2.6755,0.0,-2.8019,-2.7761,-2.7898,-2.7976,-2.7358,-2.7217,-2.6884,-2.6542,-2.6571,-2.6402,-2.5719,-2.5636,-2.5507,-2.5031,-2.469,-2.4462,-2.4462,-2.4235,-2.3977,-2.3884,-2.4077,-2.4223,-2.3631,-2.4077,-2.4573,-2.0874,-2.0475,-1.9115,-1.8049,-1.7228,-1.7274,-1.713,-1.6788,-1.5879,-1.5933,-1.6637,-1.5421,-1.462,-1.4372,-1.4007,0.0,-1.4472,-1.472,-1.5249,-1.5935,-1.5119,-1.4775,-1.4945,-1.495,-1.4729,-1.4546,-1.4414,-1.4514,-1.4703,-1.3542,-1.3016,-1.3186,-1.3204,-1.3377,-1.3663,-1.3461,-1.3881,-1.4879,-1.5045,-1.5406,-1.6222,-1.6474,-1.6718,-1.7049,-1.6882,-1.6848,-1.7085,-1.6586,-1.6113,-1.5897,-1.5106,-1.455,-1.418,0.0,0.0,0.0,0.0,0.0,0.0,0.0,0.0,0.0,0.0,0.0,0.0,0.0,0.0,0.0,-1.6227,0.0,-1.6768,-1.7225,0.0,0.0,0.0,-1.9192,-1.9787,-2.0338,-2.0772,-2.1106,0.0,0.0,-2.2996,-2.3316,-2.4014,-2.5296,-2.628,-2.6921,-2.7157,-2.7539,-2.7922,-2.7571,-2.7302,-2.7059,-2.6604,-2.617,-2.5933,-2.5959,-2.6247,-2.6069,-2.5548,-2.5387,-2.5063,-2.473,-2.4402,-2.4215,-2.4209,-2.3988,-2.3791,-2.3842,-2.4235,-2.4242,-2.3465,-2.3895,-2.4402,-2.1942,-2.1639,-2.1272,-2.0005,-1.8354,-1.7987,-1.7394,-1.6788,-1.6448,-1.6218,-1.5974,-1.5415,-1.4998,-1.4718,-1.4527,-1.4844,-1.5499,-1.5771,-1.6216,-1.6714,-1.6215,-1.5565,-1.5041,-1.4728,-1.4412,-1.3977,-1.3917,-1.3826,-1.3593,-1.3111,-1.2764,-1.2654,-1.2393,-1.2578,-1.3205,-1.3565,-1.3898,-1.4404,-1.4973,-1.5538,-1.6074,-1.6155,-1.6418,-1.6984,-1.687,-1.6826,-1.7129,-1.6578,-1.6071,-1.5538,-1.5176,-1.4642,-1.4282,-1.4436,0.0,0.0,0.0,0.0,0.0,0.0,0.0,0.0,0.0,-1.6116,-1.6339,0.0,-1.5607,0.0,-1.5962,-1.6367,-1.7334,-1.7553,0.0,0.0,-1.9001,-1.9626,-1.978,-2.0315,-2.0857,-2.1174,-2.1476,-2.1902,-2.2331,-2.2896,-2.337,-2.402,-2.4986,-2.5755,-2.6205,-2.6049,-2.6017,-2.6477,-2.6487,-2.6165,-2.5692,-2.5137,-2.5143,-2.5557,-2.5499,-2.5401,-2.5677,-2.5402,-2.5151,-2.5051,-2.4548,-2.4229,-2.4189,-2.3681,-2.3243,-2.3078,-2.3255,-2.3248,-2.2507,-2.3235,-2.3791,-2.3226,-2.2671,-2.2483,-2.1462,-1.9887,-1.9274,-1.8494,-1.7781,-1.6958,-1.6272,-1.5737,-1.5322,-1.5171,-1.5322,-1.5128,-1.5537,-1.6393,-1.6646,-1.6714,-1.6916,-1.6103,-1.5264,-1.4554,-1.4109,-1.3997,-1.4015,-1.3891,-1.3886,-1.3902,-1.3565,-1.3165,-1.2947,-1.272,-1.288,-1.3197,-1.3224,-1.3388,-1.393,-1.4724,-1.5368,-1.5848,-1.5865,-1.6164,-1.6621,-1.6458,-1.6533,-1.677,-1.6367,-1.5946,-1.5423,-1.5053,-1.4727,-1.4384,-1.4648,-1.4871,0.0,0.0,0.0,0.0,0.0,0.0,0.0,0.0,0.0,0.0,0.0,-1.5833,-1.6223,-1.6276,-1.6704,-1.7628,-1.7609,-1.7754,-1.8165,-1.877,-1.9265,-1.9575,-2.0233,-2.078,-2.1074,-2.15,-2.1915,-2.2097,-2.2511,-2.2886,-2.3206,-2.3609,-2.4372,-2.5176,-2.5237,-2.539,-2.5704,-2.5646,-2.5642,-2.5175,-2.4922,-2.4905,-2.4947,-2.4905,-2.4794,-2.513,-2.4936,-2.4665,-2.465,-2.4159,-2.3814,-2.3801,-2.3285,-2.2665,-2.2384,-2.2243,-2.219,-2.1845,-2.2748,-2.3436,-2.4287,-2.3653,-2.3257,-2.2531,-2.1631,-2.0761,-1.992,-1.8899,-1.7413,-1.645,-1.5849,-1.5289,-1.5382,-1.6075,-1.5844,-1.6249,-1.723,-1.7296,-1.713,-1.6762,-1.5738,-1.4826,-1.4151,-1.357,-1.3778,-1.4354,-1.4114,-1.4223,-1.4799,-1.4292,-1.3858,-1.3596,-1.3621,-1.3536,-1.3546,-1.2937,-1.2937,-1.3561,-1.433,-1.5008,-1.5472,-1.5564,-1.5809,-1.6172,-1.6226,-1.6312,-1.6291,-1.6082,-1.5803,-1.5454,-1.5005,-1.4689,-1.4683,-1.4892,-1.5017,0.0,-1.5239,0.0,0.0,0.0,0.0,0.0,0.0,0.0,0.0,-1.6339,-1.6187,-1.6789,-1.6916,-1.7213,-1.7874,-1.7771,-1.7871,-1.8323,-1.8504,-1.8707,-1.9267,-2.0066,-2.0735,-2.1022,-2.1553,-2.1937,-2.1985,-2.2229,-2.2517,-2.2517,-2.2645,-2.2993,-2.401,-2.457,-2.4682,-2.4795,-2.484,-2.4628,-2.4766,-2.4742,-2.4629,-2.4409,-2.4367,-2.4351,-2.4289,-2.4093,-2.3902,-2.385,-2.3574,-2.336,-2.3327,-2.2816,-2.2199,-2.1942,-2.1534,-2.126,-2.1493,-2.2181,-2.2847,-2.4685,-2.4326,-2.3818,-2.3472,-2.3056,-2.2066,-2.0587,-1.8783,-1.8206,-1.7505,-1.6573,-1.6285,-1.6445,-1.6997,-1.7108,-1.734,-1.7839,-1.8009,-1.7846,-1.7397,-1.6983,-1.608,-1.478,-1.4722,-1.4315,-1.3889,-1.4002,-1.4209,-1.4315,-1.4137,-1.4112,-1.3938,-1.3994,-1.4063,-1.4109,0.0,0.0,0.0,-1.4645,-1.4891,-1.5219,-1.529,-1.5638,-1.6488,-1.661,0.0,-1.6525,-1.6491,-1.6091,-1.5086,-1.5407,0.0,0.0,0.0,0.0,0.0,0.0,0.0,0.0,0.0,0.0,0.0,-1.6384,-1.679,-1.6424,-1.655,-1.6826,-1.7359,-1.705,-1.7196,-1.8183,-1.8633,-1.8684,-1.8646,-1.9069,-1.9412,-1.9402,-1.9886,-2.0434,-2.0722,-2.0886,-2.1098,-2.1315,-2.1543,-2.183,-2.1984,-2.2083,-2.2209,-2.2391,-2.2813,-2.3181,-2.3457,-2.3329,-2.3278,-2.3438,-2.3502,-2.3615,-2.3658,-2.3683,-2.3797,-2.4095,-2.3936,-2.3796,-2.3579,-2.3373,-2.3313,-2.3313,-2.2519,-2.1904,-2.1766,-2.1214,-2.0835,-2.0798,-2.152,-2.2051,-2.54,0.0,-2.4436,-2.3984,0.0,-2.2327,-2.1156,-1.9953,-1.9208,-1.8267,-1.7154,-1.7065,-1.7231,-1.7582,-1.7592,-1.7826,-1.8213,-1.8067,-1.7657,-1.7153,-1.6842,-1.6172,-1.5001,-1.5119,-1.4961,-1.4546,-1.4664,-1.4869,-1.5,-1.5004,-1.5002,-1.488,-1.4997,-1.5173,-1.5168,-1.4945,-1.466,-1.4544,-1.512,-1.5478,-1.5585,-1.5718,-1.6175,-1.6851,-1.6918,0.0,0.0,0.0,0.0,0.0,0.0,0.0,0.0,-1.6034,0.0,-1.6119,-1.6047,-1.6036,-1.5944,-1.5957,-1.6034,-1.5829,-1.6631,-1.6978,-1.6924,-1.705,-1.7163,-1.7518,-1.7244,-1.7321,-1.8105,-1.8221,-1.8366,-1.8375,-1.8728,-1.8994,-1.9011,-1.9572,-2.0044,-2.0176,-2.0338,-2.0568,-2.0855,-2.102,-2.1213,-2.1468,-2.1495,-2.1601,-2.1594,-2.1971,-2.2468,-2.278,-2.2849,-2.299,-2.3254,-2.3173,-2.3133,-2.3441,-2.3361,-2.3317,-2.3467,-2.322,-2.3027,-2.2721,-2.261,-2.2545,-2.2532,-2.1993,-2.149,-2.1628,-2.1352,-2.1081,-2.122,-2.1352,-2.1628,-2.5867,-2.5273,-2.4802,-2.4135,-2.332,-2.2232,-2.1623,-2.1277,0.0,0.0,0.0,-1.7846,-1.7991,-1.8206,-1.7964,-1.8095,-1.852,-1.801,-1.7582,-1.6942,-1.6723,-1.6095,-1.5229,-1.5584,-1.5597,-1.5519,-1.5776,-1.5892,-1.5931,-1.6065,-1.6066,-1.5859,-1.5948,-1.6065,-1.5941,-1.5833,-1.5387,-1.4977,-1.5606,-1.5946,-1.5963,-1.6267,-1.6728,-1.7207,-1.7165,-1.7338,-1.761,-1.7488,-1.7338,-1.7279,-1.6729,-1.6418,-1.6469,-1.6529,-1.6443,-1.6304,-1.6344,-1.6351,-1.6175,-1.5985,-1.6179,-1.666,-1.699,-1.7187,-1.7479,-1.7452,-1.7482,-1.7503,-1.7452,-1.7607,-1.7871,-1.7655,-1.7655,-1.8009,-1.8249,-1.8482,-1.8816,-1.9221,-1.9592,-1.9657,-1.9912,-2.0267,-2.0431,-2.0601,-2.0681,-2.0902,-2.1094,-2.1062,-2.1096,-2.1607,-2.2062,-2.2298,-2.2493,-2.2702,-2.2997,-2.2916,-2.2939,-2.3063,-2.3054,-2.2937,-2.2909,-2.2585,-2.2153,-2.2042,-2.1878,-2.1772,-2.1766,-2.1496,-2.1352,-2.1622,-2.1484,-2.1352,-2.1628,-2.149,-2.149,-2.5596,-2.5245,-2.4495,-2.3972,-2.3529,-2.2526,-2.1928,-2.1514,-2.0184,-1.9568,-1.9398,-1.8873,-1.8797,-1.9071,-1.9124,-1.9131,-1.9168,-1.8862,-1.8541,-1.8108,-1.7905,-1.7285,-1.648,-1.6971,-1.6886,-1.627,-1.666,-1.6762,-1.6559,-1.653,-1.6294,-1.6113,-1.6071,-1.5963,-1.5715,-1.5963,-1.5822,-1.5553,-1.558,-1.5715,-1.5715,-1.6104,-1.6668,-1.7412,-1.7284,-1.7455,-1.7948,-1.7901,-1.7749,-1.7602,-1.7239,-1.7013,-1.7029,-1.6435,-1.5994,-1.5993,-1.5555,-1.535,-1.5562,-1.621,-1.7086,-1.822,-1.775,-1.7339,-1.7503,-1.7515,-1.7521,-1.7491,-1.7452,-1.7601,-1.7877,-1.7664,-1.7682,-1.8141,-1.8363,-1.8652,-1.9155,-1.9148,-1.9142,-1.9357,-1.9615,-1.9867,-1.9902,-2.0077,-2.0347,-2.055,-2.0695,-2.0842,-2.1056,-2.1235,-2.1375,-2.1669,-2.1583,-2.149,-2.1571,-2.172,-2.197,-2.2129,-2.2385,-2.262,-2.2916,-2.2572,-2.2291,-2.2003,-2.1885,-2.1766,-2.1766,-2.149,-2.1346,-2.1346,-2.1352,-2.1352,-2.1484,-2.1628,-2.1766,-2.582,-2.5616,-2.4726,-2.4233,-2.4035,-2.3038,-2.2434,-2.203,-2.1318,-2.0806,-2.0498,-2.0078,-1.9983,-1.9894,-1.9687,-1.948,-1.9272,-1.8855,-1.8534,-1.8422,-1.8325,-1.7993,-1.7735,-1.7919,-1.7637,-1.6879,-1.7313,-1.7207,-1.6779,-1.6878,-1.695,-1.685,-1.6844,-1.6779,-1.6661,-1.6549,-1.6554,-1.6312,-1.6065,-1.5828,-1.5596,-1.6311,-1.6943,-1.7524,-1.7723,-1.8049,-1.8526,-1.8368,-1.8184,-1.7981,-1.7616,-1.7313,-1.7171,-1.6618,-1.632,-1.6077,-1.6121,-1.6151,-1.6263,-1.6972,-1.7621,-1.8351,-1.8146,-1.7972,-1.796,-1.773,-1.763,-1.7503,-1.7469,-1.7529,-1.766,-1.7637,-1.7661,-1.7797,-1.8146,-1.8574,-1.8966,-1.9057,-1.9174,-1.9292,-1.9311,-1.9309,-1.9472,-1.962,-1.9948,-2.0222,-2.0486,-2.0711,-2.0843,-2.0736,-2.0609,-2.0989,-2.1109,-2.1109,-2.1116,-2.1209,-2.1551,-2.1957,-2.2116,-2.2425,-2.2727,-2.2603,-2.2284,-2.2003,-2.1878,-2.1753,-2.1609,-2.1622,-2.1622,-2.176,-2.1766,-2.1897,-2.2035,-2.231,-2.231,-2.61,-2.6004,-2.503,-2.4538,-2.4233,-2.3438,-2.2946,-2.2636,-2.2418,-2.2012,-2.153,-2.1224,-2.0925,-2.064,-2.0101,-1.9687,-1.9376,-1.8952,-1.8632,-1.8632,-1.8639,-1.8597,-1.8697,-1.8666,-1.8273,-1.7656,-1.7951,-1.7718,-1.7193,-1.7402,-1.7602,-1.7485,-1.7485,-1.7485,-1.7485,-1.7196,-1.7085,-1.7009,-1.648,-1.6127,-1.5952,-1.6649,-1.7355,-1.7695,-1.8205,-1.8564,-1.8946,-1.8698,-1.8538,-1.8389,-1.7918,-1.7559,-1.736,-1.6999,-1.6753,-1.6643,-1.6869,-1.7102,-1.735,-1.7774,-1.82,-1.8434,-1.8421,-1.8532,-1.8667,-1.837,-1.8058,-1.775,-1.7719,-1.7719,-1.7732,-1.7738,-1.7719,-1.7713,-1.8064,-1.8589,-1.8907,-1.92,-1.9363,-1.9402,-1.9183,-1.9146,-1.9191,-1.9383,-1.9614,-2.0139,-2.038,-2.0517,-2.0589,-2.0361,-2.0234,-2.0482,-2.0729,-2.0982,-2.1102,-2.1109,-2.1377,-2.1883,-2.1934,-2.225,-2.2553,-2.2549,-2.2278,-2.1996,-2.1878,-2.176,-2.1609,-2.1615,-2.1904,-2.2042,-2.2173,-2.2448,-2.2722,-2.2859,-2.2722,-2.61,-2.6004,-2.5235,-2.444,-2.3845,-2.3447,-2.3147,-2.2998,-2.3014,-2.286,-2.2384,-2.1632,-2.1366,-2.1312,-2.0743,-2.0101,-1.968,-1.9576,-1.9472,-1.9168,-1.9168,-1.923,-1.9249,-1.9206,-1.9036,-1.8718,-1.8705,-1.8474,-1.8159,-1.8021,-1.783,-1.7485,-1.7485,-1.7479,-1.7449,-1.7243,-1.7128,-1.7473,-1.689,-1.6658,-1.6885,-1.725,-1.7719,-1.8305,-1.8396,-1.8634,-1.9226,-1.8998,-1.8739,-1.8396,-1.8154,-1.7989,-1.7906,-1.748,-1.7192,-1.7382,-1.7022,-1.7067,-1.7942,-1.8237,-1.8771,-1.9468,-1.912,-1.9113,-1.9584,-1.9379,-1.892,-1.8415,-1.8169,-1.8169,-1.8298,-1.8434,-1.8428,-1.8046,-1.8292,-1.8764,-1.9463,-1.9549,-1.9409,-1.9696,-1.9562,-1.9479,-1.937,-1.9402,-1.9769,-2.0067,-2.0158,-2.0261,-2.0436,-2.0234,-1.9973,-2.0234,-2.0482,-2.0736,-2.0982,-2.1109,-2.1223,-2.1619,-2.1921,-2.2196,-2.2479,-2.249,-2.2297,-2.2421,-2.2016,-2.1897,-2.2054,-2.1917,-2.1904,-2.2173,-2.231,-2.2448,-2.2722,-2.2866,-2.2866,-2.6231,-2.583,-2.5494,-2.4762,-2.3872,-2.3546,-2.3379,-2.3303,-2.2946,-2.2825,-2.2698,-2.2167,-2.187,-2.1697,-2.1043,-2.0403,-1.9983,-1.9783,-1.9583,-1.9272,-1.9182,-1.924,-1.9599,-1.9174,-1.907,-1.9151,-1.9097,-1.8905,-1.8448,-1.8339,-1.8024,-1.7545,-1.7902,-1.799,-1.7846,-1.7877,-1.7952,-1.8052,-1.7842,-1.772,-1.7818,-1.7935,-1.8169,-1.8402,-1.9107,-1.9508,-1.9623,-1.9522,-1.9156,-1.8768,-1.8643,-1.842,-1.8066,-1.7611,-1.7354,-1.7328,-1.7309,-1.7487,-1.8275,-1.8526,-1.8881,-1.9461,-1.9468,-1.9577,-2.004,-1.9924,-1.9809,-1.9577,-1.9094,-1.8745,-1.8765,-1.8771,-1.8655,-1.8409,-1.8525,-1.8823,-1.9174,-1.9496,-1.9579,-1.9552,-1.955,-1.9543,-1.9079,-1.9161,-1.9492,-1.9732,-1.9796,-1.9973,-1.9954,-1.9717,-1.959,-1.9839,-2.01,-2.0361,-2.0482,-2.0862,-2.1176,-2.1578,-2.1943,-2.244,-2.2702,-2.2964,-2.3099,-2.2963,-2.2696,-2.2715,-2.3434,-2.2879,-2.2454,-2.2585,-2.2585,-2.2722,-2.2866,-2.2996,-2.3133,-2.628,-2.5741,-2.532,-2.4509,-2.3655,-2.3447,-2.3305,-2.3271,-2.2859,-2.2652,-2.2577,-2.2349,-2.2051,-2.1702,-2.1178,-2.0609,-2.0078,-1.9776,-1.9576,-1.9279,-1.9078,-1.9205,-1.9654,-1.914,-1.9125,-1.948,-1.9374,-1.913,-1.8722,-1.8654,-1.8442,-1.8159,-1.8461,-1.8551,-1.8391,-1.85,-1.8577,-1.8642,-1.8584,-1.8687,-1.8861,-1.8984,-1.9004,-1.9082,-2.0034,-2.0473,-2.0289,-2.0137,-1.9843,-1.9172,-1.9199,-1.8917,-1.842,-1.827,-1.8034,-1.7923,-1.822,-1.8566,-1.8744,-1.9067,-1.9345,-1.97,-1.9815,-2.0162,-2.0392,-2.0507,-2.05,-2.0507,-2.0148,-1.9686,-1.9345,-1.9223,-1.9113,-1.8881,-1.8991,-1.9133,-1.9148,-1.9529,-1.9699,-1.962,-1.9665,-1.9528,-1.9075,-1.9237,-1.9493,-1.9643,-1.9565,-1.9577,-1.9577,-1.9328,-1.92,-1.9577,-1.9839,-2.0106,-2.0234,-2.0856,-2.1355,-2.1611,-2.2107,-2.2628,-2.2946,-2.3264,-2.3638,-2.3393,-2.3379,-2.3249,-2.3564,-2.3283,-2.2996,-2.327,-2.327,-2.3133,-2.327,-2.3406,-2.3543,-2.5958,-2.5781,-2.4417,-2.3673,-2.3356,-2.3147,-2.3064,-2.3077,-2.2766,-2.2518,-2.2291,-2.2042,-2.1635,-2.1121,-2.0949,-2.0601,-2.0094,-1.9783,-1.9576,-1.9272,-1.8974,-1.9205,-1.9676,-1.9147,-1.922,-1.9611,-1.9448,-1.9339,-1.9312,-1.9352,-1.9366,-1.9292,-1.921,-1.9352,-1.9137,-1.8944,-1.9092,-1.9196,-1.899,-1.9307,-2.012,-2.0371,-2.0389,-2.0275,-2.0808,-2.1299,-2.1519,-2.1012,-2.0448,-1.9838,-1.9781,-1.9617,-1.9337,-1.9507,-1.9459,-1.9374,-1.9989,-2.0188,-1.9765,-2.0002,-2.0263,-2.0472,-2.0371,-2.0507,-2.0974,-2.0845,-2.0845,-2.1089,-2.0974,-2.0737,-2.027,-2.0155,-2.004,-1.97,-1.97,-1.9699,-1.972,-1.9773,-1.9947,-1.9973,-1.9857,-1.9653,-1.9629,-1.9657,-1.9515,-1.9565,-1.9577,-1.9577,-1.945,-1.9322,-1.9328,-1.945,-1.9705,-1.9839,-2.0482,-2.0982,-2.1355,-2.1731,-2.2188,-2.2628,-2.2821,-2.3041,-2.3593,-2.3931,-2.3896,-2.3767,-2.3679,-2.3557,-2.3413,-2.3543,-2.3686,-2.3823,-2.3686,-2.3823,-2.3959,-2.6304,-2.5498,-2.4117,-2.3347,-2.3147,-2.3055,-2.2984,-2.3023,-2.2644,-2.242,-2.2121,-2.1595,-2.1223,-2.0997,-2.0343,-2.0112,-2.0174,-1.9889,-1.948,-1.9071,-1.875,-1.8765,-1.9098,-1.8816,-1.9016,-1.9401,-1.9475,-1.9265,-1.9125,-1.9272,-1.9072,-1.8711,-1.9098,-1.9199,-1.8885,-1.8891,-1.9065,-1.9305,-1.9072,-1.9293,-2.0005,-2.0493,-2.0982,-2.1518,-2.1672,-2.1994,-2.2301,-2.1676,-2.1124,-2.0677,-2.0487,-2.0181,-1.9896,-1.9847,-1.9778,-1.9647,-1.9886,-2.0061,-1.985,-2.0102,-2.0301,-2.0472,-2.0509,-2.073,-2.1096,-2.1089,-2.1089,-2.1211,-2.1211,-2.1096,-2.0852,-2.073,-2.0385,-2.0155,-2.0162,-2.0088,-2.0096,-2.0144,-2.0128,-2.0219,-2.0093,-1.9988,-1.976,-1.9669,-1.9571,-1.9328,-1.9456,-1.9456,-1.9328,-1.9328,-1.9456,-1.9322,-1.945,-1.9705,-1.9833,-2.0729,-2.1389,-2.1785,-2.2302,-2.3148,-2.3527,-2.3594,-2.3997,-2.4231,-2.4259,-2.416,-2.3905,-2.406,-2.3924,-2.3816,-2.3959,-2.4095,-2.3959,-2.4238,-2.4367,-2.5915,-2.4986,-2.395,-2.3423,-2.321,-2.308,-2.298,-2.2902,-2.2495,-2.2295,-2.1998,-2.1439,-2.1131,-2.1071,-2.0355,-2.0,-2.0163,-1.9687,-1.9279,-1.8869,-1.8436,-1.8538,-1.8837,-1.8594,-1.8798,-1.9292,-1.9366,-1.9259,-1.9112,-1.9265,-1.9045,-1.8577,-1.9105,-1.9178,-1.8851,-1.8885,-1.9038,-1.9145,-1.8931,-1.9145,-1.9853,-2.0345,-2.1125,-2.218,-2.2263,-2.2428,-2.2848,-2.2326,-2.1839,-2.1364,-2.1057,-2.0779,-2.0574,-2.0323,-2.0298,-2.0267,-2.0309,-2.0302,-2.0323,-2.0501,-2.0651,-2.0579,-2.0715,-2.0967,-2.1211,-2.1211,-2.1211,-2.1211,-2.1211,-2.1211,-2.1211,-2.0967,-2.0723,-2.0493,-2.0385,-2.0385,-2.0284,-2.0343,-2.0233,-2.0301,-2.026,-2.0059,-2.0009,-2.0033,-1.984,-1.9565,-1.9839,-1.9711,-1.9584,-1.959,-1.9711,-1.9462,-1.9584,-1.9711,-2.0094,-2.0729,-2.1362,-2.1737,-2.2589,-2.3422,-2.389,-2.4109,-2.4276,-2.4371,-2.4436,-2.4339,-2.4314,-2.4494,-2.4445,-2.421,-2.4367,-2.4503,-2.4645,-2.4645,-2.4781,-2.4631,-2.4482,-2.3965,-2.3554,-2.3494,-2.309,-2.2893,-2.2745,-2.2424,-2.2143,-2.1877,-2.1585,-2.1418,-2.1311,-2.0696,-2.0411,-2.0026,-1.9333,-1.8926,-1.8772,-1.8233,-1.8338,-1.8789,-1.8601,-1.8798,-1.9345,-1.9366,-1.9366,-1.9339,-1.9352,-1.9299,-1.9305,-1.9292,-1.9319,-1.9319,-1.9038,-1.8938,-1.8931,-1.8711,-1.9104,-2.0103,-2.0265,-2.087,-2.2236,-2.2427,-2.2572,-2.2928,-2.2663,-2.2263,-2.1752,-2.1357,-2.1203,-2.1137,-2.1123,-2.1174,-2.1038,-2.1181,-2.1189,-2.1167,-2.1067,-2.1081,-2.1115,-2.1189,-2.1211,-2.1211,-2.1211,-2.1211,-2.1211,-2.1211,-2.1211,-2.1211,-2.1211,-2.1089,-2.0723,-2.0723,-2.0608,-2.0392,-2.0277,-2.0277,-2.0319,-2.0351,-2.039,-2.0563,-2.0528,-2.0434,-2.0537,-2.0602,-2.0482,-2.0227,-2.0227,-2.0106,-2.0106,-2.01,-2.01,-2.0482,-2.0862,-2.1235,-2.1782,-2.2659,-2.3442,-2.3643,-2.381,-2.3985,-2.4101,-2.4247,-2.4298,-2.4332,-2.4499,-2.4651,-2.4573,-2.4873,-2.5037,-2.5052,-2.5052,-2.5052,-2.4462,-2.3609,-2.3184,-2.2879,-2.2766,-2.2649,-2.2636,-2.2764,-2.2462,-2.2241,-2.1814,-2.1479,-2.1175,-2.0922,-2.0274,-2.0032,-1.9842,-1.9241,-1.8742,-1.8506,-1.8135,-1.8251,-1.8514,-1.8608,-1.8798,-1.9279,-1.9366,-1.9366,-1.9366,-1.9366,-1.9279,-1.9132,-1.9279,-1.9252,-1.9092,-1.8978,-1.9011,-1.9152,-1.8744,-1.8959,-1.9864,-1.9605,-2.0039,-2.1414,-2.1466,-2.1509,-2.1836,-2.2086,-2.2146,-2.1905,-2.1502,-2.1211,-2.1211,-2.1211,-2.1211,-2.1211,-2.1211,-2.1094,-2.0933,-2.1079,-2.1115,-2.0984,-2.1079,-2.1196,-2.1211,-2.1211,-2.1211,-2.1211,-2.1211,-2.1211,-2.1211,-2.1211,-2.1089,-2.1081,-2.1089,-2.0967,-2.0852,-2.0859,-2.0744,-2.042,-2.0667,-2.0858,-2.0798,-2.0856,-2.1024,-2.1049,-2.1109,-2.1109,-2.0862,-2.0989,-2.0982,-2.0856,-2.0729,-2.0488,-2.0742,-2.1196,-2.1778,-2.2145,-2.2808,-2.3261,-2.3446,-2.3618,-2.3665,-2.3861,-2.4145,-2.4305,-2.4342,-2.4523,-2.4825,-2.5167,-2.5308,-2.5368,-2.5442,-2.5464,-2.5592,-2.405,-2.2944,-2.3102,-2.3009,-2.2691,-2.2691,-2.2708,-2.2697,-2.2489,-2.2156,-2.1736,-2.1429,-2.1152,-2.083,-2.0348,-1.9962,-1.9787,-1.9264,-1.8927,-1.8621,-1.8358,-1.8421,-1.8631,-1.8771,-1.8978,-1.9299,-1.9366,-1.9366,-1.9366,-1.9359,-1.9272,-1.9158,-1.9279,-1.9285,-1.9085,-1.8978,-1.9032,-1.9112,-1.8731,-1.8904,-1.9445,-1.9341,-1.9665,-2.0634,-2.087,-2.104,-2.1269,-2.1688,-2.1851,-2.1583,-2.1306,-2.1218,-2.1211,-2.1211,-2.1211,-2.1211,-2.1196,-2.1115,-2.0947,-2.1101,-2.1137,-2.0984,-2.1094,-2.1203,-2.1211,-2.1325,-2.1325,-2.1211,-2.1325,-2.1332,-2.1211,-2.1211,-2.1211,-2.1211,-2.1211,-2.1211,-2.1211,-2.1211,-2.1169,-2.0916,-2.1102,-2.1284,-2.1406,-2.1495,-2.1651,-2.1658,-2.1859,-2.1859,-2.1607,-2.1614,-2.1607,-2.1481,-2.1355,-2.1242,-2.1136,-2.1638,-2.2192,-2.2582,-2.2851,-2.3181,-2.3413,-2.3384,-2.3471,-2.3757,-2.3947,-2.4253,-2.4429,-2.4841,-2.5175,-2.5464,-2.5753,-2.5771,-2.5869,-2.5996,-2.613,-2.341,-2.2762,-2.3319,-2.3319,-2.3127,-2.301,-2.2731,-2.2513,-2.2395,-2.2064,-2.1689,-2.1677,-2.138,-2.1067,-2.0637,-2.0288,-1.9772,-1.9518,-1.919,-1.8965,-1.8675,-1.8684,-1.8878,-1.9132,-1.9292,-1.9352,-1.9366,-1.9359,-1.9366,-1.9366,-1.9366,-1.9339,-1.9345,-1.9366,-1.9285,-1.9078,-1.8991,-1.8991,-1.8704,-1.8891,-1.9437,-1.9367,-1.9587,-2.0281,-2.0781,-2.107,-2.1145,-2.142,-2.134,-2.0845,-2.1096,-2.1203,-2.1211,-2.1211,-2.1211,-2.1211,-2.1211,-2.1203,-2.1196,-2.1189,-2.1196,-2.1174,-2.1181,-2.1211,-2.1211,-2.1439,-2.1439,-2.1325,-2.1439,-2.1554,-2.1325,-2.1211,-2.1211,-2.1211,-2.1211,-2.1211,-2.1211,-2.1233,-2.1379,-2.1606,-2.173,-2.1935,-2.2369,-2.2479,-2.253,-2.2505,-2.2613,-2.2355,-2.223,-2.2237,-2.223,-2.2104,-2.1985,-2.1866,-2.1761,-2.251,-2.3043,-2.3085,-2.3377,-2.364,-2.3525,-2.3296,-2.3215,-2.3493,-2.39,-2.4205,-2.4535,-2.4927,-2.5393,-2.571,-2.5832,-2.6046,-2.6264,-2.6398,-2.6398,-2.3151,-2.2034,-2.2046,-2.2068,-2.196,-2.1767,-2.197,-2.2166,-2.2189,-2.1956,-2.1669,-2.1737,-2.1189,-2.0622,-2.0493,-2.0106,-1.9564,-1.9462,-1.9482,-1.9529,-1.934,-1.9038,-1.8891,-1.8981,-1.912,-1.9359,-1.912,-1.912,-1.9366,-1.9366,-1.9366,-1.9366,-1.9366,-1.9366,-1.9339,-1.9279,-1.9259,-1.9212,-1.8958,-1.9135,-1.9529,-1.9244,-1.9463,-2.0157,-2.0434,-2.0594,-2.0533,-2.0793,-2.1074,-2.1089,-2.0845,-2.0967,-2.1203,-2.1211,-2.1211,-2.1211,-2.1211,-2.1211,-2.1211,-2.1211,-2.1211,-2.1211,-2.1211,-2.1211,-2.1211,-2.1325,-2.1439,-2.1439,-2.1439,-2.1439,-2.1432,-2.1325,-2.1211,-2.1211,-2.1211,-2.1325,-2.1469,-2.1762,-2.194,-2.2037,-2.2238,-2.2438,-2.2513,-2.2674,-2.2646,-2.2901,-2.2863,-2.2856,-2.2738,-2.2606,-2.2606,-2.2613,-2.2613,-2.2487,-2.2616,-2.3299,-2.3738,-2.3614,-2.3951,-2.4416,-2.3947,-2.348,-2.3245,-2.3252,-2.3828,-2.4306,-2.46,-2.5069,-2.5482,-2.5936,-2.6394,-2.6627,-2.6517,-2.6658,-2.6532,-2.2724,-2.1577,-2.161,-2.1632,-2.1526,-2.1562,-2.1645,-2.1843,-2.1774,-2.1546,-2.1288,-2.1171,-2.0665,-1.9974,-2.0074,-1.9738,-1.9307,-1.9312,-1.9452,-1.9553,-1.9419,-1.9259,-1.8948,-1.8938,-1.8887,-1.901,-1.8881,-1.9004,-1.9243,-1.9359,-1.9366,-1.9366,-1.9366,-1.9366,-1.9366,-1.9366,-1.9366,-1.9332,-1.9185,-1.9401,-1.9689,-1.9417,-1.9583,-2.012,-2.0315,-2.0533,-2.0699,-2.0751,-2.0838,-2.1081,-2.096,-2.0838,-2.1096,-2.1089,-2.1089,-2.1211,-2.1211,-2.1211,-2.1211,-2.1211,-2.1211,-2.1211,-2.1211,-2.1211,-2.1211,-2.1325,-2.1554,-2.1439,-2.1439,-2.1554,-2.1668,-2.1554,-2.1325,-2.1211,-2.1211,-2.1325,-2.1439,-2.158,-2.1839,-2.2068,-2.2297,-2.2586,-2.2747,-2.2813,-2.2908,-2.3047,-2.2856,-2.2981,-2.2981,-2.2981,-2.2981,-2.2863,-2.2988,-2.2738,-2.2817,-2.3432,-2.3959,-2.4006,-2.4539,-2.5054,-2.4668,-2.3859,-2.3747,-2.3835,-2.4126,-2.4381,-2.4764,-2.5203,-2.5595,-2.6119,-2.6775,-2.7012,-2.691,-2.6792,-2.6666,-2.2214,-2.1417,-2.1636,-2.1666,-2.1544,-2.1752,-2.1587,-2.1479,-2.1171,-2.0929,-2.0643,-2.0329,-2.0012,-1.9436,-1.9654,-1.9449,-1.8951,-1.9178,-1.9312,-1.9399,-1.9412,-1.9276,-1.8848,-1.8739,-1.8765,-1.8655,-1.8765,-1.8803,-1.9056,-1.9289,-1.9392,-1.9419,-1.9412,-1.9366,-1.9366,-1.9366,-1.9366,-1.9366,-1.9345,-1.9557,-1.9842,-1.9864,-1.9955,-2.031,-2.0567,-2.0761,-2.0965,-2.096,-2.096,-2.1203,-2.0845,-2.0845,-2.1089,-2.0845,-2.096,-2.1089,-2.1211,-2.1211,-2.1211,-2.1211,-2.1211,-2.1211,-2.1211,-2.1211,-2.1211,-2.1439,-2.1432,-2.1439,-2.1554,-2.1668,-2.1668,-2.1668,-2.1554,-2.1325,-2.1211,-2.1211,-2.1218,-2.124,-2.1503,-2.2074,-2.2303,-2.252,-2.2886,-2.3106,-2.3106,-2.3069,-2.2856,-2.2856,-2.2856,-2.2856,-2.2856,-2.2856,-2.2988,-2.2988,-2.323,-2.3532,-2.3992,-2.4367,-2.4955,-2.5381,-2.525,-2.4695,-2.4581,-2.4543,-2.4489,-2.4577,-2.4702,-2.5194,-2.5817,-2.634,-2.6883,-2.7081,-2.72,-2.7067,-2.6934,-2.1665,-2.1266,-2.0778,-2.068,-2.0749,-2.0633,-2.07,-2.0913,-2.033,-2.0147,-1.9979,-1.97,-1.9465,-1.9355,-1.916,-1.9125,-1.9124,-1.9152,-1.9132,-1.9386,-1.9619,-1.9194,-1.8706,-1.8532,-1.8648,-1.8532,-1.8311,-1.8536,-1.8998,-1.9044,-1.9245,-1.9666,-1.9506,-1.9372,-1.9386,-1.9379,-1.9366,-1.9366,-1.9366,-1.9679,-2.0064,-2.0137,-2.0352,-2.0543,-2.0706,-2.0896,-2.1137,-2.1089,-2.1211,-2.1318,-2.1081,-2.0952,-2.1203,-2.1089,-2.1089,-2.1211,-2.1211,-2.1211,-2.1211,-2.1211,-2.1211,-2.1211,-2.1211,-2.1211,-2.1211,-2.1325,-2.1439,-2.1554,-2.1668,-2.1668,-2.1782,-2.1668,-2.1554,-2.1439,-2.1439,-2.1439,-2.1362,-2.1654,-2.2059,-2.2416,-2.2586,-2.2919,-2.3032,-2.3062,-2.3076,-2.2973,-2.2856,-2.2731,-2.2606,-2.2606,-2.2606,-2.2731,-2.2856,-2.2863,-2.3046,-2.3555,-2.4081,-2.4642,-2.5238,-2.5657,-2.5389,-2.5169,-2.488,-2.4725,-2.4594,-2.4696,-2.4992,-2.5439,-2.6112,-2.6493,-2.6827,-2.7026,-2.7161,-2.7177,-2.72,-2.1115,-2.0763,-2.0212,-2.0153,-2.0303,-2.0128,-2.0106,-2.0214,-1.9761,-1.9566,-1.9311,-1.9104,-1.9009,-1.903,-1.8933,-1.8965,-1.9124,-1.9193,-1.9097,-1.9249,-1.9278,-1.9018,-1.8466,-1.8305,-1.8311,-1.8317,-1.822,-1.8476,-1.8777,-1.9067,-1.9263,-1.9721,-1.947,-1.9482,-1.9526,-1.9439,-1.9372,-1.9366,-1.9366,-1.9713,-2.0162,-2.0263,-2.058,-2.087,-2.0955,-2.1057,-2.1189,-2.1546,-2.1668,-2.1668,-2.1653,-2.1531,-2.1318,-2.1081,-2.1089,-2.1211,-2.1211,-2.1211,-2.1211,-2.1211,-2.1211,-2.1211,-2.1325,-2.1439,-2.1439,-2.1439,-2.1546,-2.1774,-2.1774,-2.1782,-2.1896,-2.201,-2.1896,-2.1561,-2.1554,-2.1554,-2.1354,-2.1487,-2.1824,-2.2105,-2.2164,-2.2268,-2.2414,-2.2741,-2.2644,-2.2527,-2.248,-2.2362,-2.2237,-2.2237,-2.2355,-2.248,-2.2731,-2.2863,-2.3017,-2.3466,-2.4321,-2.4851,-2.5392,-2.5644,-2.5518,-2.5329,-2.5132,-2.5015,-2.493,-2.5015,-2.5352,-2.5826,-2.6041,-2.6303,-2.6589,-2.6907,-2.7113,-2.7145,-2.7177,-2.0573,-2.0106,-1.9725,-1.9693,-1.9917,-1.9707,-1.9692,-1.9597,-1.9386,-1.9139,-1.8933,-1.8598,-1.8755,-1.8665,-1.8809,-1.8867,-1.8931,-1.909,-1.9113,-1.9127,-1.9023,-1.8797,-1.8421,-1.8311,-1.8127,-1.7681,-1.8114,-1.8489,-1.8861,-1.9121,-1.9568,-1.9735,-1.9581,-1.9529,-1.9713,-1.9519,-1.9366,-1.9366,-1.9366,-1.9707,-2.0162,-2.027,-2.0601,-2.106,-2.1167,-2.1167,-2.1318,-2.166,-2.2002,-2.1888,-2.2351,-2.2351,-2.1888,-2.1303,-2.096,-2.1318,-2.1432,-2.1439,-2.1325,-2.1325,-2.1325,-2.1211,-2.1439,-2.1561,-2.1554,-2.1561,-2.166,-2.1774,-2.1888,-2.1888,-2.2116,-2.2335,-2.223,-2.201,-2.1782,-2.1668,-2.1325,-2.1325,-2.1516,-2.1657,-2.1832,-2.1969,-2.2033,-2.227,-2.2065,-2.2096,-2.2048,-2.1985,-2.1985,-2.1866,-2.2111,-2.2237,-2.2355,-2.2981,-2.3128,-2.3267,-2.4113,-2.4805,-2.5445,-2.5548,-2.5635,-2.5534,-2.5384,-2.5526,-2.5462,-2.5485,-2.5312,-2.5604,-2.5826,-2.6072,-2.6335,-2.6636,-2.6867,-2.7081,-2.7129,-2.0021,-1.968,-1.9205,-1.9027,-1.9069,-1.9069,-1.9069,-1.8968,-1.8766,-1.8759,-1.8888,-1.8858,-1.8961,-1.9133,-1.8919,-1.8867,-1.8938,-1.909,-1.912,-1.912,-1.8997,-1.8765,-1.8421,-1.8544,-1.8529,-1.8383,-1.8495,-1.8835,-1.9287,-1.9626,-1.9885,-2.0312,-1.996,-1.9714,-1.9786,-1.9533,-1.9406,-1.9412,-1.9386,-1.9707,-2.0155,-2.0385,-2.0622,-2.1211,-2.1211,-2.1325,-2.1546,-2.1782,-2.2116,-2.2675,-2.2683,-2.2683,-2.257,-2.2222,-2.1987,-2.1881,-2.1888,-2.1774,-2.166,-2.1554,-2.1439,-2.1325,-2.1325,-2.1325,-2.1325,-2.1332,-2.1668,-2.1774,-2.1873,-2.1972,-2.2456,-2.2562,-2.2328,-2.2222,-2.223,-2.2116,-2.1774,-2.1576,-2.158,-2.1635,-2.1598,-2.1539,-2.1603,-2.1761,-2.1702,-2.1644,-2.1673,-2.1665,-2.1607,-2.1614,-2.174,-2.1859,-2.1985,-2.2731,-2.3362,-2.3494,-2.3905,-2.4657,-2.5138,-2.5373,-2.5477,-2.5604,-2.5635,-2.5556,-2.5469,-2.5342,-2.5357,-2.5461,-2.5707,-2.6025,-2.6207,-2.6366,-2.6652,-2.6914,-2.6986,-1.9465,-1.8959,-1.8485,-1.8328,-1.8335,-1.8328,-1.8222,-1.8249,-1.8393,-1.8475,-1.8455,-1.8563,-1.8816,-1.8816,-1.8816,-1.8762,-1.8945,-1.9103,-1.9107,-1.912,-1.8997,-1.8765,-1.8421,-1.8648,-1.8719,-1.8631,-1.8883,-1.9184,-1.9665,-1.9556,-1.9989,-2.0309,-2.0077,-1.9859,-2.0114,-1.9833,-1.9626,-1.9566,-1.9569,-1.9713,-2.027,-2.0507,-2.0974,-2.1096,-2.1325,-2.1554,-2.1782,-2.223,-2.2456,-2.2796,-2.3135,-2.3247,-2.3247,-2.3143,-2.2788,-2.2222,-2.2108,-2.2116,-2.1888,-2.1782,-2.1554,-2.1554,-2.1439,-2.1439,-2.1439,-2.1668,-2.1774,-2.2116,-2.2335,-2.2546,-2.2788,-2.278,-2.2683,-2.2593,-2.2585,-2.2351,-2.1904,-2.1797,-2.1769,-2.1752,-2.1445,-2.127,-2.1088,-2.1223,-2.132,-2.1299,-2.139,-2.1423,-2.1434,-2.1355,-2.1488,-2.1614,-2.1859,-2.2237,-2.2981,-2.3362,-2.3736,-2.4355,-2.4996,-2.523,-2.5286,-2.5389,-2.5381,-2.5318,-2.523,-2.5238,-2.5326,-2.5453,-2.5723,-2.5937,-2.6088,-2.6255,-2.6525,-2.6724,-2.6748,-1.8429,-1.7891,-1.7364,-1.7265,-1.7483,-1.7371,-1.7378,-1.7437,-1.8023,-1.8144,-1.809,-1.8514,-1.8702,-1.8709,-1.8677,-1.8824,-1.9032,-1.9279,-1.9107,-1.9113,-1.8997,-1.8765,-1.8532,-1.8661,-1.8829,-1.8965,-1.9443,-1.9539,-1.9665,-1.9678,-1.9937,-2.0316,-2.0093,-2.0021,-2.0461,-2.012,-1.9933,-1.9733,-1.9593,-1.9788,-2.0291,-2.0852,-2.1211,-2.1325,-2.1554,-2.1782,-2.201,-2.2456,-2.2796,-2.3022,-2.3368,-2.3705,-2.3705,-2.3875,-2.3537,-2.2699,-2.2449,-2.2343,-2.2116,-2.2002,-2.1896,-2.1774,-2.1782,-2.1668,-2.1782,-2.1888,-2.2116,-2.2456,-2.2796,-2.2901,-2.3014,-2.3014,-2.2917,-2.2933,-2.2706,-2.2487,-2.2238,-2.2092,-2.212,-2.1824,-2.1322,-2.1183,-2.1185,-2.1074,-2.1181,-2.1036,-2.1135,-2.1265,-2.1284,-2.1202,-2.1229,-2.1488,-2.174,-2.1985,-2.2487,-2.3113,-2.3487,-2.4108,-2.4734,-2.5159,-2.5151,-2.5159,-2.5159,-2.5222,-2.5254,-2.5286,-2.5365,-2.5389,-2.5485,-2.5651,-2.589,-2.6057,-2.6176,-2.6287,-2.635,-1.6511,-1.6211,-1.5885,-1.5773,-1.5885,-1.6318,-1.6424,-1.6568,-1.7371,-1.7921,-1.807,-1.8813,-1.9176,-1.9224,-1.9213,-1.9232,-1.9285,-1.908,-1.912,-1.9243,-1.9004,-1.8881,-1.8881,-1.9127,-1.9239,-1.9455,-1.9824,-1.9925,-1.9967,-1.9993,-2.0265,-2.0601,-2.0481,-2.0394,-2.0785,-2.049,-2.0054,-1.986,-1.978,-1.9979,-2.034,-2.0996,-2.1354,-2.1561,-2.1782,-2.2002,-2.2343,-2.2683,-2.2796,-2.3247,-2.348,-2.3697,-2.385,-2.4234,-2.4168,-2.3803,-2.3472,-2.3143,-2.2722,-2.2511,-2.2451,-2.2223,-2.1934,-2.1789,-2.1896,-2.2002,-2.2222,-2.2116,-2.2683,-2.2941,-2.307,-2.2933,-2.3038,-2.2996,-2.3075,-2.2835,-2.2598,-2.2574,-2.2711,-2.2503,-2.2105,-2.1781,-2.15,-2.1303,-2.1038,-2.1019,-2.0887,-2.1053,-2.1169,-2.1247,-2.1355,-2.1607,-2.1734,-2.1985,-2.2237,-2.2738,-2.337,-2.3991,-2.4494,-2.4996,-2.5135,-2.5143,-2.5175,-2.523,-2.5286,-2.5318,-2.5349,-2.5334,-2.5254,-2.5405,-2.5699,-2.5731,-2.5683,-2.581,-2.6057,-1.5024,-1.5345,-1.5137,-1.503,-1.503,-1.5357,-1.5571,-1.5737,-1.6717,-1.7169,-1.7489,-1.8302,-1.8918,-1.9192,-1.9085,-1.8977,-1.903,-1.8925,-1.9113,-1.9366,-1.9243,-1.9236,-1.9468,-1.9591,-1.9685,-1.9856,-2.0124,-2.0219,-2.011,-2.023,-2.055,-2.1047,-2.0781,-2.0856,-2.1313,-2.1238,-2.1059,-2.0894,-2.0849,-2.0963,-2.1198,-2.1452,-2.1732,-2.1911,-2.2124,-2.2351,-2.2585,-2.2796,-2.2909,-2.3239,-2.336,-2.3594,-2.3967,-2.4375,-2.4644,-2.4581,-2.4663,-2.4335,-2.3821,-2.343,-2.3166,-2.2959,-2.2475,-2.201,-2.223,-2.2456,-2.2562,-2.2675,-2.2667,-2.2867,-2.3032,-2.2842,-2.2983,-2.316,-2.3276,-2.3169,-2.3068,-2.3216,-2.3214,-2.3131,-2.2894,-2.2565,-2.2125,-2.1723,-2.1596,-2.135,-2.131,-2.1533,-2.1617,-2.179,-2.1853,-2.1859,-2.1859,-2.1978,-2.2237,-2.2738,-2.326,-2.3766,-2.4409,-2.4788,-2.5059,-2.5199,-2.5334,-2.5405,-2.5492,-2.5477,-2.5389,-2.5294,-2.523,-2.5373,-2.5548,-2.554,-2.5564,-2.5874,-2.6136,-1.4169,-1.4589,-1.4272,-1.4175,-1.4169,-1.4606,-1.4821,-1.4956,-1.5982,-1.6513,-1.6861,-1.7648,-1.8493,-1.8984,-1.8785,-1.8724,-1.8958,-1.8988,-1.921,-1.9359,-1.9482,-1.9591,-1.97,-1.9815,-2.0046,-2.0277,-2.0445,-2.0512,-2.0642,-2.0737,-2.1033,-2.1502,-2.1064,-2.1299,-2.1763,-2.1887,-2.1712,-2.1558,-2.1775,-2.172,-2.1584,-2.2007,-2.2052,-2.2223,-2.2464,-2.2722,-2.2898,-2.3038,-2.3135,-2.3505,-2.3747,-2.395,-2.4137,-2.4711,-2.5065,-2.5127,-2.5335,-2.5461,-2.4903,-2.4465,-2.4182,-2.3877,-2.3462,-2.2733,-2.2824,-2.2988,-2.3101,-2.3059,-2.2953,-2.3126,-2.3223,-2.296,-2.3052,-2.3301,-2.352,-2.3503,-2.3461,-2.3715,-2.3824,-2.3558,-2.3407,-2.3255,-2.2808,-2.2369,-2.2105,-2.1753,-2.1765,-2.1927,-2.2068,-2.209,-2.223,-2.2104,-2.2111,-2.2118,-2.239,-2.2767,-2.3282,-2.3753,-2.44,-2.4852,-2.5219,-2.558,-2.5723,-2.5763,-2.5763,-2.562,-2.5605,-2.5344,-2.5222,-2.5286,-2.5357,-2.5421,-2.5548,-2.5858,-2.62,-1.3959,-1.3748,-1.3315,-1.3098,-1.3202,-1.3954,-1.4277,-1.4277,-1.5166,-1.5731,-1.6132,-1.7118,-1.8,-1.8439,-1.8665,-1.8758,-1.8925,-1.9232,-1.9259,-1.9401,-1.9591,-1.9768,-1.9876,-2.012,-2.0277,-2.0428,-2.0779,-2.101,-2.1212,-2.1336,-2.1346,-2.1279,-2.1251,-2.1551,-2.1997,-2.2324,-2.2231,-2.219,-2.2425,-2.2223,-2.198,-2.2089,-2.2405,-2.2238,-2.2503,-2.2938,-2.3779,-2.3602,-2.3812,-2.4285,-2.4236,-2.4375,-2.4547,-2.4951,-2.52,-2.545,-2.5888,-2.6024,-2.5839,-2.5311,-2.4977,-2.4762,-2.435,-2.3769,-2.3606,-2.3197,-2.3205,-2.3467,-2.326,-2.3325,-2.3552,-2.3456,-2.3139,-2.3403,-2.3654,-2.3844,-2.3906,-2.4186,-2.4197,-2.4086,-2.3877,-2.3779,-2.351,-2.3044,-2.2551,-2.2306,-2.2226,-2.2384,-2.2235,-2.2355,-2.248,-2.2355,-2.223,-2.2376,-2.2677,-2.2993,-2.3525,-2.4075,-2.468,-2.5169,-2.5548,-2.5913,-2.6112,-2.6112,-2.6112,-2.596,-2.5881,-2.5731,-2.5469,-2.523,-2.5199,-2.5381,-2.5516,-2.5747,-2.5985,-1.4493,-1.4175,-1.3851,-1.3418,-1.2881,-1.3423,-1.3635,-1.3743,-1.4606,-1.5325,-1.5977,-1.6888,-1.7528,-1.7988,-1.8217,-1.842,-1.8664,-1.8513,-1.8831,-1.9118,-1.9419,-1.9756,-2.0039,-2.0415,-2.0622,-2.0881,-2.1335,-2.1472,-2.1484,-2.1825,-2.2027,-2.1994,-2.1744,-2.2257,-2.2723,-2.2973,-2.2965,-2.317,-2.3275,-2.3187,-2.2932,-2.2946,-2.3081,-2.2698,-2.303,-2.3447,-2.3908,-2.4104,-2.4424,-2.4697,-2.4581,-2.4738,-2.4928,-2.5143,-2.5335,-2.5494,-2.6126,-2.6338,-2.6279,-2.5873,-2.5486,-2.5177,-2.5043,-2.5019,-2.4463,-2.4276,-2.4169,-2.4057,-2.3622,-2.3535,-2.3824,-2.3429,-2.2998,-2.3414,-2.3635,-2.3925,-2.4192,-2.446,-2.4491,-2.4178,-2.4216,-2.4178,-2.3938,-2.3566,-2.3192,-2.2726,-2.2777,-2.2718,-2.2709,-2.2663,-2.281,-2.2774,-2.2641,-2.2706,-2.3015,-2.333,-2.3797,-2.4359,-2.4918,-2.5435,-2.5931,-2.6284,-2.647,-2.647,-2.647,-2.6454,-2.6319,-2.6009,-2.5731,-2.5469,-2.5413,-2.5485,-2.5596,-2.5731,-2.5985,-1.525,-1.5035,-1.4708,-1.4062,-1.3418,-1.3527,-1.3743,-1.3851,-1.4385,-1.5104,-1.5904,-1.659,-1.7124,-1.7399,-1.7747,-1.8007,-1.8163,-1.8353,-1.8668,-1.9027,-1.9534,-1.9977,-2.0345,-2.0822,-2.1196,-2.1439,-2.1668,-2.1888,-2.201,-2.2116,-2.246,-2.252,-2.2311,-2.2636,-2.3089,-2.3702,-2.3886,-2.4024,-2.4332,-2.4063,-2.3635,-2.3793,-2.3584,-2.3317,-2.3552,-2.3999,-2.4263,-2.4444,-2.476,-2.491,-2.501,-2.5136,-2.5194,-2.5352,-2.5352,-2.5712,-2.5913,-2.616,-2.6142,-2.6278,-2.6194,-2.5957,-2.5763,-2.5712,-2.5351,-2.5076,-2.4594,-2.4671,-2.3976,-2.3743,-2.4182,-2.3642,-2.3167,-2.354,-2.3585,-2.3746,-2.4263,-2.4525,-2.4417,-2.4348,-2.4355,-2.4239,-2.3818,-2.3576,-2.3429,-2.3113,-2.3201,-2.3245,-2.317,-2.3095,-2.3206,-2.3148,-2.3068,-2.3155,-2.3384,-2.3647,-2.4032,-2.456,-2.5138,-2.5628,-2.6144,-2.6485,-2.6811,-2.6827,-2.6827,-2.6827,-2.6716,-2.6533,-2.6136,-2.5699,-2.5659,-2.562,-2.6008,-2.616,-2.6304,-1.6217,-1.6217,-1.5672,-1.5024,-1.4277,-1.4493,-1.4493,-1.4498,-1.4821,-1.5369,-1.5928,-1.6254,-1.6693,-1.7109,-1.7531,-1.782,-1.7981,-1.8502,-1.8913,-1.9292,-1.9766,-2.0379,-2.0786,-2.1229,-2.1546,-2.1774,-2.2002,-2.223,-2.2456,-2.257,-2.2886,-2.3012,-2.2766,-2.2806,-2.3131,-2.3813,-2.413,-2.4186,-2.4726,-2.4416,-2.3993,-2.4166,-2.4061,-2.3818,-2.3937,-2.4317,-2.4674,-2.4768,-2.4976,-2.5337,-2.5398,-2.5451,-2.5452,-2.5442,-2.5509,-2.588,-2.5633,-2.5774,-2.6073,-2.6633,-2.6678,-2.6601,-2.6234,-2.5963,-2.5727,-2.5316,-2.487,-2.5027,-2.4571,-2.4479,-2.4439,-2.4193,-2.3683,-2.3559,-2.3589,-2.3867,-2.4247,-2.4371,-2.4363,-2.4232,-2.4108,-2.3882,-2.3621,-2.3318,-2.3473,-2.3376,-2.3613,-2.3672,-2.3581,-2.3588,-2.3588,-2.3559,-2.3479,-2.3574,-2.3727,-2.3925,-2.4253,-2.4785,-2.5227,-2.5726,-2.6277,-2.6745,-2.6949,-2.7145,-2.7105,-2.7018,-2.7081,-2.7121,-2.6628,-2.6144,-2.581,-2.5786,-2.6208,-2.6568,-2.6543,-1.653,-1.6524,-1.6411,-1.6092,-1.5773,-1.4917,-1.46,-1.4708,-1.5148,-1.5571,-1.5986,-1.6311,-1.6749,-1.7119,-1.7576,-1.7869,-1.7995,-1.8201,-1.8749,-1.9191,-1.988,-2.0413,-2.0877,-2.1451,-2.1873,-2.2002,-2.2222,-2.2456,-2.2578,-2.2683,-2.2828,-2.3028,-2.2965,-2.3162,-2.3489,-2.3888,-2.4123,-2.4501,-2.4726,-2.4786,-2.4071,-2.44,-2.4389,-2.394,-2.4225,-2.4666,-2.5108,-2.5044,-2.5342,-2.5649,-2.5551,-2.5547,-2.5583,-2.5555,-2.5205,-2.5398,-2.5271,-2.5217,-2.5423,-2.5786,-2.6335,-2.6419,-2.6332,-2.5981,-2.5981,-2.5577,-2.5343,-2.523,-2.4873,-2.4747,-2.4571,-2.4216,-2.3961,-2.3822,-2.3837,-2.3991,-2.4255,-2.4247,-2.4108,-2.3984,-2.386,-2.4049,-2.3806,-2.3775,-2.3833,-2.3823,-2.4084,-2.4047,-2.3918,-2.3925,-2.3925,-2.3918,-2.3896,-2.3969,-2.4079,-2.4196,-2.4379,-2.4827,-2.5389,-2.5977,-2.6501,-2.68,-2.7059,-2.7169,-2.7185,-2.72,-2.7185,-2.7129,-2.6962,-2.6628,-2.6295,-2.6072,-2.6384,-2.6583,-2.6711,-1.7047,-1.7047,-1.6948,-1.6849,-1.6736,-1.5779,-1.5244,-1.525,-1.5583,-1.5891,-1.6193,-1.6524,-1.6749,-1.7179,-1.7602,-1.7911,-1.7905,-1.8331,-1.878,-1.9055,-1.9742,-2.0332,-2.087,-2.1369,-2.173,-2.1941,-2.223,-2.2464,-2.2351,-2.2562,-2.2691,-2.264,-2.2681,-2.2914,-2.3349,-2.3779,-2.4306,-2.4608,-2.4849,-2.4857,-2.4579,-2.4564,-2.4747,-2.4629,-2.4645,-2.4814,-2.5028,-2.5222,-2.5415,-2.5513,-2.5383,-2.5414,-2.5414,-2.5308,-2.4887,-2.4903,-2.496,-2.494,-2.5095,-2.5058,-2.5633,-2.6164,-2.5953,-2.5961,-2.5839,-2.5529,-2.5423,-2.5202,-2.4988,-2.4857,-2.4726,-2.4479,-2.4224,-2.4085,-2.4092,-2.4247,-2.4371,-2.4363,-2.4232,-2.3984,-2.3913,-2.4006,-2.4187,-2.432,-2.4253,-2.4415,-2.4437,-2.4349,-2.4254,-2.4225,-2.4203,-2.4196,-2.4123,-2.4086,-2.4196,-2.4379,-2.4583,-2.4847,-2.5368,-2.5996,-2.6398,-2.6666,-2.6934,-2.72,-2.72,-2.7193,-2.7153,-2.7081,-2.7018,-2.6946,-2.6795,-2.6621,-2.6525,-2.6621,-2.6787,-1.7589,-1.7589,-1.7285,-1.7179,-1.7173,-1.6736,-1.653,-1.6324,-1.5998,-1.6205,-1.673,-1.653,-1.6749,-1.7279,-1.7589,-1.7799,-1.8003,-1.8646,-1.8998,-1.9396,-1.9883,-2.0258,-2.0693,-2.1175,-2.1647,-2.1813,-2.1995,-2.2199,-2.2093,-2.2122,-2.213,-2.2146,-2.2314,-2.2674,-2.3129,-2.3696,-2.4091,-2.4439,-2.4702,-2.4718,-2.4487,-2.4857,-2.4949,-2.4909,-2.4933,-2.4952,-2.4987,-2.5059,-2.5003,-2.4875,-2.4723,-2.482,-2.4812,-2.482,-2.4603,-2.4609,-2.4611,-2.4762,-2.473,-2.4627,-2.4916,-2.5424,-2.5586,-2.5602,-2.5488,-2.5357,-2.5234,-2.5234,-2.4988,-2.5103,-2.498,-2.4857,-2.4602,-2.4471,-2.4348,-2.4487,-2.4487,-2.4487,-2.4355,-2.4255,-2.406,-2.4177,-2.4154,-2.4334,-2.4488,-2.4775,-2.4752,-2.4708,-2.4598,-2.4459,-2.4444,-2.4415,-2.4313,-2.4137,-2.4262,-2.4474,-2.4583,-2.4781,-2.5502,-2.6003,-2.6272,-2.6532,-2.6808,-2.7067,-2.72,-2.7185,-2.7169,-2.7169,-2.7169,-2.7105,-2.7018,-2.7002,-2.6843,-2.693,-2.7065,-1.7589,-1.7589,-1.7477,-1.7483,-1.7483,-1.7166,-1.6961,-1.6855,-1.663,-1.6743,-1.7067,-1.7166,-1.7272,-1.7483,-1.8233,-1.8548,-1.8855,-1.9272,-1.9413,-1.9657,-1.9835,-2.032,-2.0741,-2.1018,-2.1549,-2.1881,-2.207,-2.1986,-2.1811,-2.1765,-2.173,-2.1888,-2.2098,-2.25,-2.2825,-2.3354,-2.3711,-2.3963,-2.4462,-2.4463,-2.4487,-2.4741,-2.498,-2.5103,-2.5103,-2.4992,-2.4976,-2.5008,-2.4913,-2.4658,-2.4595,-2.4635,-2.4332,-2.4524,-2.4548,-2.4228,-2.4244,-2.4228,-2.4061,-2.4196,-2.4524,-2.4899,-2.5082,-2.5218,-2.5234,-2.5111,-2.5103,-2.5103,-2.5103,-2.5103,-2.5103,-2.498,-2.4857,-2.4734,-2.4602,-2.4734,-2.4734,-2.461,-2.4487,-2.427,-2.4199,-2.4134,-2.412,-2.4276,-2.4591,-2.4847,-2.503,-2.4957,-2.4862,-2.4693,-2.4583,-2.4547,-2.4474,-2.4291,-2.4357,-2.4547,-2.4598,-2.4834,-2.5435,-2.5861,-2.6138,-2.6406,-2.6674,-2.6941,-2.7075,-2.7067,-2.7193,-2.72,-2.72,-2.72,-2.7137,-2.7169,-2.72,-2.72,-2.72,-1.7482,-1.7575,-1.7589,-1.7589,-1.7582,-1.7272,-1.7121,-1.7042,-1.6791,-1.6849,-1.7173,-1.7384,-1.7589,-1.7799,-1.8331,-1.8757,-1.9078,-1.9279,-1.9494,-1.9546,-1.9672,-1.9725,-2.0033,-2.0259,-2.0457,-2.0966,-2.1391,-2.1347,-2.1212,-2.1204,-2.1277,-2.1318,-2.1781,-2.1972,-2.2112,-2.2491,-2.278,-2.3217,-2.3802,-2.4155,-2.4355,-2.4602,-2.4857,-2.5087,-2.5087,-2.5024,-2.4944,-2.4976,-2.4897,-2.4642,-2.4587,-2.4499,-2.4237,-2.4364,-2.446,-2.434,-2.4301,-2.4253,-2.4166,-2.4206,-2.4452,-2.4682,-2.4865,-2.4944,-2.5063,-2.5103,-2.5103,-2.5103,-2.5103,-2.5103,-2.5103,-2.5103,-2.5103,-2.5103,-2.498,-2.498,-2.4857,-2.4857,-2.4634,-2.4417,-2.4219,-2.4105,-2.4168,-2.4341,-2.4466,-2.4693,-2.4854,-2.4898,-2.4832,-2.473,-2.462,-2.4562,-2.4525,-2.4444,-2.451,-2.4518,-2.4627,-2.4849,-2.5301,-2.5689,-2.5854,-2.6153,-2.6563,-2.6823,-2.6941,-2.6934,-2.7051,-2.72,-2.72,-2.72,-2.72,-2.72,-2.72,-2.72,-2.72,-1.7268,-1.7502,-1.7542,-1.7443,-1.7477,-1.7239,-1.699,-1.6788,-1.665,-1.689,-1.7114,-1.7265,-1.7701,-1.8115,-1.8436,-1.8646,-1.8855,-1.9063,-1.9168,-1.9168,-1.8779,-1.8766,-1.887,-1.8739,-1.9304,-1.9576,-1.9946,-2.0475,-2.0562,-2.0605,-2.0564,-2.0587,-2.0845,-2.1075,-2.1438,-2.1722,-2.2006,-2.233,-2.3011,-2.354,-2.4031,-2.4324,-2.4663,-2.4909,-2.496,-2.4857,-2.4706,-2.4738,-2.4881,-2.465,-2.4515,-2.4484,-2.446,-2.4349,-2.438,-2.4396,-2.4444,-2.4396,-2.4356,-2.4404,-2.4698,-2.4825,-2.4833,-2.4913,-2.5032,-2.5103,-2.5103,-2.5103,-2.5103,-2.5103,-2.5103,-2.5103,-2.5103,-2.5103,-2.5103,-2.498,-2.498,-2.4857,-2.4741,-2.444,-2.439,-2.4254,-2.3983,-2.415,-2.4262,-2.4466,-2.4562,-2.4664,-2.4642,-2.4569,-2.4525,-2.4452,-2.4276,-2.4196,-2.4131,-2.4189,-2.4605,-2.4893,-2.5159,-2.545,-2.5561,-2.5927,-2.646,-2.6532,-2.6596,-2.6761,-2.6894,-2.6988,-2.7113,-2.72,-2.72,-2.72,-2.72,-2.72,-2.72,-1.6557,-1.6649,-1.6646,-1.6742,-1.6897,-1.6612,-1.66,-1.6729,-1.6471,-1.676,-1.7268,-1.7775,-1.8108,-1.822,-1.8541,-1.875,-1.8736,-1.8646,-1.8639,-1.8527,-1.8206,-1.8013,-1.8164,-1.8097,-1.8489,-1.8938,-1.9417,-1.971,-1.9871,-1.9878,-1.9977,-2.0364,-2.0526,-2.0762,-2.09,-2.1185,-2.1377,-2.1512,-2.1747,-2.2767,-2.357,-2.3741,-2.4021,-2.4275,-2.4298,-2.4261,-2.4023,-2.392,-2.4174,-2.4174,-2.3937,-2.4062,-2.4539,-2.4476,-2.4356,-2.4269,-2.4492,-2.4492,-2.4452,-2.4547,-2.4801,-2.4992,-2.5016,-2.504,-2.5079,-2.5095,-2.5103,-2.5103,-2.5103,-2.5103,-2.5103,-2.5103,-2.5103,-2.5103,-2.5103,-2.5103,-2.5103,-2.4857,-2.4734,-2.4626,-2.4436,-2.4164,-2.3873,-2.3914,-2.4049,-2.4159,-2.4188,-2.4225,-2.4196,-2.4145,-2.3912,-2.3869,-2.3767,-2.371,-2.3638,-2.3941,-2.4253,-2.4545,-2.4788,-2.5048,-2.5293,-2.5859,-2.6422,-2.6306,-2.6237,-2.6526,-2.6761,-2.6775,-2.6938,-2.7065,-2.72,-2.72,-2.72,-2.72,-2.72,-1.6002,-1.603,-1.5967,-1.6188,-1.6488,-1.638,-1.6356,-1.6356,-1.6616,-1.6746,-1.684,-1.749,-1.7977,-1.8192,-1.8436,-1.8541,-1.8422,-1.8318,-1.822,-1.8003,-1.7582,-1.7437,-1.7456,-1.7427,-1.7505,-1.7902,-1.87,-1.9112,-1.9207,-1.9401,-1.9652,-2.0005,-2.0247,-2.0323,-2.0447,-2.0607,-2.076,-2.0732,-2.0767,-2.1519,-2.2752,-2.3089,-2.3507,-2.3886,-2.4039,-2.3842,-2.3882,-2.381,-2.4047,-2.4125,-2.4115,-2.4377,-2.4688,-2.4817,-2.4722,-2.4666,-2.4714,-2.473,-2.4619,-2.4674,-2.4881,-2.504,-2.5103,-2.5087,-2.5087,-2.5103,-2.5103,-2.5103,-2.5103,-2.5103,-2.5103,-2.5103,-2.5103,-2.5103,-2.5103,-2.5103,-2.4857,-2.461,-2.4487,-2.4278,-2.4143,-2.3916,-2.3606,-2.3243,-2.3497,-2.3845,-2.3866,-2.3854,-2.3788,-2.3543,-2.3422,-2.3164,-2.3199,-2.3084,-2.3028,-2.3427,-2.3959,-2.4214,-2.456,-2.4825,-2.5167,-2.592,-2.6375,-2.6463,-2.6526,-2.6433,-2.6643,-2.6711,-2.6787,-2.6883,-2.7057,-2.72,-2.72,-2.72,-2.72,-1.5337,-1.5382,-1.5331,-1.5605,-1.6131,-1.6112,-1.6069,-1.6004,-1.6658,-1.6707,-1.6531,-1.6982,-1.7455,-1.7769,-1.7911,-1.7911,-1.7806,-1.7595,-1.7595,-1.7272,-1.6842,-1.6668,-1.6455,-1.6355,-1.6656,-1.6965,-1.7652,-1.837,-1.889,-1.9003,-1.9124,-1.9598,-1.97,-1.9707,-1.9815,-1.9965,-2.0219,-2.0227,-2.0372,-2.0801,-2.15,-2.2297,-2.2893,-2.3557,-2.3897,-2.3724,-2.37,-2.3849,-2.4165,-2.4432,-2.4436,-2.47,-2.4885,-2.5016,-2.4944,-2.4897,-2.4936,-2.496,-2.4944,-2.496,-2.5048,-2.5103,-2.5103,-2.5103,-2.5103,-2.498,-2.498,-2.498,-2.498,-2.5103,-2.5103,-2.5103,-2.5103,-2.498,-2.498,-2.4857,-2.461,-2.4239,-2.4232,-2.4108,-2.3867,-2.3634,-2.326,-2.2885,-2.3001,-2.3218,-2.3355,-2.3485,-2.3529,-2.3128,-2.2801,-2.2638,-2.2503,-2.251,-2.2566,-2.3025,-2.3573,-2.4001,-2.4361,-2.472,-2.5292,-2.5988,-2.6563,-2.687,-2.6918,-2.6713,-2.6666,-2.6775,-2.6851,-2.6803,-2.7002,-2.72,-2.72,-2.72,-2.72,-1.4118,-1.437,-1.4487,-1.4837,-1.5328,-1.5357,-1.5413,-1.5547,-1.5791,-1.6029,-1.6535,-1.6713,-1.7062,-1.7674,-1.7711,-1.7582,-1.7384,-1.7067,-1.6749,-1.643,-1.6111,-1.5903,-1.5797,-1.5791,-1.6004,-1.6417,-1.6794,-1.723,-1.8262,-1.8196,-1.8392,-1.908,-1.9107,-1.9229,-1.9482,-1.9611,-1.9625,-1.9692,-1.9836,-2.0247,-2.1278,-2.1752,-2.2072,-2.2536,-2.2944,-2.2767,-2.2759,-2.2998,-2.3598,-2.4131,-2.4645,-2.4933,-2.5103,-2.5095,-2.5008,-2.4944,-2.5008,-2.4976,-2.4968,-2.504,-2.5079,-2.5103,-2.5103,-2.5103,-2.498,-2.4857,-2.4857,-2.4857,-2.4857,-2.498,-2.5103,-2.5103,-2.5103,-2.4726,-2.4471,-2.4355,-2.4232,-2.3984,-2.3984,-2.3736,-2.3611,-2.3245,-2.287,-2.262,-2.2627,-2.277,-2.2777,-2.2765,-2.2786,-2.2476,-2.2328,-2.218,-2.2026,-2.2009,-2.2146,-2.2639,-2.3112,-2.3558,-2.4206,-2.5032,-2.5607,-2.628,-2.6847,-2.7138,-2.6988,-2.6767,-2.6891,-2.679,-2.6938,-2.6922,-2.7073,-2.72,-2.72,-2.72,-2.72]},{"header":{"parameterUnit":"m.s-1","parameterCategory":1,"la1":31.0,"la2":29.5877,"lo1":-88.7671,"lo2":-86.6584,"dy":0.0162,"dx":0.0185,"nx":115,"ny":88,"refTime":"2023-04-01T12:00:00:Z","depth":0,"parameterNumber":3,"parameterNumberName":"V-component_of_WINDS"},"data":[0.0,0.0,0.0,0.0,0.0,0.0,0.0,0.0,0.0,0.0,0.0,0.0,0.0,0.0,0.0,0.0,0.0,0.0,0.0,0.0,0.0,0.0,0.0,0.0,0.0,0.0,0.0,0.0,0.0,0.0,0.0,0.0,0.0,0.0,0.0,0.0,0.0,0.0,0.0,0.0,0.0,0.0,0.0,0.0,0.0,0.0,0.0,0.0,0.0,0.0,0.0,0.0,0.0,0.0,0.0,0.0,0.0,0.0,0.0,0.0,0.0,0.0,0.0,0.0,0.0,0.0,0.0,0.0,0.0,0.0,0.0,0.0,0.0,0.0,0.0,0.0,0.0,0.0,0.0,0.0,0.0,0.0,0.0,0.0,0.0,0.0,0.0,0.0,0.0,0.0,0.0,0.0,0.0,0.0,0.0,0.0,0.0,0.0,0.0,0.0,0.0,0.0,0.0,0.0,0.0,0.0,0.0,0.0,0.0,0.0,0.0,0.0,0.0,0.0,0.0,0.0,0.0,0.0,0.0,0.0,0.0,0.0,0.0,0.0,0.0,0.0,0.0,0.0,0.0,0.0,0.0,0.0,0.0,0.0,0.0,0.0,0.0,0.0,0.0,0.0,0.0,0.0,0.0,0.0,0.0,0.0,0.0,0.0,0.0,0.0,0.0,0.0,0.0,0.0,0.0,0.0,0.0,0.0,0.0,0.0,0.0,0.0,0.0,0.0,0.0,0.0,0.0,0.0,0.0,0.0,0.0,0.0,0.0,0.0,0.0,0.0,0.0,0.0,0.0,0.0,0.0,0.0,0.0,0.0,0.0,0.0,0.0,0.0,0.0,0.0,0.0,0.0,0.0,0.0,0.0,0.0,0.0,0.0,0.0,0.0,0.0,0.0,0.0,0.0,0.0,0.0,0.0,0.0,0.0,0.0,0.0,0.0,0.0,0.0,0.0,0.0,0.0,0.0,0.0,0.0,0.0,0.0,0.0,0.0,0.0,0.0,0.0,0.0,0.0,0.0,0.0,0.0,0.0,0.0,0.0,0.0,0.0,0.0,0.0,0.0,0.0,0.0,0.0,0.0,0.0,0.0,0.0,0.0,0.0,0.0,0.0,0.0,0.0,0.0,0.0,0.0,0.0,0.0,0.0,0.0,0.0,0.0,0.0,0.0,0.0,0.0,0.0,0.0,0.0,0.0,0.0,0.0,0.0,0.0,0.0,0.0,0.0,0.0,0.0,0.0,0.0,0.0,0.0,0.0,0.0,0.0,0.0,0.0,0.0,0.0,0.0,0.0,0.0,0.0,0.0,0.0,0.0,0.0,0.0,0.0,0.0,0.0,0.0,0.0,0.0,0.0,0.0,0.0,0.0,0.0,0.0,0.0,0.0,0.0,0.0,0.0,0.0,0.0,0.0,0.0,0.0,0.0,0.0,0.0,0.0,0.0,0.0,0.0,0.0,0.0,0.0,0.0,0.0,0.0,0.0,0.0,0.0,0.0,0.0,0.0,0.0,0.0,0.0,0.0,0.0,0.0,0.0,0.0,0.0,0.0,0.0,0.0,0.0,0.0,0.0,0.0,0.0,0.0,0.0,0.0,0.0,0.0,0.0,0.0,0.0,0.0,0.0,0.0,0.0,0.0,0.0,0.0,0.0,0.0,0.0,0.0,0.0,0.0,0.0,0.0,0.0,0.0,0.0,0.0,0.0,0.0,0.0,0.0,0.0,0.0,0.0,0.0,0.0,0.0,0.0,0.0,0.0,0.0,0.0,0.0,0.0,0.0,0.0,0.0,0.0,0.0,0.0,0.0,0.0,0.0,0.0,0.0,0.0,0.0,0.0,0.0,0.0,0.0,0.0,0.0,0.0,0.0,0.0,0.0,0.0,0.0,0.0,0.0,0.0,0.0,0.0,0.0,0.0,0.0,0.0,0.0,0.0,0.0,0.0,0.0,0.0,0.0,0.0,0.0,0.0,0.0,0.0,0.0,0.0,0.0,0.0,0.0,0.0,0.0,0.0,0.0,0.0,0.0,0.0,0.0,0.0,0.0,0.0,0.0,0.0,0.0,0.0,0.0,0.0,0.0,0.0,0.0,0.0,0.0,0.0,0.0,0.0,0.0,0.0,0.0,0.0,0.0,0.0,0.0,0.0,0.0,0.0,0.0,0.0,0.0,0.0,0.0,0.0,0.0,0.0,0.0,0.0,0.0,0.0,0.0,0.0,0.0,0.0,0.0,0.0,0.0,0.0,0.0,0.0,0.0,0.0,0.0,0.0,0.0,0.0,0.0,0.0,0.0,0.0,0.0,0.0,0.0,0.0,0.0,0.0,0.0,0.0,0.0,0.0,0.0,0.0,0.0,0.0,0.0,0.0,0.0,0.0,0.0,0.0,0.0,0.0,0.0,0.0,0.0,0.0,0.0,0.0,0.0,0.0,0.0,0.0,0.0,0.0,0.0,0.0,0.0,0.0,0.0,0.0,0.0,0.0,0.0,0.0,0.0,0.0,0.0,0.0,0.0,0.0,0.0,0.0,0.0,0.0,0.0,0.0,0.0,0.0,0.0,0.0,0.0,0.0,0.0,0.0,0.0,0.0,0.0,0.0,0.0,0.0,0.0,0.0,0.0,0.0,0.0,0.0,0.0,0.0,0.0,0.0,0.0,0.0,0.0,0.0,0.0,0.0,0.0,0.0,0.0,0.0,0.0,0.0,0.0,0.0,0.0,0.0,0.0,0.0,0.0,0.0,0.0,0.0,0.0,0.0,0.0,0.0,0.0,0.0,0.0,0.0,0.0,0.0,0.0,0.0,0.0,0.0,0.0,0.0,0.0,0.0,0.0,0.0,0.0,0.0,0.0,0.0,0.0,0.0,0.0,0.0,0.0,0.0,0.0,0.0,0.0,0.0,0.0,0.0,0.0,0.0,0.0,0.0,0.0,0.0,0.0,0.0,0.0,0.0,0.0,0.0,0.0,0.0,0.0,0.0,0.0,0.0,0.0,0.0,0.0,0.0,0.0,0.0,0.0,0.0,0.0,0.0,0.0,0.0,0.0,0.0,0.0,0.0,0.0,0.0,0.0,0.0,0.0,0.0,0.0,0.0,0.0,0.0,0.0,0.0,0.0,0.0,0.0,0.0,0.0,0.0,0.0,0.0,0.0,0.0,0.0,0.0,0.0,0.0,0.0,0.0,0.0,0.0,0.0,0.0,0.0,0.0,0.0,0.0,0.0,0.0,0.0,0.0,0.0,0.0,0.0,0.0,0.0,0.0,0.0,0.0,0.0,0.0,0.0,0.0,0.0,0.0,0.0,0.0,0.0,0.0,0.0,0.0,0.0,0.0,0.0,0.0,0.0,0.0,0.0,0.0,0.0,0.0,0.0,0.0,0.0,0.0,0.0,0.0,0.0,0.0,0.0,0.0,0.0,0.0,0.0,0.0,0.0,0.0,0.0,0.0,0.0,0.0,0.0,0.0,0.0,0.0,0.0,0.0,0.0,0.0,0.0,0.0,0.0,0.0,0.0,0.0,0.0,0.0,0.0,0.0,0.0,0.0,0.0,0.0,0.0,0.0,0.0,0.0,0.0,0.0,0.0,0.0,0.0,0.0,0.0,0.0,0.0,0.0,0.0,0.0,0.0,0.0,0.0,0.0,0.0,0.0,0.0,0.0,0.0,0.0,0.0,0.0,0.0,0.0,0.0,0.0,0.0,0.0,0.0,0.0,0.0,0.0,0.0,0.0,0.0,0.0,0.0,0.0,0.0,0.0,0.0,0.0,0.0,0.0,0.0,0.0,0.0,0.0,0.0,0.0,0.0,0.0,0.0,0.0,0.0,0.0,0.0,0.0,0.0,0.0,0.0,0.0,0.0,0.0,0.0,0.0,0.0,0.0,0.0,0.0,0.0,0.0,0.0,0.0,0.0,0.0,0.0,0.0,0.0,0.0,0.0,0.0,0.0,0.0,0.0,0.0,0.0,0.0,0.0,0.0,0.0,0.0,0.0,0.0,0.0,0.0,0.0,0.0,0.0,0.0,0.0,0.0,0.0,0.0,0.0,0.0,0.0,0.0,0.0,0.0,0.0,0.0,0.0,0.0,0.0,0.0,0.0,0.0,0.0,0.0,0.0,0.0,0.0,0.0,0.0,0.0,0.0,0.0,0.0,0.0,0.0,0.0,0.0,0.0,0.0,0.0,0.0,0.0,0.0,0.0,0.0,0.0,0.0,0.0,0.0,0.0,0.0,0.0,0.0,0.0,0.0,0.0,0.0,0.0,0.0,0.0,0.0,-3.6881,0.0,0.0,0.0,0.0,0.0,0.0,0.0,0.0,0.0,0.0,0.0,0.0,0.0,0.0,0.0,0.0,0.0,0.0,0.0,0.0,0.0,0.0,0.0,0.0,0.0,0.0,0.0,0.0,0.0,0.0,0.0,0.0,0.0,0.0,0.0,0.0,0.0,0.0,0.0,0.0,0.0,0.0,0.0,0.0,0.0,0.0,0.0,0.0,0.0,0.0,0.0,0.0,0.0,0.0,0.0,0.0,0.0,0.0,0.0,0.0,0.0,0.0,0.0,0.0,0.0,0.0,0.0,0.0,0.0,0.0,0.0,0.0,0.0,0.0,0.0,0.0,0.0,0.0,0.0,0.0,0.0,0.0,0.0,0.0,0.0,0.0,0.0,0.0,0.0,0.0,0.0,0.0,0.0,0.0,0.0,0.0,0.0,0.0,0.0,0.0,0.0,0.0,0.0,0.0,0.0,0.0,0.0,0.0,0.0,0.0,-3.7545,-3.7275,-3.7555,-3.7523,-3.719,0.0,0.0,0.0,0.0,0.0,0.0,0.0,0.0,0.0,0.0,0.0,0.0,0.0,0.0,0.0,0.0,0.0,0.0,0.0,0.0,0.0,0.0,0.0,0.0,0.0,0.0,0.0,0.0,0.0,0.0,0.0,0.0,0.0,0.0,0.0,0.0,0.0,0.0,0.0,0.0,0.0,0.0,0.0,0.0,0.0,0.0,0.0,0.0,0.0,0.0,0.0,0.0,0.0,0.0,0.0,0.0,0.0,0.0,0.0,0.0,0.0,0.0,0.0,0.0,0.0,0.0,0.0,0.0,0.0,0.0,0.0,0.0,0.0,0.0,0.0,0.0,0.0,0.0,0.0,0.0,0.0,0.0,0.0,0.0,0.0,0.0,0.0,0.0,0.0,0.0,0.0,0.0,0.0,0.0,0.0,0.0,0.0,0.0,0.0,0.0,0.0,0.0,0.0,0.0,0.0,0.0,0.0,0.0,0.0,0.0,0.0,0.0,-3.7869,-3.7876,-3.7411,0.0,0.0,0.0,0.0,0.0,0.0,0.0,0.0,0.0,0.0,0.0,0.0,0.0,0.0,0.0,0.0,0.0,0.0,0.0,0.0,0.0,0.0,0.0,0.0,0.0,0.0,0.0,0.0,0.0,0.0,0.0,0.0,0.0,0.0,0.0,0.0,0.0,0.0,0.0,0.0,0.0,0.0,0.0,0.0,0.0,0.0,0.0,0.0,0.0,0.0,0.0,0.0,0.0,0.0,0.0,0.0,0.0,0.0,0.0,0.0,0.0,0.0,0.0,0.0,0.0,0.0,0.0,0.0,0.0,0.0,0.0,0.0,0.0,0.0,0.0,0.0,0.0,0.0,0.0,0.0,0.0,0.0,0.0,0.0,0.0,0.0,0.0,0.0,0.0,0.0,0.0,0.0,0.0,0.0,0.0,0.0,0.0,0.0,0.0,0.0,0.0,0.0,0.0,0.0,0.0,0.0,0.0,0.0,0.0,0.0,-3.9325,-3.8914,-3.8699,0.0,-3.7576,0.0,0.0,0.0,0.0,0.0,0.0,0.0,0.0,0.0,0.0,0.0,0.0,0.0,0.0,0.0,0.0,0.0,0.0,0.0,0.0,0.0,0.0,0.0,0.0,0.0,0.0,0.0,0.0,0.0,0.0,0.0,0.0,0.0,0.0,0.0,0.0,0.0,0.0,0.0,0.0,0.0,0.0,0.0,0.0,0.0,0.0,0.0,0.0,0.0,0.0,0.0,0.0,0.0,0.0,0.0,0.0,0.0,0.0,0.0,0.0,0.0,0.0,0.0,0.0,0.0,0.0,0.0,0.0,0.0,0.0,0.0,0.0,0.0,0.0,0.0,0.0,0.0,0.0,0.0,0.0,0.0,0.0,0.0,0.0,0.0,0.0,0.0,0.0,0.0,0.0,0.0,0.0,0.0,0.0,0.0,0.0,0.0,0.0,0.0,0.0,0.0,0.0,0.0,0.0,0.0,0.0,0.0,0.0,0.0,0.0,-3.9208,-3.8681,-3.7821,-3.712,0.0,0.0,0.0,0.0,0.0,0.0,0.0,0.0,0.0,0.0,0.0,0.0,0.0,0.0,0.0,0.0,0.0,0.0,0.0,0.0,0.0,0.0,0.0,0.0,0.0,0.0,0.0,0.0,0.0,0.0,0.0,0.0,0.0,0.0,0.0,0.0,0.0,0.0,0.0,0.0,0.0,0.0,0.0,0.0,0.0,0.0,0.0,0.0,0.0,0.0,0.0,0.0,0.0,0.0,0.0,0.0,0.0,0.0,0.0,0.0,0.0,0.0,0.0,0.0,0.0,0.0,0.0,0.0,0.0,0.0,0.0,0.0,0.0,0.0,0.0,0.0,0.0,0.0,0.0,0.0,0.0,0.0,0.0,0.0,0.0,0.0,0.0,0.0,0.0,0.0,0.0,0.0,0.0,0.0,0.0,0.0,0.0,0.0,0.0,0.0,0.0,0.0,0.0,0.0,0.0,0.0,0.0,0.0,0.0,0.0,-3.9526,-3.8886,-3.8041,-3.6929,-3.613,-3.5715,0.0,0.0,0.0,0.0,0.0,0.0,0.0,0.0,0.0,0.0,0.0,0.0,0.0,0.0,0.0,0.0,0.0,0.0,0.0,0.0,0.0,0.0,0.0,0.0,0.0,0.0,0.0,0.0,0.0,0.0,0.0,0.0,0.0,0.0,0.0,0.0,0.0,0.0,0.0,0.0,0.0,0.0,0.0,0.0,0.0,0.0,0.0,0.0,0.0,0.0,0.0,0.0,0.0,0.0,0.0,0.0,0.0,0.0,0.0,0.0,0.0,0.0,0.0,0.0,0.0,0.0,0.0,0.0,0.0,0.0,0.0,0.0,0.0,0.0,0.0,0.0,0.0,0.0,0.0,0.0,0.0,0.0,0.0,0.0,0.0,0.0,0.0,0.0,0.0,0.0,0.0,0.0,0.0,0.0,0.0,0.0,0.0,0.0,0.0,0.0,0.0,0.0,0.0,0.0,0.0,0.0,0.0,0.0,-3.9958,-3.9452,-3.8536,-3.7197,-3.6487,-3.582,0.0,0.0,0.0,0.0,0.0,0.0,0.0,0.0,0.0,0.0,0.0,0.0,0.0,0.0,0.0,0.0,0.0,0.0,0.0,0.0,0.0,0.0,0.0,0.0,0.0,0.0,0.0,0.0,0.0,0.0,0.0,0.0,0.0,0.0,0.0,0.0,0.0,0.0,0.0,0.0,0.0,0.0,0.0,0.0,0.0,0.0,0.0,0.0,0.0,0.0,0.0,0.0,0.0,0.0,0.0,0.0,0.0,0.0,0.0,0.0,0.0,0.0,0.0,0.0,0.0,0.0,0.0,0.0,0.0,0.0,0.0,0.0,0.0,0.0,0.0,0.0,0.0,0.0,0.0,0.0,0.0,0.0,0.0,0.0,0.0,0.0,0.0,0.0,0.0,0.0,0.0,0.0,0.0,0.0,0.0,0.0,0.0,0.0,0.0,0.0,0.0,0.0,0.0,0.0,0.0,0.0,0.0,0.0,0.0,-3.9791,-3.8718,-3.7506,-3.6301,-3.5363,-3.4576,0.0,0.0,0.0,0.0,0.0,0.0,0.0,0.0,0.0,0.0,0.0,0.0,0.0,0.0,0.0,0.0,0.0,0.0,0.0,0.0,0.0,0.0,0.0,0.0,0.0,0.0,0.0,0.0,0.0,0.0,0.0,0.0,0.0,0.0,0.0,0.0,0.0,0.0,0.0,0.0,0.0,0.0,0.0,0.0,0.0,0.0,0.0,0.0,0.0,0.0,0.0,0.0,0.0,0.0,0.0,0.0,0.0,0.0,0.0,0.0,0.0,0.0,0.0,0.0,0.0,0.0,0.0,0.0,0.0,0.0,0.0,0.0,0.0,0.0,0.0,0.0,0.0,0.0,0.0,0.0,0.0,0.0,0.0,0.0,0.0,0.0,0.0,0.0,0.0,0.0,0.0,0.0,0.0,0.0,0.0,0.0,0.0,0.0,0.0,0.0,0.0,0.0,0.0,0.0,0.0,0.0,0.0,0.0,0.0,-3.9427,0.0,-3.6993,-3.577,-3.4748,-3.3853,0.0,0.0,0.0,0.0,0.0,0.0,0.0,0.0,0.0,0.0,0.0,0.0,0.0,0.0,0.0,0.0,0.0,0.0,0.0,0.0,0.0,0.0,0.0,0.0,0.0,0.0,0.0,0.0,0.0,0.0,0.0,0.0,0.0,0.0,0.0,0.0,0.0,0.0,0.0,0.0,0.0,0.0,0.0,0.0,0.0,0.0,0.0,0.0,0.0,0.0,0.0,0.0,0.0,0.0,0.0,0.0,0.0,0.0,0.0,0.0,0.0,0.0,0.0,0.0,0.0,0.0,0.0,0.0,0.0,0.0,0.0,0.0,0.0,0.0,0.0,0.0,0.0,0.0,0.0,0.0,0.0,0.0,0.0,0.0,0.0,0.0,0.0,0.0,0.0,0.0,0.0,0.0,0.0,0.0,0.0,0.0,0.0,0.0,0.0,0.0,0.0,0.0,0.0,0.0,0.0,0.0,0.0,0.0,-3.9668,-3.8828,-3.802,-3.6958,-3.5623,-3.4669,-3.3869,0.0,0.0,0.0,0.0,0.0,0.0,0.0,0.0,0.0,0.0,0.0,0.0,0.0,0.0,0.0,0.0,0.0,0.0,0.0,0.0,0.0,0.0,0.0,0.0,0.0,0.0,0.0,0.0,0.0,0.0,0.0,0.0,0.0,0.0,0.0,0.0,0.0,0.0,0.0,0.0,0.0,0.0,0.0,0.0,0.0,0.0,0.0,0.0,0.0,0.0,0.0,0.0,0.0,0.0,0.0,0.0,0.0,0.0,0.0,0.0,0.0,0.0,0.0,0.0,0.0,0.0,0.0,0.0,0.0,0.0,0.0,0.0,0.0,0.0,0.0,0.0,0.0,0.0,0.0,0.0,0.0,0.0,0.0,0.0,0.0,0.0,0.0,0.0,0.0,0.0,0.0,0.0,0.0,0.0,0.0,0.0,0.0,0.0,0.0,0.0,0.0,0.0,0.0,0.0,0.0,0.0,0.0,0.0,0.0,-3.8542,-3.7648,-3.6659,-3.5559,-3.4463,-3.3614,0.0,0.0,0.0,0.0,0.0,0.0,0.0,0.0,0.0,0.0,0.0,0.0,0.0,0.0,0.0,0.0,0.0,0.0,0.0,0.0,0.0,0.0,0.0,0.0,0.0,0.0,0.0,0.0,0.0,0.0,0.0,0.0,0.0,0.0,0.0,0.0,0.0,0.0,0.0,0.0,0.0,0.0,0.0,0.0,0.0,0.0,0.0,0.0,0.0,0.0,0.0,0.0,0.0,0.0,0.0,0.0,0.0,0.0,0.0,0.0,0.0,0.0,0.0,0.0,0.0,0.0,0.0,0.0,0.0,0.0,0.0,0.0,0.0,0.0,0.0,0.0,0.0,0.0,0.0,0.0,0.0,0.0,0.0,0.0,0.0,0.0,0.0,0.0,0.0,0.0,0.0,0.0,0.0,0.0,0.0,0.0,0.0,0.0,0.0,0.0,0.0,0.0,0.0,0.0,0.0,0.0,0.0,0.0,0.0,-3.8977,-3.7845,-3.6794,-3.5822,-3.4781,-3.3987,-3.3427,0.0,0.0,0.0,0.0,0.0,0.0,0.0,0.0,0.0,0.0,0.0,0.0,0.0,0.0,0.0,0.0,0.0,0.0,0.0,0.0,0.0,0.0,0.0,0.0,0.0,0.0,0.0,0.0,0.0,0.0,0.0,0.0,0.0,0.0,0.0,0.0,0.0,0.0,0.0,0.0,0.0,0.0,0.0,0.0,0.0,0.0,0.0,0.0,0.0,0.0,0.0,0.0,0.0,0.0,0.0,0.0,0.0,0.0,0.0,0.0,0.0,0.0,0.0,0.0,0.0,0.0,0.0,0.0,0.0,0.0,0.0,0.0,0.0,0.0,0.0,0.0,0.0,0.0,0.0,0.0,0.0,0.0,0.0,0.0,0.0,0.0,0.0,0.0,0.0,0.0,0.0,0.0,0.0,0.0,0.0,0.0,0.0,0.0,0.0,0.0,0.0,0.0,0.0,0.0,0.0,0.0,0.0,0.0,-4.003,-3.8649,-3.7432,-3.6464,-3.5565,-3.4814,0.0,0.0,0.0,0.0,0.0,0.0,0.0,0.0,0.0,0.0,0.0,0.0,0.0,0.0,0.0,0.0,0.0,0.0,0.0,0.0,0.0,0.0,0.0,0.0,0.0,0.0,0.0,0.0,0.0,0.0,0.0,0.0,0.0,0.0,0.0,0.0,0.0,0.0,0.0,0.0,0.0,0.0,0.0,0.0,0.0,0.0,0.0,0.0,0.0,0.0,0.0,0.0,0.0,0.0,0.0,0.0,0.0,0.0,0.0,0.0,0.0,0.0,0.0,0.0,0.0,0.0,0.0,0.0,0.0,0.0,0.0,0.0,0.0,0.0,0.0,0.0,0.0,0.0,0.0,0.0,0.0,0.0,0.0,0.0,0.0,0.0,0.0,0.0,0.0,0.0,0.0,0.0,0.0,0.0,0.0,0.0,0.0,0.0,0.0,0.0,0.0,0.0,0.0,0.0,0.0,0.0,0.0,0.0,0.0,-4.0384,-4.0357,-3.9581,-3.7923,-3.7033,-3.6146,0.0,0.0,0.0,0.0,0.0,0.0,0.0,0.0,0.0,0.0,0.0,0.0,0.0,0.0,0.0,0.0,0.0,0.0,0.0,0.0,0.0,0.0,0.0,0.0,0.0,0.0,0.0,0.0,0.0,0.0,0.0,0.0,0.0,0.0,0.0,0.0,0.0,0.0,0.0,0.0,0.0,0.0,0.0,0.0,0.0,0.0,0.0,0.0,0.0,0.0,0.0,0.0,0.0,0.0,0.0,0.0,0.0,0.0,0.0,0.0,0.0,0.0,0.0,0.0,0.0,0.0,0.0,0.0,0.0,0.0,0.0,0.0,0.0,0.0,0.0,0.0,0.0,0.0,0.0,0.0,0.0,0.0,0.0,0.0,0.0,0.0,0.0,0.0,0.0,0.0,0.0,0.0,0.0,0.0,0.0,0.0,0.0,0.0,0.0,0.0,0.0,0.0,0.0,0.0,0.0,0.0,0.0,0.0,-4.1216,-4.1493,-4.202,-4.187,-4.0973,-3.8876,-3.7228,0.0,0.0,0.0,0.0,0.0,0.0,0.0,0.0,0.0,0.0,0.0,0.0,0.0,0.0,0.0,0.0,0.0,0.0,0.0,0.0,0.0,0.0,0.0,0.0,0.0,0.0,0.0,0.0,0.0,0.0,0.0,0.0,0.0,0.0,0.0,0.0,0.0,0.0,0.0,0.0,0.0,0.0,0.0,0.0,0.0,0.0,0.0,0.0,0.0,0.0,0.0,0.0,0.0,0.0,0.0,0.0,0.0,0.0,0.0,0.0,0.0,0.0,0.0,0.0,0.0,0.0,0.0,0.0,0.0,0.0,0.0,0.0,0.0,0.0,0.0,0.0,0.0,0.0,0.0,0.0,0.0,0.0,0.0,0.0,0.0,0.0,0.0,0.0,0.0,0.0,0.0,0.0,0.0,0.0,0.0,0.0,0.0,0.0,0.0,0.0,0.0,0.0,0.0,0.0,0.0,0.0,0.0,0.0,-4.1895,-4.3005,-4.3619,-4.4062,-4.4272,-4.0811,-3.827,0.0,0.0,0.0,0.0,0.0,0.0,0.0,0.0,0.0,0.0,0.0,0.0,0.0,0.0,0.0,0.0,0.0,0.0,0.0,0.0,0.0,0.0,0.0,0.0,0.0,0.0,0.0,0.0,0.0,0.0,0.0,0.0,0.0,0.0,0.0,0.0,0.0,0.0,0.0,0.0,0.0,0.0,0.0,0.0,0.0,0.0,0.0,0.0,0.0,0.0,0.0,0.0,0.0,0.0,0.0,0.0,0.0,0.0,0.0,0.0,0.0,0.0,0.0,0.0,0.0,0.0,0.0,0.0,0.0,0.0,0.0,0.0,0.0,0.0,0.0,0.0,0.0,0.0,0.0,0.0,0.0,0.0,0.0,0.0,0.0,0.0,0.0,0.0,0.0,0.0,0.0,0.0,0.0,0.0,0.0,0.0,0.0,0.0,0.0,0.0,0.0,0.0,0.0,0.0,0.0,0.0,0.0,0.0,-4.3239,-4.3951,-4.492,-4.504,-4.4231,-4.1967,-4.016,0.0,0.0,0.0,0.0,0.0,0.0,0.0,0.0,0.0,0.0,0.0,0.0,0.0,0.0,0.0,0.0,0.0,0.0,0.0,0.0,0.0,0.0,0.0,0.0,0.0,0.0,0.0,0.0,0.0,0.0,0.0,0.0,0.0,0.0,0.0,0.0,0.0,0.0,0.0,0.0,0.0,0.0,0.0,0.0,0.0,0.0,0.0,0.0,-4.6399,0.0,0.0,0.0,0.0,0.0,0.0,0.0,0.0,0.0,0.0,0.0,0.0,0.0,0.0,0.0,0.0,0.0,0.0,0.0,0.0,0.0,0.0,0.0,0.0,0.0,0.0,0.0,0.0,0.0,0.0,0.0,0.0,0.0,0.0,0.0,0.0,0.0,0.0,0.0,0.0,0.0,0.0,0.0,0.0,0.0,0.0,0.0,0.0,0.0,0.0,0.0,0.0,0.0,0.0,0.0,0.0,0.0,0.0,0.0,-4.378,-4.4612,-4.5748,-4.6136,-4.5689,-4.3445,-4.1385,0.0,0.0,0.0,0.0,0.0,0.0,0.0,0.0,0.0,0.0,0.0,0.0,0.0,0.0,0.0,0.0,0.0,0.0,0.0,0.0,0.0,0.0,0.0,0.0,0.0,0.0,0.0,0.0,0.0,0.0,0.0,0.0,0.0,0.0,0.0,0.0,0.0,0.0,0.0,0.0,0.0,0.0,0.0,0.0,0.0,0.0,0.0,0.0,0.0,0.0,0.0,0.0,0.0,0.0,0.0,0.0,0.0,0.0,0.0,0.0,0.0,0.0,0.0,0.0,0.0,0.0,0.0,0.0,0.0,0.0,0.0,0.0,0.0,0.0,0.0,0.0,0.0,0.0,0.0,0.0,0.0,0.0,0.0,0.0,0.0,0.0,0.0,0.0,0.0,0.0,0.0,0.0,0.0,0.0,0.0,0.0,0.0,0.0,0.0,0.0,0.0,0.0,0.0,0.0,0.0,0.0,0.0,-4.2805,-4.4055,-4.524,-4.6324,-4.7044,-4.7371,-4.4803,-4.2253,-3.9876,0.0,0.0,0.0,0.0,0.0,0.0,0.0,0.0,0.0,0.0,0.0,0.0,0.0,0.0,0.0,0.0,0.0,0.0,0.0,0.0,0.0,0.0,0.0,0.0,0.0,0.0,0.0,0.0,0.0,0.0,0.0,0.0,0.0,0.0,0.0,0.0,0.0,0.0,-4.3175,-4.4536,0.0,0.0,0.0,0.0,0.0,0.0,0.0,0.0,-4.6375,0.0,0.0,0.0,0.0,0.0,0.0,0.0,0.0,0.0,0.0,0.0,0.0,0.0,0.0,0.0,0.0,0.0,0.0,0.0,0.0,0.0,0.0,0.0,0.0,0.0,0.0,0.0,0.0,0.0,0.0,0.0,0.0,0.0,0.0,0.0,0.0,0.0,0.0,0.0,0.0,0.0,0.0,0.0,0.0,0.0,0.0,0.0,0.0,0.0,0.0,0.0,0.0,0.0,0.0,0.0,0.0,-4.2294,-4.3342,-4.4538,-4.5919,-4.6761,-4.7176,-4.7017,-4.4961,-4.2903,-4.1041,0.0,0.0,0.0,0.0,0.0,0.0,0.0,0.0,0.0,0.0,0.0,0.0,0.0,0.0,0.0,0.0,0.0,0.0,0.0,0.0,0.0,0.0,0.0,0.0,0.0,0.0,0.0,0.0,0.0,0.0,0.0,0.0,0.0,0.0,0.0,0.0,0.0,0.0,0.0,-4.5784,-4.6354,0.0,0.0,0.0,0.0,0.0,0.0,0.0,0.0,-4.6944,0.0,0.0,0.0,0.0,0.0,0.0,0.0,0.0,0.0,0.0,0.0,0.0,0.0,0.0,0.0,0.0,0.0,0.0,0.0,0.0,0.0,0.0,0.0,0.0,0.0,0.0,0.0,0.0,0.0,0.0,0.0,0.0,0.0,0.0,0.0,0.0,0.0,0.0,0.0,0.0,0.0,0.0,0.0,0.0,0.0,0.0,0.0,0.0,0.0,0.0,0.0,0.0,0.0,0.0,0.0,-4.2246,-4.3341,-4.4521,-4.5736,-4.6318,-4.6668,-4.6742,-4.4789,-4.2917,0.0,0.0,0.0,0.0,0.0,0.0,0.0,0.0,0.0,0.0,0.0,0.0,0.0,0.0,0.0,0.0,0.0,0.0,0.0,0.0,0.0,0.0,0.0,0.0,0.0,0.0,0.0,0.0,0.0,0.0,0.0,0.0,0.0,0.0,0.0,0.0,0.0,0.0,0.0,0.0,-4.7241,-4.7796,-4.7711,0.0,0.0,0.0,0.0,0.0,0.0,-4.7192,-4.6775,0.0,0.0,0.0,0.0,0.0,0.0,0.0,0.0,0.0,0.0,0.0,0.0,0.0,0.0,0.0,0.0,0.0,0.0,0.0,0.0,0.0,0.0,0.0,0.0,0.0,0.0,0.0,0.0,0.0,0.0,0.0,0.0,0.0,0.0,0.0,0.0,0.0,0.0,0.0,0.0,0.0,0.0,0.0,0.0,0.0,0.0,0.0,0.0,0.0,0.0,0.0,0.0,0.0,0.0,0.0,-4.1938,-4.3101,-4.4209,-4.518,-4.5576,-4.5962,-4.6259,-4.4463,-4.268,0.0,0.0,0.0,0.0,0.0,0.0,0.0,0.0,0.0,0.0,0.0,0.0,0.0,0.0,0.0,0.0,0.0,0.0,0.0,0.0,0.0,0.0,0.0,0.0,0.0,0.0,0.0,0.0,0.0,0.0,0.0,0.0,0.0,0.0,0.0,0.0,0.0,0.0,0.0,0.0,0.0,-4.8851,-4.8348,-4.8858,0.0,0.0,0.0,0.0,-4.8004,-4.7995,0.0,0.0,0.0,0.0,0.0,0.0,0.0,0.0,0.0,0.0,0.0,0.0,0.0,0.0,0.0,0.0,0.0,0.0,0.0,0.0,0.0,0.0,0.0,0.0,0.0,0.0,0.0,0.0,0.0,0.0,0.0,0.0,0.0,0.0,0.0,0.0,0.0,0.0,0.0,0.0,0.0,0.0,0.0,0.0,0.0,0.0,0.0,0.0,0.0,0.0,0.0,0.0,0.0,0.0,0.0,0.0,-4.1651,-4.2783,-4.3634,-4.4168,-4.5007,-4.5428,-4.5268,-4.3944,-4.244,0.0,0.0,0.0,0.0,0.0,0.0,0.0,0.0,0.0,0.0,0.0,0.0,0.0,0.0,0.0,0.0,0.0,0.0,0.0,0.0,0.0,0.0,0.0,0.0,0.0,0.0,0.0,0.0,0.0,0.0,0.0,0.0,0.0,0.0,0.0,0.0,0.0,0.0,0.0,0.0,0.0,-4.8311,-4.965,-4.9208,-4.8601,0.0,0.0,-5.0459,-5.0126,-5.1964,0.0,0.0,0.0,0.0,0.0,0.0,0.0,0.0,0.0,0.0,0.0,0.0,0.0,0.0,0.0,0.0,0.0,0.0,0.0,0.0,0.0,0.0,0.0,0.0,0.0,0.0,0.0,0.0,0.0,0.0,0.0,0.0,0.0,0.0,0.0,0.0,0.0,0.0,0.0,0.0,0.0,0.0,0.0,0.0,0.0,0.0,0.0,0.0,0.0,0.0,0.0,0.0,0.0,0.0,0.0,-4.1163,-4.141,-4.299,-4.4028,-4.4389,-4.5151,-4.5587,-4.573,-4.4199,-4.2601,0.0,0.0,0.0,0.0,0.0,0.0,0.0,0.0,0.0,0.0,0.0,0.0,0.0,0.0,0.0,0.0,0.0,0.0,0.0,0.0,0.0,0.0,0.0,0.0,0.0,0.0,0.0,0.0,0.0,0.0,0.0,0.0,0.0,0.0,0.0,0.0,0.0,0.0,0.0,0.0,0.0,0.0,-5.0031,-5.0171,0.0,0.0,0.0,-5.0825,-5.1063,0.0,0.0,0.0,0.0,0.0,0.0,0.0,0.0,0.0,0.0,0.0,0.0,0.0,0.0,0.0,0.0,0.0,0.0,0.0,0.0,0.0,0.0,0.0,0.0,0.0,0.0,0.0,0.0,0.0,0.0,0.0,0.0,0.0,0.0,0.0,0.0,0.0,0.0,0.0,0.0,0.0,0.0,0.0,0.0,0.0,0.0,0.0,0.0,0.0,0.0,0.0,0.0,0.0,0.0,0.0,0.0,0.0,-4.1438,-4.3233,-4.4339,-4.4718,-4.5285,-4.5658,-4.5888,-4.4589,0.0,0.0,0.0,0.0,0.0,0.0,0.0,0.0,0.0,0.0,0.0,0.0,0.0,0.0,0.0,0.0,0.0,0.0,0.0,0.0,0.0,0.0,0.0,0.0,0.0,0.0,0.0,-4.0014,0.0,0.0,0.0,0.0,0.0,0.0,0.0,0.0,0.0,0.0,0.0,0.0,0.0,0.0,-4.981,-5.055,-5.142,-5.1986,0.0,0.0,-5.1988,-5.22,-5.2926,-5.2944,0.0,0.0,0.0,0.0,0.0,0.0,0.0,0.0,0.0,0.0,0.0,0.0,0.0,0.0,0.0,0.0,0.0,0.0,0.0,0.0,0.0,0.0,0.0,0.0,0.0,0.0,0.0,0.0,0.0,0.0,0.0,0.0,0.0,0.0,0.0,0.0,0.0,0.0,0.0,0.0,0.0,0.0,0.0,0.0,0.0,0.0,0.0,0.0,0.0,0.0,0.0,0.0,0.0,0.0,-4.1475,-4.2061,-4.3394,-4.4353,-4.4796,-4.5214,-4.5317,-4.5168,-4.5045,-4.4143,0.0,0.0,0.0,0.0,0.0,0.0,0.0,0.0,0.0,0.0,0.0,0.0,0.0,0.0,0.0,0.0,0.0,0.0,0.0,0.0,0.0,0.0,0.0,0.0,0.0,0.0,0.0,0.0,0.0,0.0,0.0,0.0,0.0,0.0,0.0,0.0,0.0,0.0,0.0,0.0,0.0,-5.0217,-5.167,-5.2931,-5.3939,0.0,-5.5578,-5.5748,-5.4244,-5.7052,-5.7384,-5.1158,0.0,0.0,0.0,0.0,0.0,0.0,0.0,0.0,0.0,0.0,0.0,0.0,0.0,0.0,0.0,0.0,0.0,0.0,0.0,0.0,0.0,0.0,0.0,0.0,0.0,0.0,0.0,0.0,0.0,0.0,0.0,0.0,0.0,0.0,0.0,0.0,0.0,0.0,0.0,0.0,0.0,0.0,0.0,0.0,0.0,0.0,0.0,0.0,0.0,0.0,0.0,0.0,0.0,-4.1431,-4.2064,-4.394,-4.5098,-4.553,-4.6078,-4.6287,-4.6005,-4.5564,-4.4576,0.0,0.0,0.0,0.0,0.0,0.0,0.0,0.0,0.0,0.0,0.0,0.0,0.0,0.0,0.0,0.0,0.0,0.0,0.0,0.0,0.0,0.0,0.0,0.0,0.0,0.0,0.0,0.0,-4.2595,-4.3057,-4.29,0.0,0.0,0.0,0.0,0.0,0.0,0.0,0.0,0.0,0.0,-5.0564,-5.3506,-5.4118,0.0,0.0,-5.6329,-5.6265,-5.5729,-5.6054,-5.5571,-5.326,-5.2375,0.0,0.0,0.0,0.0,0.0,0.0,0.0,0.0,0.0,0.0,0.0,0.0,0.0,0.0,0.0,0.0,0.0,0.0,0.0,0.0,0.0,0.0,0.0,0.0,0.0,0.0,0.0,0.0,0.0,0.0,0.0,0.0,0.0,0.0,0.0,0.0,0.0,0.0,0.0,0.0,0.0,0.0,0.0,0.0,0.0,0.0,0.0,0.0,0.0,0.0,0.0,0.0,-4.1492,-4.2304,-4.4358,-4.5698,-4.6362,-4.6847,-4.6934,-4.6684,-4.6234,-4.5356,0.0,0.0,0.0,0.0,0.0,0.0,0.0,0.0,0.0,0.0,0.0,0.0,0.0,0.0,0.0,0.0,0.0,0.0,0.0,0.0,0.0,0.0,0.0,0.0,0.0,0.0,0.0,0.0,-4.2993,-4.3269,-4.316,0.0,0.0,0.0,0.0,0.0,0.0,0.0,0.0,0.0,0.0,-5.1767,-5.4846,-5.5535,-5.6076,-5.6919,-5.6974,-5.6815,-5.6501,-5.5539,-5.4583,-5.4052,0.0,0.0,0.0,0.0,0.0,0.0,0.0,0.0,0.0,0.0,0.0,0.0,0.0,0.0,0.0,0.0,0.0,0.0,0.0,0.0,0.0,0.0,0.0,0.0,0.0,0.0,0.0,0.0,0.0,0.0,-3.496,0.0,0.0,0.0,0.0,0.0,0.0,0.0,0.0,0.0,0.0,0.0,0.0,0.0,0.0,0.0,0.0,0.0,0.0,0.0,0.0,0.0,0.0,-4.1748,-4.3068,-4.4592,-4.5992,-4.7212,-4.7223,-4.7088,-4.6842,-4.7007,-4.6722,-4.5731,0.0,0.0,0.0,0.0,0.0,0.0,0.0,0.0,0.0,0.0,0.0,0.0,0.0,0.0,0.0,0.0,0.0,0.0,0.0,0.0,0.0,0.0,0.0,0.0,0.0,0.0,-4.3142,-4.3142,-4.3086,0.0,0.0,0.0,0.0,0.0,0.0,0.0,0.0,0.0,0.0,-5.191,-5.404,-5.5477,-5.7325,-5.816,-5.7422,-5.7863,-5.7828,-5.6384,-5.6291,-5.5441,0.0,0.0,0.0,0.0,0.0,0.0,0.0,0.0,0.0,0.0,0.0,0.0,0.0,0.0,0.0,0.0,0.0,0.0,0.0,0.0,0.0,0.0,0.0,0.0,0.0,0.0,0.0,-3.6058,-3.6127,0.0,0.0,0.0,0.0,0.0,0.0,0.0,0.0,0.0,0.0,0.0,-4.1595,-4.2404,0.0,0.0,0.0,0.0,0.0,0.0,0.0,0.0,0.0,0.0,0.0,0.0,-4.18,-4.3232,-4.4763,-4.619,-4.75,-4.7468,-4.7338,-4.7125,-4.7276,-4.7047,-4.6416,0.0,0.0,0.0,0.0,0.0,0.0,0.0,0.0,0.0,0.0,0.0,0.0,0.0,0.0,0.0,0.0,0.0,0.0,0.0,0.0,0.0,0.0,0.0,0.0,0.0,-4.3269,0.0,0.0,0.0,0.0,0.0,0.0,0.0,0.0,0.0,0.0,0.0,-4.7918,-5.1208,-5.2236,-5.3573,-5.6129,-5.7246,-5.7904,0.0,0.0,0.0,0.0,0.0,0.0,0.0,0.0,0.0,0.0,0.0,0.0,0.0,0.0,-5.9539,-5.6849,-5.6794,-5.7158,-5.7158,0.0,0.0,0.0,0.0,0.0,0.0,0.0,0.0,0.0,0.0,0.0,0.0,0.0,0.0,-3.7969,0.0,-3.807,0.0,0.0,0.0,0.0,0.0,0.0,0.0,0.0,-4.176,-4.2553,-4.3383,-4.442,-4.4989,0.0,-4.516,-4.467,0.0,0.0,0.0,0.0,0.0,0.0,0.0,0.0,-4.1996,-4.3633,-4.5003,-4.6366,-4.7674,-4.7663,-4.7536,-4.745,-4.7536,-4.7342,-4.6819,-4.588,-4.4839,0.0,0.0,0.0,0.0,0.0,0.0,0.0,0.0,0.0,0.0,0.0,0.0,0.0,0.0,0.0,0.0,0.0,0.0,0.0,0.0,0.0,0.0,0.0,-4.4163,0.0,0.0,0.0,0.0,0.0,0.0,0.0,0.0,0.0,-4.7464,-4.7907,-4.9332,-5.2607,-5.319,-5.427,-5.6881,0.0,0.0,0.0,0.0,0.0,0.0,0.0,-5.7511,-5.7552,-5.7757,-5.8394,-5.9727,-6.1243,-6.2417,-6.268,0.0,0.0,-6.0387,-6.0222,-6.0587,-6.0606,-6.0587,-6.077,-6.1211,-6.0901,-6.0595,0.0,0.0,0.0,0.0,0.0,0.0,0.0,0.0,-3.9698,-4.042,0.0,-4.0598,0.0,0.0,0.0,0.0,0.0,-4.0111,0.0,0.0,-4.3558,-4.4392,-4.5263,-4.6718,-4.7548,-4.7776,-4.7757,-4.7787,-4.7611,-4.4525,0.0,0.0,0.0,0.0,0.0,0.0,-4.2323,-4.4437,-4.5443,-4.6577,-4.7816,-4.7888,-4.7824,-4.7795,-4.7806,-4.7587,-4.709,-4.7112,-4.6452,-4.4943,-4.4886,0.0,0.0,0.0,0.0,0.0,0.0,0.0,0.0,0.0,0.0,0.0,0.0,0.0,0.0,0.0,0.0,0.0,0.0,0.0,0.0,-4.5315,0.0,0.0,0.0,0.0,0.0,0.0,0.0,0.0,0.0,0.0,-4.8543,-4.9559,-5.117,-5.3496,0.0,0.0,0.0,0.0,-5.8485,-5.8712,-5.8903,-5.88,-5.8245,-5.8456,-5.8708,-5.8637,0.0,0.0,-6.3274,-6.4329,-6.4984,-6.5304,-6.598,-6.593,-6.4144,-6.369,-6.3726,-6.3744,-6.369,-6.3781,-6.3799,-6.3758,-6.3669,-3.8848,0.0,0.0,0.0,0.0,-3.8365,-3.9068,-3.9823,-4.1104,-4.1665,-4.1701,-4.1855,0.0,0.0,0.0,0.0,0.0,0.0,-4.1946,-4.3486,-4.4346,-4.5523,-4.6999,-4.7916,-4.8802,-4.9551,-4.9551,-4.9321,-4.8851,-4.7903,-4.6066,-4.3506,0.0,0.0,0.0,0.0,-4.3985,-4.5672,-4.6506,-4.7629,-4.915,-4.9072,-4.8992,-4.8992,-4.854,-4.8194,-4.7956,-4.807,-4.7647,-4.6635,-4.6722,0.0,0.0,0.0,0.0,0.0,0.0,0.0,0.0,0.0,0.0,0.0,0.0,0.0,0.0,0.0,0.0,0.0,0.0,0.0,-4.5606,-4.5663,-4.5641,0.0,0.0,0.0,0.0,0.0,0.0,0.0,0.0,0.0,-5.2507,-5.1862,-5.2141,0.0,0.0,-5.6099,-5.7182,-5.8255,-5.9055,-5.9179,-6.0176,0.0,-6.0068,-6.07,-6.1075,-6.0563,-6.1951,-6.3556,-6.4929,-6.5915,-6.6591,-6.6847,-6.7156,-6.7192,-6.6663,-6.6076,-6.5763,-6.5797,-6.5763,-6.5763,-6.5797,-6.5744,-6.5384,-4.1086,-4.0813,-3.9572,-3.9177,-3.9385,-3.9876,-4.0438,-4.1053,-4.2244,-4.2713,-4.2647,-4.2923,-4.259,-4.1779,-4.1447,0.0,0.0,0.0,-4.2931,-4.4764,-4.5393,-4.662,-4.8286,-4.9493,-5.0176,-5.0464,-5.0796,-5.0769,-5.0327,-4.9396,-4.8119,-4.6419,0.0,0.0,-4.4416,-4.4512,-4.5332,-4.6847,-4.767,-4.864,-4.9825,-5.0138,-5.021,-5.0153,-4.9454,-4.9048,-4.8955,-4.879,-4.8291,-4.746,-4.7652,-4.7159,0.0,0.0,0.0,0.0,0.0,0.0,0.0,0.0,0.0,0.0,0.0,-4.316,-4.3142,0.0,0.0,0.0,-4.5055,-4.6119,-4.702,-4.6819,0.0,0.0,0.0,0.0,0.0,0.0,0.0,-5.122,-5.2455,-5.3652,-5.4828,-5.4317,-5.4504,-5.6365,-5.6727,-5.718,-5.8036,0.0,-5.9408,-5.9873,-6.0864,-6.1387,-6.1087,-6.1855,-6.2575,-6.2529,-6.3365,-6.4535,-6.5712,-6.6352,-6.6883,-6.7396,-6.7376,-6.721,-6.721,-6.6586,-6.6326,-6.6982,-6.7059,-6.7006,-6.7196,-6.7059,-6.6608,-4.2798,-4.2687,-4.076,-4.0068,-4.0342,-4.1193,-4.1612,-4.1814,-4.3043,-4.3481,-4.3342,-4.3852,-4.3693,-4.2952,-4.2168,0.0,-4.2939,-4.2751,-4.3974,-4.6279,-4.6531,-4.7583,-4.9267,-5.0876,-5.1367,-5.0729,-5.1538,-5.1895,-5.17,-4.9671,-4.9004,-4.9646,-4.7212,-4.6269,-4.6877,-4.6184,-4.6487,-4.7919,-4.8828,-4.9616,-5.03,-5.1081,-5.1454,-5.1324,-5.0454,-4.9991,-4.9972,-4.9214,-4.8507,-4.7858,-4.7909,-4.7591,-4.6744,0.0,0.0,0.0,0.0,0.0,0.0,0.0,0.0,0.0,0.0,0.0,0.0,0.0,0.0,0.0,-4.6467,0.0,-4.8698,-4.8642,0.0,0.0,0.0,-4.9997,-5.1547,-5.2298,-5.3072,-5.3927,0.0,0.0,-5.5862,-5.6638,-5.7618,-5.8878,-5.8681,-5.8733,-5.9592,-5.9395,-5.9539,-6.0498,-6.0962,-6.1135,-6.1185,-6.2029,-6.2996,-6.385,-6.4155,-6.4522,-6.5695,-6.6135,-6.6592,-6.7486,-6.7045,-6.6531,-6.6512,-6.5907,-6.5812,-6.7329,-6.75,-6.7518,-6.7668,-6.7476,-6.7045,-4.2832,-4.2241,-4.1748,-4.1244,-4.0744,-4.1121,-4.1481,-4.1814,-4.285,-4.3376,-4.3591,-4.4454,-4.5152,-4.5635,-4.4711,-4.4689,-4.5334,-4.4536,-4.5165,-4.6875,-4.7091,-4.7906,-4.9197,-4.972,-5.026,-5.0828,-5.1047,-5.1153,-5.1175,-5.0695,-5.026,-4.9824,-4.9246,-4.8634,-4.8022,-4.7698,-4.807,-4.9021,-4.9749,-5.0822,-5.2169,-5.2431,-5.2472,-5.2271,-5.0787,-5.0287,-5.0824,-4.9546,-4.9097,-4.9657,-4.8501,-4.7522,-4.6713,-4.5786,0.0,0.0,0.0,0.0,0.0,0.0,0.0,0.0,0.0,-4.3684,-4.4289,0.0,-4.5007,0.0,-4.7363,-4.8916,-5.0341,-5.0265,0.0,0.0,-5.0822,-5.1463,-5.2553,-5.3269,-5.3982,-5.4802,-5.5585,-5.6321,-5.7055,-5.7756,-5.8577,-5.9452,-5.9222,-5.9233,-5.991,-5.9552,-5.948,-6.0174,-6.0916,-6.1268,-6.0896,-6.1063,-6.1842,-6.3255,-6.351,-6.4074,-6.5603,-6.6609,-6.7268,-6.7451,-6.6991,-6.6568,-6.6457,-6.5956,-6.5635,-6.6086,-6.6128,-6.6109,-6.6303,-6.6072,-6.5812,-4.3682,-4.3091,-4.319,-4.2812,-4.2167,-4.1569,-4.1538,-4.189,-4.2777,-4.3522,-4.4134,-4.4816,-4.5671,-4.6465,-4.5541,-4.5445,-4.5973,-4.5425,-4.592,-4.7114,-4.7439,-4.8412,-4.9934,-5.0447,-5.0903,-5.1405,-5.1843,-5.1824,-5.1435,-5.1525,-5.1367,-5.0979,-5.1016,-5.0714,-5.0128,-4.9353,-4.9531,-5.0659,-5.1349,-5.23,-5.3503,-5.3559,-5.3286,-5.2715,-5.1414,-5.0507,-5.012,-4.8916,-4.8357,-4.8546,-4.7742,-4.7066,-4.6682,-4.6108,-4.5769,0.0,0.0,0.0,0.0,0.0,0.0,0.0,0.0,0.0,0.0,0.0,-4.6644,-4.779,-4.9358,-5.0657,-5.1562,-5.1506,-5.156,-5.2017,-5.2279,-5.2931,-5.4148,-5.4844,-5.5578,-5.6365,-5.6747,-5.709,-5.7565,-5.8263,-5.8851,-5.9292,-5.9175,-5.9203,-5.9672,-5.9455,-5.9454,-6.019,-6.0788,-6.115,-6.1154,-6.1299,-6.1643,-6.2531,-6.2822,-6.3348,-6.4621,-6.5387,-6.5969,-6.6371,-6.5928,-6.543,-6.5393,-6.4853,-6.4451,-6.4549,-6.4598,-6.4905,-6.5764,-6.5601,-6.5276,-4.473,-4.4251,-4.4438,-4.422,-4.3623,-4.2331,-4.2,-4.2448,-4.3099,-4.3998,-4.5068,-4.5364,-4.5971,-4.6685,-4.569,-4.5569,-4.6083,-4.5954,-4.6433,-4.7334,-4.7726,-4.8875,-5.0597,-5.1544,-5.1873,-5.1757,-5.2673,-5.2623,-5.1611,-5.1977,-5.2175,-5.2103,-5.2197,-5.234,-5.2378,-5.0941,-5.0941,-5.2435,-5.3019,-5.3663,-5.4405,-5.4277,-5.38,-5.2895,-5.1857,-5.0579,-4.9045,-4.8064,-4.7231,-4.6524,-4.6527,-4.6587,-4.6568,-4.6522,-4.6564,0.0,-4.6554,0.0,0.0,0.0,0.0,0.0,0.0,0.0,0.0,-4.7792,-4.873,-5.0176,-5.1677,-5.2586,-5.2654,-5.273,-5.3026,-5.3595,-5.3739,-5.433,-5.5563,-5.6275,-5.6969,-5.7758,-5.7645,-5.7521,-5.7649,-5.8288,-5.8659,-5.8659,-5.8609,-5.8746,-5.9056,-5.8952,-5.9222,-6.0233,-6.0341,-6.0575,-6.1299,-6.1625,-6.1733,-6.1967,-6.2257,-6.2619,-6.369,-6.4014,-6.4357,-6.5084,-6.4769,-6.4182,-6.409,-6.3548,-6.3124,-6.3276,-6.3437,-6.4003,-6.518,-6.5342,-6.4967,-4.4534,-4.3885,-4.4096,-4.3683,-4.2909,-4.3075,-4.365,-4.452,-4.478,-4.5603,-4.6801,-4.6963,-4.7425,-4.7997,-4.7003,-4.7001,-4.7712,-4.6916,-4.7104,-4.8124,-4.8292,-4.8765,-4.9501,-4.9701,-4.9922,-5.0082,-5.0922,-5.0804,-4.9922,-5.1412,-5.1763,-5.1122,-5.1775,-5.2484,-5.3119,0.0,0.0,0.0,-5.3257,-5.3696,-5.4416,-5.3766,-5.3219,-5.2695,-5.1119,0.0,-4.9749,-4.8235,-4.7402,-4.7485,-4.6724,0.0,0.0,0.0,0.0,0.0,0.0,0.0,0.0,0.0,0.0,0.0,-5.0802,-5.0546,-4.8732,-4.9823,-5.1028,-5.188,-5.2865,-5.3721,-5.4343,-5.4892,-5.504,-5.4537,-5.4991,-5.5202,-5.4791,-5.5386,-5.6143,-5.6932,-5.6997,-5.7189,-5.7776,-5.8004,-5.8,-5.8026,-5.7905,-5.7856,-5.7953,-5.7915,-5.8105,-5.8794,-5.9223,-5.9474,-6.0271,-6.0435,-6.0726,-6.1233,-6.2102,-6.2811,-6.3596,-6.4448,-6.4937,-6.5224,-6.4655,-6.4053,-6.4053,-6.3591,-6.3165,-6.3213,-6.34,-6.3649,-6.401,-6.3854,-6.359,-4.4895,0.0,-4.5005,-4.4871,0.0,-4.4782,-4.5368,-4.5889,-4.5252,-4.5787,-4.7131,-4.7205,-4.7665,-4.8306,-4.7366,-4.7362,-4.8072,-4.7688,-4.7862,-4.8439,-4.8569,-4.9043,-4.9842,-5.0235,-5.0506,-5.0729,-5.1995,-5.1855,-5.0638,-5.2325,-5.2752,-5.1893,-5.2733,-5.3353,-5.3781,-5.3438,-5.3314,-5.3346,-5.3612,-5.3977,-5.4352,-5.3928,-5.3323,-5.2642,-5.1306,0.0,0.0,0.0,0.0,0.0,0.0,0.0,0.0,-4.7235,0.0,-4.8175,-4.9022,-4.9724,-5.0184,-5.061,-5.0852,-5.0978,-5.1954,-5.2252,-5.1324,-5.2475,-5.3219,-5.3124,-5.387,-5.4522,-5.4904,-5.5257,-5.5291,-5.4917,-5.517,-5.5161,-5.4824,-5.527,-5.5827,-5.6195,-5.6261,-5.651,-5.7299,-5.7363,-5.7501,-5.7802,-5.7875,-5.7774,-5.7755,-5.7613,-5.7777,-5.8578,-5.9138,-5.9502,-5.9798,-5.9976,-6.0263,-6.1065,-6.166,-6.2365,-6.3185,-6.3796,-6.4136,-6.4162,-6.3849,-6.3665,-6.3628,-6.3424,-6.3307,-6.326,-6.3354,-6.3465,-6.3419,-6.3354,-6.326,-4.5258,-4.4899,-4.5917,-4.6117,-4.5768,-4.635,-4.6637,-4.6689,0.0,0.0,0.0,-4.7104,-4.7487,-4.8053,-4.7414,-4.7448,-4.7933,-4.8169,-4.8306,-4.8514,-4.8569,-4.9171,-5.0202,-5.0972,-5.1417,-5.1563,-5.3259,-5.3225,-5.1703,-5.3377,-5.3805,-5.3112,-5.384,-5.4233,-5.4249,-5.4321,-5.4105,-5.355,-5.3981,-5.4268,-5.4324,-5.405,-5.346,-5.2568,-5.1677,-5.0712,-4.9728,-4.9045,-4.8622,-4.8457,-4.7905,-4.7682,-4.783,-4.8346,-4.8788,-4.9082,-5.0302,-5.108,-5.1299,-5.1481,-5.1707,-5.2047,-5.268,-5.3293,-5.3794,-5.4521,-5.4614,-5.3868,-5.4521,-5.5004,-5.5001,-5.5153,-5.5153,-5.5018,-5.4939,-5.484,-5.4644,-5.5041,-5.5325,-5.5509,-5.5459,-5.5684,-5.6518,-5.6602,-5.6822,-5.7428,-5.7565,-5.7868,-5.796,-5.7792,-5.785,-5.847,-5.8981,-5.9529,-5.952,-5.9698,-6.0149,-6.0875,-6.1254,-6.1757,-6.2517,-6.2904,-6.2995,-6.3117,-6.3091,-6.3231,-6.3213,-6.3326,-6.3354,-6.3242,-6.3289,-6.3354,-6.326,-6.3307,-6.3307,-4.4783,-4.4848,-4.535,-4.5563,-4.5684,-4.6186,-4.6495,-4.6666,-4.698,-4.724,-4.7416,-4.7606,-4.772,-4.7801,-4.7632,-4.765,-4.7741,-4.7884,-4.7988,-4.8111,-4.8208,-4.8475,-4.8899,-4.964,-5.0102,-5.0449,-5.2047,-5.2363,-5.1731,-5.3235,-5.3716,-5.3118,-5.3824,-5.4324,-5.4356,-5.4324,-5.4284,-5.424,-5.4334,-5.4356,-5.4356,-5.3508,-5.2864,-5.2418,-5.1658,-5.0692,-4.9648,-4.952,-4.9097,-4.8361,-4.8346,-4.8716,-4.9455,-4.912,-4.9224,-4.9963,-4.9713,-4.9818,-5.0508,-5.1022,-5.2197,-5.4063,-5.463,-5.4577,-5.3868,-5.3905,-5.3924,-5.3831,-5.4521,-5.4986,-5.502,-5.5601,-5.5657,-5.5016,-5.488,-5.4556,-5.3718,-5.37,-5.4054,-5.4662,-5.4632,-5.4957,-5.5815,-5.5919,-5.5904,-5.608,-5.6859,-5.7262,-5.785,-5.795,-5.7941,-5.7956,-5.8113,-5.8252,-5.8472,-5.8875,-5.9553,-6.0389,-6.1086,-6.1728,-6.2535,-6.2867,-6.2947,-6.3007,-6.311,-6.3213,-6.3213,-6.3307,-6.3336,-6.3336,-6.3354,-6.3354,-6.3289,-6.326,-6.3213,-4.4497,-4.4592,-4.5069,-4.5336,-4.5441,-4.5955,-4.6253,-4.6447,-4.6778,-4.7007,-4.7143,-4.7302,-4.7363,-4.7443,-4.7529,-4.7615,-4.7699,-4.7866,-4.797,-4.7992,-4.805,-4.8446,-4.9061,-4.9908,-5.0153,-5.0084,-5.2121,-5.2568,-5.1639,-5.3125,-5.3758,-5.3442,-5.3832,-5.4037,-5.4073,-5.4128,-5.4147,-5.42,-5.4233,-5.4303,-5.439,-5.3772,-5.333,-5.3142,-5.2211,-5.1685,-5.1599,-5.1158,-5.0996,-5.113,-5.0802,-5.0638,-5.0583,-5.0397,-5.0228,-5.0224,-5.0743,-5.1225,-5.1579,-5.2234,-5.3048,-5.406,-5.4232,-5.4105,-5.3676,-5.4164,-5.4258,-5.3868,-5.4167,-5.4352,-5.4351,-5.4687,-5.4761,-5.4368,-5.4232,-5.3942,-5.3557,-5.3815,-5.4147,-5.4478,-5.4533,-5.4907,-5.576,-5.5791,-5.5944,-5.6323,-5.7059,-5.7684,-5.8051,-5.8152,-5.8197,-5.8061,-5.7997,-5.7997,-5.8015,-5.8272,-5.8812,-5.9516,-6.0353,-6.1196,-6.2022,-6.2524,-6.2929,-6.3007,-6.3091,-6.3176,-6.3205,-6.3242,-6.3242,-6.3194,-6.3213,-6.3147,-6.3099,-6.3002,-6.3002,-4.431,-4.4367,-4.4923,-4.5194,-4.5336,-4.5752,-4.6023,-4.6154,-4.6477,-4.6671,-4.6702,-4.6842,-4.6998,-4.7187,-4.7356,-4.7529,-4.7657,-4.7806,-4.7911,-4.7911,-4.7929,-4.8448,-4.935,-5.0259,-5.0548,-5.056,-5.2504,-5.2954,-5.2141,-5.3162,-5.3774,-5.3813,-5.3813,-5.3813,-5.3813,-5.3721,-5.3777,-5.3944,-5.3904,-5.4011,-5.4287,-5.4036,-5.3813,-5.3662,-5.2871,-5.2788,-5.3502,-5.2803,-5.2714,-5.3407,-5.2784,-5.2101,-5.1509,-5.1176,-5.0805,-5.0471,-5.1158,-5.1862,-5.2233,-5.3121,-5.3616,-5.3536,-5.3499,-5.344,-5.3455,-5.4115,-5.4364,-5.3829,-5.3736,-5.3736,-5.3773,-5.3791,-5.3736,-5.3717,-5.36,-5.3607,-5.3764,-5.422,-5.468,-5.4791,-5.493,-5.5212,-5.5734,-5.5895,-5.6166,-5.6871,-5.7553,-5.7939,-5.8142,-5.8305,-5.8349,-5.8242,-5.8133,-5.8042,-5.7978,-5.7997,-5.8335,-5.8919,-5.9858,-6.0719,-6.1545,-6.2377,-6.291,-6.2988,-6.3091,-6.3194,-6.3205,-6.3223,-6.3165,-6.3117,-6.3051,-6.2953,-6.2855,-6.2805,-6.2855,-4.431,-4.4367,-4.4831,-4.5247,-4.5563,-4.577,-4.5922,-4.6127,-4.6926,-4.6871,-4.6407,-4.6655,-4.6884,-4.7037,-4.7142,-4.7356,-4.7511,-4.7554,-4.7597,-4.7741,-4.7741,-4.82,-4.918,-5.0034,-5.0913,-5.1779,-5.2821,-5.3274,-5.3114,-5.3471,-5.3678,-5.3813,-5.3813,-5.3794,-5.3701,-5.307,-5.3107,-5.3775,-5.3163,-5.3236,-5.3963,-5.3888,-5.3736,-5.3539,-5.3425,-5.3736,-5.4294,-5.3649,-5.3285,-5.3425,-5.2724,-5.2243,-5.2003,-5.0766,-5.0287,-5.0841,-4.9788,-4.9566,-5.1019,-5.2592,-5.3378,-5.3127,-5.3254,-5.3235,-5.3085,-5.3243,-5.3429,-5.3481,-5.3524,-5.3524,-5.3521,-5.3536,-5.3518,-5.3545,-5.3502,-5.3732,-5.4209,-5.4448,-5.4809,-5.5619,-5.5625,-5.5779,-5.5858,-5.595,-5.6215,-5.7063,-5.732,-5.7615,-5.8113,-5.8349,-5.8418,-5.8349,-5.8242,-5.8152,-5.8042,-5.7997,-5.8309,-5.8996,-5.9821,-6.0573,-6.1343,-6.2212,-6.2965,-6.288,-6.3044,-6.3147,-6.3154,-6.3202,-6.3165,-6.3051,-6.3002,-6.2953,-6.2855,-6.2823,-6.2823,-4.4754,-4.4514,-4.529,-4.5606,-4.5615,-4.5718,-4.6133,-4.6739,-4.7307,-4.7322,-4.7058,-4.7267,-4.7169,-4.6797,-4.6987,-4.7205,-4.7363,-4.7468,-4.7572,-4.7699,-4.7777,-4.8532,-4.9755,-5.0276,-5.1005,-5.1912,-5.2826,-5.3019,-5.2828,-5.3259,-5.3098,-5.2436,-5.3119,-5.3378,-5.2952,-5.3045,-5.3267,-5.3563,-5.3325,-5.3345,-5.3641,-5.3602,-5.3524,-5.3444,-5.3217,-5.3237,-5.3549,-5.3274,-5.2991,-5.2633,-5.2283,-5.1658,-5.0664,-5.0079,-4.9694,-4.962,-4.9916,-5.0785,-5.233,-5.305,-5.3318,-5.3109,-5.3127,-5.3066,-5.2893,-5.2937,-5.298,-5.3066,-5.318,-5.3304,-5.3359,-5.3378,-5.3418,-5.3462,-5.3422,-5.3525,-5.3773,-5.4675,-5.5288,-5.5214,-5.5981,-5.6356,-5.6205,-5.6446,-5.7014,-5.7716,-5.7901,-5.8005,-5.8363,-5.8505,-5.8548,-5.8443,-5.8375,-5.8305,-5.8242,-5.8106,-5.818,-5.849,-5.948,-6.042,-6.0719,-6.183,-6.2613,-6.2663,-6.2781,-6.2836,-6.2676,-6.286,-6.2972,-6.2904,-6.2904,-6.2855,-6.2823,-6.2755,-6.2705,-4.5291,-4.5038,-4.5678,-4.5853,-4.5684,-4.577,-4.6236,-4.693,-4.7392,-4.7491,-4.7333,-4.7656,-4.7558,-4.7074,-4.7013,-4.7116,-4.7302,-4.745,-4.7554,-4.7717,-4.7819,-4.8756,-5.0216,-5.0519,-5.1151,-5.2102,-5.2871,-5.2918,-5.2504,-5.3046,-5.281,-5.1999,-5.2865,-5.3123,-5.2662,-5.2976,-5.3197,-5.3381,-5.3216,-5.3138,-5.3263,-5.324,-5.3295,-5.3516,-5.323,-5.3334,-5.3906,-5.3504,-5.3072,-5.2674,-5.2394,-5.1623,-5.0266,-5.0196,-4.9887,-4.9242,-5.0401,-5.1709,-5.2931,-5.3106,-5.3151,-5.3042,-5.2999,-5.2868,-5.2779,-5.2735,-5.2717,-5.2735,-5.2831,-5.3005,-5.3151,-5.3175,-5.3235,-5.3318,-5.3258,-5.329,-5.37,-5.4767,-5.5245,-5.5024,-5.592,-5.6713,-5.6598,-5.708,-5.7839,-5.8283,-5.8474,-5.8511,-5.8511,-5.8614,-5.8656,-5.8511,-5.8443,-5.8393,-5.8349,-5.8088,-5.7886,-5.8187,-5.9127,-6.0121,-6.0168,-6.1405,-6.2391,-6.2567,-6.253,-6.2599,-6.2607,-6.2691,-6.2755,-6.2654,-6.2654,-6.2705,-6.2654,-6.2603,-6.2552,-4.5881,-4.5801,-4.5681,-4.5719,-4.5838,-4.5922,-4.6007,-4.6285,-4.7199,-4.7209,-4.6733,-4.7541,-4.8028,-4.8,-4.7329,-4.7098,-4.7338,-4.7468,-4.7554,-4.7699,-4.7861,-4.8756,-5.0271,-5.0537,-5.1407,-5.2804,-5.3072,-5.3133,-5.3059,-5.317,-5.3206,-5.3004,-5.3138,-5.317,-5.2936,-5.2403,-5.2454,-5.3101,-5.2532,-5.2333,-5.2758,-5.2725,-5.3115,-5.3869,-5.3854,-5.4418,-5.5694,-5.4738,-5.3971,-5.4136,-5.3262,-5.2468,-5.1718,-5.1487,-5.1025,-5.0472,-5.1071,-5.158,-5.1828,-5.2448,-5.2787,-5.2644,-5.2725,-5.2735,-5.2572,-5.2581,-5.2581,-5.2526,-5.2572,-5.2645,-5.2806,-5.285,-5.2893,-5.3042,-5.3042,-5.3396,-5.4179,-5.4326,-5.4803,-5.5251,-5.5687,-5.6276,-5.7008,-5.7907,-5.8325,-5.8474,-5.8511,-5.8511,-5.8553,-5.8596,-5.8614,-5.8553,-5.8468,-5.8443,-5.8242,-5.8042,-5.7886,-5.8121,-5.8951,-6.0121,-6.0633,-6.1218,-6.1865,-6.2342,-6.2251,-6.2321,-6.25,-6.2589,-6.2622,-6.2552,-6.2519,-6.2467,-6.2519,-6.2467,-6.2415,-4.721,-4.6962,-4.6082,-4.5821,-4.5922,-4.599,-4.6353,-4.6943,-4.7474,-4.7537,-4.7439,-4.7939,-4.8233,-4.8289,-4.7635,-4.7669,-4.8109,-4.772,-4.7615,-4.7801,-4.7907,-4.8885,-5.041,-5.0662,-5.1545,-5.2944,-5.3146,-5.2931,-5.2546,-5.2949,-5.2399,-5.1408,-5.2472,-5.2747,-5.1885,-5.1903,-5.238,-5.3041,-5.2399,-5.2297,-5.2802,-5.2698,-5.2926,-5.3595,-5.3639,-5.4098,-5.5196,-5.4332,-5.3626,-5.3172,-5.2344,-5.1562,-5.0835,-5.0707,-5.086,-5.1183,-5.1468,-5.1588,-5.1711,-5.2368,-5.2543,-5.1972,-5.2399,-5.2627,-5.2544,-5.2526,-5.2526,-5.2498,-5.2498,-5.2544,-5.2599,-5.2627,-5.2761,-5.285,-5.2868,-5.3021,-5.3394,-5.3877,-5.4195,-5.4078,-5.4833,-5.6055,-5.6983,-5.7944,-5.8492,-5.8614,-5.8572,-5.8572,-5.8614,-5.8614,-5.8572,-5.8596,-5.8553,-5.8468,-5.8425,-5.8133,-5.7977,-5.8267,-5.8866,-5.9525,-6.0111,-6.0671,-6.1311,-6.1513,-6.1586,-6.1729,-6.187,-6.2271,-6.2324,-6.2449,-6.2415,-6.2362,-6.2415,-6.2328,-6.2257,-4.798,-4.7744,-4.7004,-4.6723,-4.6807,-4.6545,-4.6856,-4.748,-4.7696,-4.7811,-4.7992,-4.8436,-4.889,-4.9044,-4.8542,-4.8583,-4.8981,-4.8121,-4.7717,-4.7902,-4.8028,-4.893,-5.0383,-5.0743,-5.1646,-5.3004,-5.3206,-5.2913,-5.2509,-5.2931,-5.2325,-5.1041,-5.2491,-5.2692,-5.1793,-5.1885,-5.2307,-5.2601,-5.2013,-5.1894,-5.24,-5.2316,-5.2617,-5.3219,-5.3417,-5.3814,-5.4485,-5.3899,-5.3381,-5.2878,-5.2118,-5.143,-5.0923,-5.0939,-5.1201,-5.1781,-5.189,-5.1871,-5.1926,-5.2381,-5.2427,-5.1909,-5.2254,-5.2554,-5.2498,-5.2498,-5.2498,-5.2498,-5.2498,-5.2498,-5.2498,-5.2554,-5.2608,-5.2698,-5.2761,-5.2761,-5.2842,-5.3342,-5.3405,-5.3233,-5.4188,-5.5489,-5.6503,-5.7364,-5.803,-5.8474,-5.8443,-5.8486,-5.8529,-5.8548,-5.8486,-5.859,-5.8529,-5.8486,-5.8356,-5.8133,-5.7904,-5.8139,-5.8464,-5.9081,-5.9504,-6.0048,-6.0465,-6.07,-6.0864,-6.1007,-6.1333,-6.1787,-6.2058,-6.2255,-6.2257,-6.2203,-6.2168,-6.2168,-6.2114,-4.8082,-4.8048,-4.833,-4.8293,-4.817,-4.7606,-4.7462,-4.7685,-4.7815,-4.8032,-4.8283,-4.9055,-4.9851,-5.0512,-4.9965,-4.9892,-4.988,-4.8768,-4.8047,-4.7961,-4.8126,-4.9047,-5.0588,-5.0762,-5.1646,-5.3151,-5.3206,-5.3206,-5.3133,-5.317,-5.3023,-5.3041,-5.3004,-5.3078,-5.3078,-5.2307,-5.2032,-5.2013,-5.1408,-5.1096,-5.1362,-5.1445,-5.1982,-5.3026,-5.3158,-5.35,-5.4345,-5.3716,-5.3417,-5.3501,-5.286,-5.248,-5.2317,-5.2281,-5.2408,-5.2399,-5.2426,-5.2444,-5.2389,-5.2472,-5.2508,-5.2263,-5.2444,-5.2498,-5.2498,-5.2498,-5.2498,-5.2498,-5.2498,-5.2498,-5.2498,-5.2498,-5.2526,-5.2608,-5.2608,-5.2654,-5.2779,-5.2824,-5.2824,-5.2933,-5.3715,-5.4535,-5.5367,-5.64,-5.7306,-5.7994,-5.8179,-5.8242,-5.8331,-5.8331,-5.8393,-5.8393,-5.8375,-5.8375,-5.8242,-5.8106,-5.795,-5.7872,-5.8269,-5.8758,-5.8888,-5.9305,-5.974,-6.003,-6.0392,-6.0519,-6.0989,-6.1407,-6.1787,-6.1986,-6.1951,-6.1969,-6.2005,-6.2005,-6.2005,-4.7751,-4.7612,-4.7799,-4.7967,-4.8,-4.7752,-4.7996,-4.854,-4.8724,-4.8804,-4.8996,-4.9399,-5.0189,-5.0823,-5.0496,-5.053,-5.1024,-5.0125,-4.9145,-4.8211,-4.8184,-4.9142,-5.0523,-5.078,-5.1646,-5.2968,-5.3206,-5.3206,-5.3206,-5.3206,-5.2968,-5.2564,-5.2968,-5.2894,-5.2454,-5.2142,-5.2234,-5.2619,-5.1499,-5.1046,-5.1413,-5.1073,-5.1199,-5.1697,-5.1824,-5.225,-5.3044,-5.3321,-5.3466,-5.3544,-5.2886,-5.2498,-5.2498,-5.2498,-5.2498,-5.2498,-5.2498,-5.2208,-5.181,-5.2172,-5.2263,-5.1937,-5.2172,-5.2462,-5.2498,-5.2498,-5.2498,-5.2498,-5.2498,-5.2498,-5.2498,-5.2498,-5.2526,-5.2508,-5.2526,-5.2554,-5.2599,-5.2618,-5.2663,-5.2852,-5.349,-5.4337,-5.5259,-5.6154,-5.6988,-5.7831,-5.7997,-5.7997,-5.8106,-5.8061,-5.8042,-5.8088,-5.8133,-5.826,-5.817,-5.8235,-5.8249,-5.8069,-5.8274,-5.8304,-5.8399,-5.8456,-5.8942,-5.9432,-5.976,-6.0158,-6.0628,-6.1081,-6.1444,-6.1516,-6.1479,-6.1623,-6.1804,-6.1858,-6.1784,-4.7457,-4.7568,-4.8164,-4.8511,-4.8661,-4.8661,-4.8976,-4.9518,-4.9635,-4.9763,-4.999,-5.0484,-5.1066,-5.1556,-5.1328,-5.1333,-5.1547,-5.1182,-5.0287,-4.9149,-4.9102,-4.9933,-5.1187,-5.1573,-5.2142,-5.3023,-5.3206,-5.3206,-5.3206,-5.3188,-5.2949,-5.2637,-5.2968,-5.2986,-5.2435,-5.2142,-5.2289,-5.2509,-5.1463,-5.09,-5.0988,-5.0714,-5.0569,-5.0751,-5.1013,-5.1429,-5.1989,-5.2683,-5.3081,-5.3085,-5.2733,-5.2516,-5.2498,-5.2498,-5.2498,-5.2498,-5.2462,-5.2263,-5.1846,-5.2226,-5.2317,-5.1937,-5.2208,-5.248,-5.2498,-5.2452,-5.2452,-5.2498,-5.2452,-5.247,-5.2498,-5.2498,-5.2498,-5.2498,-5.2498,-5.2498,-5.2498,-5.2498,-5.2725,-5.3099,-5.3572,-5.4381,-5.5403,-5.5996,-5.6773,-5.7543,-5.7697,-5.7697,-5.7792,-5.781,-5.7792,-5.7839,-5.7886,-5.7969,-5.807,-5.826,-5.8574,-5.8445,-5.8383,-5.8105,-5.7949,-5.7876,-5.8094,-5.88,-5.9271,-5.9653,-6.0087,-6.072,-6.1154,-6.1097,-6.104,-6.1456,-6.169,-6.1615,-6.1559,-4.721,-4.7721,-4.9164,-4.9725,-4.988,-4.9912,-5.0169,-5.0566,-5.0597,-5.0743,-5.1095,-5.1694,-5.226,-5.2472,-5.239,-5.217,-5.1846,-5.1859,-5.1669,-5.1064,-5.0963,-5.1334,-5.1867,-5.2564,-5.3004,-5.317,-5.3206,-5.3188,-5.3206,-5.3206,-5.3206,-5.3133,-5.3151,-5.3206,-5.2986,-5.2417,-5.2179,-5.2179,-5.1389,-5.0863,-5.0636,-5.0453,-5.0368,-5.0198,-5.0796,-5.1184,-5.1365,-5.2033,-5.2488,-5.2581,-5.2544,-5.248,-5.2498,-5.2498,-5.2498,-5.2498,-5.2498,-5.248,-5.2462,-5.2444,-5.2462,-5.2408,-5.2426,-5.2498,-5.2498,-5.2405,-5.2405,-5.2452,-5.2405,-5.2358,-5.2452,-5.2498,-5.2498,-5.2498,-5.2498,-5.2498,-5.2498,-5.2552,-5.2915,-5.3476,-5.3784,-5.4291,-5.5716,-5.5988,-5.6472,-5.7133,-5.7406,-5.7486,-5.7534,-5.7553,-5.7534,-5.7583,-5.7649,-5.7715,-5.7818,-5.864,-5.8874,-5.8605,-5.8595,-5.851,-5.7861,-5.7659,-5.746,-5.8148,-5.8784,-5.9166,-5.96,-6.0178,-6.0555,-6.057,-6.0857,-6.1361,-6.1501,-6.1444,-6.1444,-4.6946,-4.6984,-4.8098,-4.8989,-4.9615,-4.9764,-5.0528,-5.1592,-5.1646,-5.1724,-5.1993,-5.2155,-5.2444,-5.269,-5.2698,-5.2722,-5.2676,-5.2755,-5.3164,-5.3292,-5.2779,-5.2307,-5.2257,-5.2867,-5.3254,-5.3188,-5.3254,-5.3254,-5.3206,-5.3206,-5.3206,-5.3206,-5.3206,-5.3206,-5.3133,-5.2968,-5.2913,-5.2784,-5.2087,-5.1522,-5.1207,-5.0793,-5.0375,-5.0206,-5.0895,-5.1294,-5.1465,-5.2118,-5.249,-5.2526,-5.2581,-5.2554,-5.248,-5.2498,-5.2498,-5.2498,-5.2498,-5.2498,-5.2498,-5.2498,-5.2498,-5.2498,-5.2498,-5.2498,-5.2498,-5.2452,-5.2405,-5.2405,-5.2405,-5.2405,-5.2387,-5.2452,-5.2498,-5.2498,-5.2498,-5.2452,-5.2477,-5.2864,-5.3297,-5.3532,-5.402,-5.4845,-5.5721,-5.612,-5.6405,-5.7039,-5.7307,-5.7289,-5.7356,-5.7388,-5.7388,-5.7406,-5.7406,-5.7455,-5.7782,-5.8773,-5.9124,-5.8815,-5.8911,-5.9311,-5.8533,-5.7753,-5.7532,-5.755,-5.8244,-5.8681,-5.9024,-5.942,-5.9669,-6.0006,-6.0701,-6.1239,-6.135,-6.131,-6.1386,-4.685,-4.7346,-4.8253,-4.9162,-5.0103,-5.0491,-5.1304,-5.209,-5.2246,-5.234,-5.2361,-5.2072,-5.2127,-5.2375,-5.2295,-5.2444,-5.2687,-5.3059,-5.3445,-5.372,-5.3353,-5.2913,-5.2776,-5.3111,-5.3336,-5.3314,-5.3318,-5.3295,-5.323,-5.3188,-5.3206,-5.3206,-5.3206,-5.3206,-5.3206,-5.3206,-5.3206,-5.3115,-5.2711,-5.2236,-5.1627,-5.125,-5.0684,-5.0431,-5.0921,-5.1465,-5.1883,-5.2345,-5.2563,-5.2508,-5.2536,-5.2563,-5.2544,-5.2526,-5.2526,-5.2498,-5.2498,-5.2498,-5.2498,-5.2498,-5.2498,-5.2498,-5.2498,-5.2498,-5.2498,-5.2452,-5.2358,-5.2405,-5.2405,-5.2358,-5.2311,-5.2358,-5.2452,-5.2498,-5.2498,-5.2452,-5.2405,-5.2748,-5.3381,-5.3942,-5.4502,-5.5207,-5.6301,-5.6464,-5.6699,-5.7043,-5.7289,-5.7239,-5.7239,-5.7239,-5.7239,-5.7307,-5.7257,-5.7356,-5.7556,-5.8362,-5.8929,-5.8678,-5.888,-5.9384,-5.8826,-5.7957,-5.7686,-5.7544,-5.7888,-5.8142,-5.834,-5.8663,-5.9217,-5.9713,-6.0492,-6.1027,-6.1158,-6.1252,-6.1328,-4.6835,-4.8104,-4.8883,-4.9829,-5.0753,-5.1556,-5.1795,-5.2177,-5.2072,-5.2127,-5.2073,-5.1609,-5.1461,-5.1639,-5.1536,-5.1676,-5.2068,-5.2692,-5.3059,-5.3298,-5.3335,-5.3322,-5.3226,-5.3285,-5.3359,-5.3418,-5.3359,-5.347,-5.3442,-5.3359,-5.328,-5.3353,-5.3335,-5.3206,-5.3206,-5.3206,-5.3206,-5.3206,-5.3151,-5.2657,-5.2028,-5.1748,-5.1315,-5.0587,-5.0904,-5.171,-5.2218,-5.2536,-5.2536,-5.248,-5.2581,-5.2581,-5.2526,-5.2581,-5.2536,-5.2526,-5.2498,-5.2498,-5.2498,-5.2498,-5.2498,-5.2498,-5.2498,-5.2498,-5.2498,-5.2405,-5.2387,-5.2405,-5.2358,-5.2311,-5.2311,-5.2311,-5.2358,-5.2452,-5.2498,-5.2498,-5.2516,-5.257,-5.3222,-5.4635,-5.4858,-5.574,-5.6645,-5.7188,-5.7188,-5.7098,-5.7289,-5.7289,-5.7289,-5.7289,-5.7289,-5.7289,-5.7257,-5.7257,-5.7496,-5.788,-5.8282,-5.8465,-5.879,-5.9075,-5.877,-5.8179,-5.7909,-5.7819,-5.7693,-5.755,-5.7496,-5.7943,-5.8673,-5.9509,-6.038,-6.0826,-6.1093,-6.1152,-6.1211,-4.6726,-4.7209,-4.8362,-4.9316,-5.0091,-5.0435,-5.0914,-5.1438,-5.0957,-5.082,-5.0719,-5.066,-5.0709,-5.0751,-5.0908,-5.1151,-5.1839,-5.2265,-5.2564,-5.3261,-5.3904,-5.3829,-5.3566,-5.344,-5.34,-5.344,-5.3558,-5.3832,-5.4022,-5.3778,-5.3603,-5.4032,-5.3592,-5.3225,-5.3261,-5.3243,-5.3206,-5.3206,-5.3206,-5.2987,-5.2612,-5.2459,-5.1999,-5.1167,-5.1249,-5.1719,-5.2317,-5.2526,-5.2498,-5.2434,-5.2508,-5.2518,-5.248,-5.2526,-5.2526,-5.2498,-5.2498,-5.2498,-5.2498,-5.2498,-5.2498,-5.2498,-5.2498,-5.2498,-5.2498,-5.2452,-5.2405,-5.2358,-5.2311,-5.2311,-5.2264,-5.2311,-5.2358,-5.2405,-5.2405,-5.2405,-5.2542,-5.2929,-5.3586,-5.4453,-5.5207,-5.602,-5.7007,-5.708,-5.7116,-5.722,-5.7289,-5.7338,-5.7388,-5.7388,-5.7388,-5.7338,-5.7289,-5.7307,-5.7402,-5.7575,-5.778,-5.8053,-5.8392,-5.8657,-5.8391,-5.8231,-5.7909,-5.755,-5.7245,-5.7137,-5.7136,-5.7815,-5.8649,-5.9505,-6.0255,-6.0701,-6.1004,-6.104,-6.1093,-4.7148,-4.7751,-4.8496,-4.926,-4.9937,-5.0134,-5.0395,-5.0667,-5.0489,-5.0314,-5.0307,-5.0094,-5.0172,-5.0561,-5.0639,-5.1064,-5.1839,-5.2375,-5.2826,-5.3248,-5.3695,-5.3705,-5.3629,-5.3539,-5.3558,-5.3576,-5.4063,-5.443,-5.4533,-5.4598,-5.4778,-5.4926,-5.4228,-5.3891,-5.3647,-5.3408,-5.3225,-5.3206,-5.3206,-5.3078,-5.2868,-5.2787,-5.2581,-5.1982,-5.1864,-5.2118,-5.2444,-5.234,-5.2311,-5.2311,-5.2275,-5.2304,-5.2434,-5.2508,-5.2526,-5.2498,-5.2498,-5.2498,-5.2498,-5.2498,-5.2498,-5.2498,-5.2452,-5.2405,-5.2405,-5.2405,-5.234,-5.2246,-5.2246,-5.2264,-5.2216,-5.2168,-5.2216,-5.2376,-5.2358,-5.2358,-5.2524,-5.285,-5.3345,-5.4032,-5.4514,-5.5462,-5.6182,-5.664,-5.712,-5.7188,-5.7437,-5.7504,-5.7553,-5.7553,-5.7486,-5.7437,-5.7338,-5.7307,-5.7329,-5.7358,-5.7298,-5.7496,-5.7707,-5.7938,-5.7993,-5.7906,-5.78,-5.7531,-5.7334,-5.719,-5.7277,-5.8006,-5.8488,-5.9077,-5.9719,-6.0433,-6.0897,-6.0968,-6.104,-4.7599,-4.854,-4.8822,-4.9361,-4.9923,-5.0028,-4.9992,-5.0071,-5.0174,-5.0185,-5.0305,-4.9742,-5.0163,-5.0593,-5.0643,-5.1142,-5.2013,-5.2808,-5.3235,-5.3272,-5.335,-5.3451,-5.3499,-5.3558,-5.3785,-5.4016,-5.4531,-5.4859,-5.5166,-5.5531,-5.5644,-5.573,-5.4914,-5.4393,-5.4161,-5.3628,-5.3206,-5.3206,-5.3206,-5.306,-5.2868,-5.2806,-5.2635,-5.2454,-5.2389,-5.2389,-5.2434,-5.2293,-5.215,-5.2198,-5.2023,-5.2023,-5.2198,-5.2397,-5.2536,-5.2434,-5.2387,-5.2405,-5.2452,-5.2452,-5.2452,-5.2498,-5.2405,-5.2376,-5.2358,-5.2376,-5.2293,-5.2246,-5.2198,-5.2198,-5.2102,-5.1987,-5.2054,-5.2168,-5.2264,-5.2311,-5.2452,-5.2452,-5.2922,-5.3603,-5.4037,-5.4719,-5.5577,-5.6176,-5.6739,-5.7188,-5.7437,-5.7649,-5.7649,-5.7715,-5.7601,-5.7553,-5.7486,-5.7239,-5.7243,-5.7228,-5.7153,-5.7047,-5.715,-5.7382,-5.7578,-5.7688,-5.769,-5.767,-5.7527,-5.7239,-5.7188,-5.7507,-5.8006,-5.856,-5.9148,-5.9826,-6.0344,-6.0826,-6.0933,-4.7453,-4.7807,-4.8756,-4.9245,-4.9354,-4.9354,-4.9354,-4.9414,-4.9533,-4.9515,-4.9528,-5.0104,-5.0378,-5.0501,-5.0602,-5.1142,-5.2032,-5.2808,-5.3254,-5.3254,-5.3277,-5.3359,-5.3499,-5.3477,-5.3813,-5.4544,-5.4877,-5.5092,-5.5618,-5.581,-5.6153,-5.6187,-5.5214,-5.4534,-5.4363,-5.3665,-5.3316,-5.3335,-5.3261,-5.306,-5.285,-5.2761,-5.269,-5.2498,-5.2498,-5.2452,-5.234,-5.2264,-5.2102,-5.184,-5.1858,-5.1858,-5.1907,-5.2036,-5.2114,-5.218,-5.2198,-5.2246,-5.2293,-5.2358,-5.2405,-5.2452,-5.2452,-5.2452,-5.2452,-5.247,-5.2311,-5.2246,-5.2162,-5.2078,-5.1956,-5.1889,-5.1969,-5.2036,-5.2054,-5.2102,-5.2246,-5.2412,-5.2748,-5.3548,-5.3795,-5.3987,-5.4844,-5.56,-5.6168,-5.6755,-5.7204,-5.7562,-5.7792,-5.781,-5.7763,-5.7697,-5.7649,-5.7338,-5.7105,-5.7072,-5.7007,-5.6707,-5.6795,-5.6989,-5.7221,-5.7507,-5.7578,-5.74,-5.7204,-5.6918,-5.6954,-5.7186,-5.7739,-5.8452,-5.8863,-5.922,-5.9862,-6.0451,-6.0611,-4.7578,-4.7824,-4.847,-4.8696,-4.8715,-4.8696,-4.8736,-4.8809,-4.9193,-4.9413,-4.9691,-5.0318,-5.0662,-5.0662,-5.0662,-5.1202,-5.205,-5.2844,-5.3217,-5.3254,-5.3277,-5.3359,-5.3499,-5.34,-5.3603,-5.4109,-5.4455,-5.5323,-5.6313,-5.6,-5.6448,-5.6956,-5.5919,-5.5312,-5.5262,-5.4491,-5.3922,-5.3757,-5.3402,-5.3078,-5.2806,-5.2735,-5.2572,-5.2544,-5.2452,-5.2358,-5.2264,-5.2054,-5.1956,-5.1808,-5.1658,-5.1607,-5.1607,-5.1675,-5.179,-5.2036,-5.2084,-5.2102,-5.2198,-5.2264,-5.2358,-5.2358,-5.2405,-5.2405,-5.2405,-5.2311,-5.2246,-5.2102,-5.1987,-5.1853,-5.179,-5.1772,-5.1858,-5.1961,-5.1943,-5.2023,-5.2234,-5.23,-5.2882,-5.3501,-5.3414,-5.3653,-5.4227,-5.4929,-5.5541,-5.6218,-5.6831,-5.7298,-5.7711,-5.7886,-5.7857,-5.781,-5.7697,-5.7553,-5.7239,-5.7105,-5.6951,-5.6689,-5.6473,-5.6668,-5.6793,-5.7025,-5.7007,-5.6865,-5.6668,-5.6686,-5.6882,-5.7168,-5.7774,-5.8256,-5.8595,-5.897,-5.9577,-6.0023,-6.0076,-4.801,-4.8172,-4.8364,-4.842,-4.8363,-4.8382,-4.8401,-4.8566,-4.9184,-4.9515,-4.9701,-5.0523,-5.1037,-5.1055,-5.1316,-5.172,-5.2289,-5.2968,-5.3217,-5.3235,-5.3277,-5.3359,-5.344,-5.3437,-5.3543,-5.393,-5.4154,-5.5178,-5.592,-5.5957,-5.6694,-5.6974,-5.6349,-5.6147,-5.6216,-5.528,-5.4766,-5.4216,-5.383,-5.328,-5.286,-5.2599,-5.2498,-5.2452,-5.2358,-5.2264,-5.2168,-5.1956,-5.1808,-5.1708,-5.1574,-5.142,-5.142,-5.1492,-5.1647,-5.1893,-5.1938,-5.2005,-5.2102,-5.215,-5.2216,-5.2246,-5.2264,-5.2311,-5.2264,-5.2198,-5.2102,-5.1956,-5.1808,-5.174,-5.169,-5.169,-5.1776,-5.1812,-5.1911,-5.2028,-5.239,-5.2684,-5.3075,-5.3345,-5.3106,-5.3435,-5.4127,-5.4191,-5.482,-5.5524,-5.6154,-5.6877,-5.7308,-5.7859,-5.7932,-5.7857,-5.7763,-5.7649,-5.7455,-5.7206,-5.7054,-5.6794,-5.6546,-5.6508,-5.649,-5.6508,-5.6508,-5.665,-5.6722,-5.6793,-5.6972,-5.7025,-5.7239,-5.7614,-5.8149,-5.8524,-5.8792,-5.9041,-5.9184,-4.8641,-4.8804,-4.889,-4.8906,-4.889,-4.8768,-4.8732,-4.8807,-4.9398,-4.9575,-4.9646,-5.0996,-5.1632,-5.176,-5.243,-5.2839,-5.2986,-5.3143,-5.3254,-5.323,-5.3295,-5.3318,-5.3318,-5.3272,-5.3584,-5.3818,-5.4099,-5.4374,-5.4858,-5.5306,-5.6059,-5.6602,-5.6271,-5.6033,-5.6722,-5.5915,-5.5097,-5.4564,-5.4344,-5.3792,-5.2988,-5.2626,-5.2524,-5.2376,-5.2264,-5.215,-5.2005,-5.1858,-5.1808,-5.1607,-5.1523,-5.1402,-5.1439,-5.1971,-5.1829,-5.1633,-5.1505,-5.1675,-5.1947,-5.2082,-5.2256,-5.2354,-5.2306,-5.2282,-5.2216,-5.215,-5.2036,-5.2102,-5.1858,-5.183,-5.1815,-5.1812,-5.1744,-5.1955,-5.2133,-5.2516,-5.2916,-5.3181,-5.3504,-5.3994,-5.4032,-5.3911,-5.4234,-5.408,-5.41,-5.4757,-5.5496,-5.631,-5.6997,-5.7592,-5.7886,-5.7792,-5.7745,-5.7649,-5.7553,-5.7356,-5.7123,-5.6865,-5.6671,-5.6473,-5.6454,-5.6472,-5.6543,-5.6668,-5.6793,-5.6865,-5.6936,-5.69,-5.6722,-5.7061,-5.7721,-5.7792,-5.7685,-5.7971,-5.8524,-4.9141,-4.9042,-4.9127,-4.916,-4.916,-4.9079,-4.9012,-4.9164,-4.9602,-4.9861,-5.0081,-5.1327,-5.1977,-5.2022,-5.2435,-5.2495,-5.2642,-5.3074,-5.3235,-5.3206,-5.323,-5.3212,-5.3127,-5.3103,-5.336,-5.3463,-5.3467,-5.3368,-5.3785,-5.447,-5.533,-5.6292,-5.5953,-5.6154,-5.7005,-5.6428,-5.5953,-5.5514,-5.503,-5.4255,-5.3471,-5.3096,-5.2792,-5.2252,-5.212,-5.2023,-5.1943,-5.1808,-5.1758,-5.1589,-5.1556,-5.1772,-5.1988,-5.2272,-5.2253,-5.2714,-5.259,-5.2484,-5.2269,-5.2317,-5.2648,-5.2802,-5.2628,-5.2168,-5.2054,-5.1956,-5.1889,-5.184,-5.1822,-5.1969,-5.2344,-5.2534,-5.2856,-5.2949,-5.2898,-5.3286,-5.3692,-5.3713,-5.4033,-5.4493,-5.4932,-5.4814,-5.4762,-5.4796,-5.4825,-5.5257,-5.5879,-5.6463,-5.7058,-5.7514,-5.7679,-5.7697,-5.7697,-5.7631,-5.7553,-5.7356,-5.721,-5.7023,-5.6814,-5.6671,-5.6616,-5.6597,-5.69,-5.7061,-5.7257,-5.7221,-5.7025,-5.6811,-5.6668,-5.6989,-5.7382,-5.7364,-5.7418,-5.8113,-5.8702,-4.9415,-4.9252,-4.9365,-4.9434,-4.9415,-4.9308,-4.9244,-4.9305,-4.9557,-4.9712,-5.0028,-5.0894,-5.1507,-5.1807,-5.1963,-5.2151,-5.2087,-5.2886,-5.3138,-5.3188,-5.3164,-5.3103,-5.3042,-5.2999,-5.2912,-5.2824,-5.3261,-5.3089,-5.3081,-5.3672,-5.4793,-5.6015,-5.5597,-5.6218,-5.7065,-5.7018,-5.6562,-5.6161,-5.528,-5.444,-5.3759,-5.346,-5.2913,-5.2354,-5.1974,-5.1947,-5.204,-5.1744,-5.1658,-5.1876,-5.1809,-5.1952,-5.2059,-5.2395,-5.2551,-5.2976,-5.3115,-5.3379,-5.3103,-5.3069,-5.3371,-5.3315,-5.3008,-5.2283,-5.218,-5.1937,-5.1886,-5.2097,-5.2165,-5.2559,-5.3092,-5.3441,-5.3656,-5.391,-5.4092,-5.4376,-5.4607,-5.454,-5.4791,-5.55,-5.5818,-5.5797,-5.5749,-5.5716,-5.5759,-5.5939,-5.6332,-5.6751,-5.7115,-5.7546,-5.7534,-5.7583,-5.7601,-5.7619,-5.7577,-5.7429,-5.7264,-5.7345,-5.7137,-5.7155,-5.7314,-5.7453,-5.7774,-5.7864,-5.7864,-5.7884,-5.7848,-5.7259,-5.665,-5.6793,-5.6954,-5.7096,-5.7382,-5.8078,-5.8503,-4.9495,-4.9574,-4.9692,-4.975,-4.9702,-4.9476,-4.9384,-4.9384,-4.922,-4.9145,-4.9282,-4.9713,-5.048,-5.1008,-5.1632,-5.1889,-5.1995,-5.2839,-5.2913,-5.2944,-5.3103,-5.2871,-5.2809,-5.2758,-5.2824,-5.287,-5.309,-5.2999,-5.2834,-5.3142,-5.4189,-5.5075,-5.5002,-5.6142,-5.6933,-5.7037,-5.68,-5.6334,-5.5504,-5.4659,-5.4062,-5.3658,-5.3104,-5.239,-5.2064,-5.213,-5.2481,-5.209,-5.1951,-5.2378,-5.2272,-5.2272,-5.2342,-5.2605,-5.2833,-5.306,-5.3672,-5.3954,-5.387,-5.3667,-5.3564,-5.3406,-5.3123,-5.2765,-5.2709,-5.2101,-5.2118,-5.2707,-5.2863,-5.3325,-5.3844,-5.4269,-5.4511,-5.4802,-5.5056,-5.5165,-5.5309,-5.5293,-5.565,-5.64,-5.6595,-5.6361,-5.641,-5.6328,-5.6169,-5.6267,-5.6425,-5.6824,-5.7176,-5.7486,-5.7437,-5.7486,-5.7534,-5.754,-5.7569,-5.7633,-5.7861,-5.8121,-5.8143,-5.8231,-5.8407,-5.8545,-5.8649,-5.8649,-5.8649,-5.8652,-5.8473,-5.7792,-5.7204,-5.6668,-5.6597,-5.7007,-5.7311,-5.7828,-5.8021,-4.9321,-4.9434,-4.9525,-4.9644,-4.9807,-4.9663,-4.9585,-4.9555,-4.9308,-4.9355,-4.9538,-4.9751,-5.0191,-5.0796,-5.1088,-5.1305,-5.1279,-5.1562,-5.1738,-5.182,-5.1938,-5.2145,-5.2204,-5.2498,-5.269,-5.2672,-5.2806,-5.2814,-5.2513,-5.269,-5.3177,-5.3761,-5.4157,-5.5088,-5.5889,-5.6504,-5.6486,-5.6635,-5.6191,-5.5635,-5.5022,-5.472,-5.4047,-5.283,-5.3283,-5.2973,-5.2766,-5.2891,-5.2981,-5.2962,-5.2714,-5.2749,-5.2854,-5.3011,-5.3115,-5.345,-5.4165,-5.4301,-5.4482,-5.4243,-5.4038,-5.3686,-5.3706,-5.3653,-5.3371,-5.2963,-5.3034,-5.3406,-5.3685,-5.4128,-5.4791,-5.5194,-5.5523,-5.5836,-5.6019,-5.6023,-5.5972,-5.592,-5.5991,-5.6616,-5.6706,-5.6616,-5.6739,-5.6894,-5.6689,-5.6604,-5.6731,-5.6944,-5.7284,-5.7533,-5.7538,-5.7447,-5.7479,-5.7642,-5.7688,-5.8109,-5.8531,-5.8807,-5.906,-5.9201,-5.9284,-5.9384,-5.9452,-5.9452,-5.9452,-5.9416,-5.9113,-5.8417,-5.7792,-5.7204,-5.7079,-5.7239,-5.7489,-5.7792,-5.8021,-4.9113,-4.9179,-4.9257,-4.9446,-4.9644,-4.9615,-4.9555,-4.9525,-4.9352,-4.9403,-4.9684,-4.9583,-4.9732,-5.0174,-5.0466,-5.0499,-5.0588,-5.0769,-5.0945,-5.1229,-5.156,-5.1704,-5.1981,-5.2191,-5.2462,-5.2405,-5.2311,-5.2198,-5.2168,-5.2102,-5.2592,-5.3055,-5.3207,-5.3981,-5.5062,-5.5502,-5.5933,-5.6597,-5.6635,-5.6346,-5.568,-5.5379,-5.4894,-5.3626,-5.3844,-5.3903,-5.3549,-5.3638,-5.3708,-5.3725,-5.3635,-5.3598,-5.3722,-5.3755,-5.3755,-5.4211,-5.4635,-5.4539,-5.4807,-5.4785,-5.4609,-5.4419,-5.4317,-5.4211,-5.4058,-5.3776,-5.3655,-5.4135,-5.449,-5.4932,-5.5615,-5.6037,-5.6277,-5.6482,-5.659,-5.6629,-5.6473,-5.6403,-5.6492,-5.6671,-5.6689,-5.676,-5.7149,-5.7271,-5.7268,-5.7206,-5.7424,-5.7532,-5.771,-5.7887,-5.78,-5.7655,-5.7456,-5.7674,-5.7876,-5.8528,-5.911,-5.9294,-5.9582,-6.0011,-6.0128,-6.0192,-6.0219,-6.0255,-6.0255,-6.0255,-6.0005,-5.9594,-5.8702,-5.7721,-5.7632,-5.7543,-5.8075,-5.8413,-5.8734,-4.8822,-4.8822,-4.8959,-4.9141,-4.9384,-4.9321,-4.9321,-4.934,-4.9244,-4.9116,-4.902,-4.8933,-4.8827,-4.8993,-4.9507,-4.9632,-4.974,-5.0153,-5.0584,-5.0921,-5.1158,-5.1736,-5.21,-5.2216,-5.234,-5.2246,-5.215,-5.2054,-5.1956,-5.1907,-5.2323,-5.2609,-5.2673,-5.3082,-5.4493,-5.5093,-5.5829,-5.6634,-5.6528,-5.6152,-5.5845,-5.5579,-5.5007,-5.4452,-5.44,-5.4616,-5.4456,-5.4349,-5.449,-5.4646,-5.4467,-5.427,-5.3967,-5.4252,-5.4394,-5.4564,-5.4659,-5.4959,-5.5596,-5.5525,-5.5308,-5.515,-5.5001,-5.4741,-5.455,-5.429,-5.4259,-5.4917,-5.5187,-5.5634,-5.6206,-5.6652,-5.6825,-5.6876,-5.6948,-5.6917,-5.6777,-5.6724,-5.6707,-5.6742,-5.6794,-5.6953,-5.7379,-5.7713,-5.7735,-5.7858,-5.8079,-5.8223,-5.8365,-5.8383,-5.8383,-5.8311,-5.8112,-5.8347,-5.8728,-5.9216,-5.9653,-5.9835,-6.0159,-6.0606,-6.0795,-6.0782,-6.0885,-6.0968,-6.0879,-6.0683,-6.0826,-6.0915,-5.9809,-5.872,-5.7971,-5.7917,-5.852,-5.8979,-5.9269,-4.8697,-4.8678,-4.8695,-4.8802,-4.8906,-4.9174,-4.9289,-4.9257,-4.9164,-4.9012,-4.8837,-4.875,-4.8642,-4.8679,-4.862,-4.8763,-4.8779,-4.8681,-4.9163,-4.9349,-5.0148,-5.0524,-5.1031,-5.1788,-5.2162,-5.215,-5.2036,-5.1956,-5.1925,-5.1858,-5.1879,-5.2026,-5.2502,-5.3268,-5.402,-5.4613,-5.515,-5.6349,-5.6528,-5.6331,-5.6364,-5.6116,-5.5758,-5.5059,-5.5383,-5.5401,-5.5095,-5.4953,-5.5289,-5.5319,-5.5107,-5.4785,-5.4553,-5.4803,-5.4363,-5.4467,-5.4504,-5.4077,-5.452,-5.4673,-5.5213,-5.5389,-5.5517,-5.5402,-5.5402,-5.5482,-5.5611,-5.5684,-5.5865,-5.6241,-5.651,-5.6706,-5.6793,-5.6809,-5.6845,-5.6865,-5.6795,-5.6777,-5.6794,-5.6847,-5.6899,-5.7349,-5.7831,-5.8477,-5.8621,-5.8963,-5.9237,-5.9146,-5.9198,-5.9216,-5.9216,-5.9198,-5.9144,-5.9325,-5.9597,-5.9887,-6.0339,-6.0684,-6.0917,-6.1199,-6.1315,-6.127,-6.1135,-6.1022,-6.1058,-6.1093,-6.1058,-6.0933,-6.0558,-5.9809,-5.9059,-5.856,-5.8913,-5.9358,-5.9643,-4.8476,-4.8476,-4.8532,-4.8587,-4.8605,-4.8925,-4.9094,-4.9113,-4.9049,-4.8909,-4.8748,-4.8678,-4.8642,-4.8513,-4.8361,-4.8226,-4.8208,-4.8068,-4.8293,-4.8374,-4.9173,-5.0009,-5.0697,-5.1272,-5.182,-5.2006,-5.2054,-5.1974,-5.2023,-5.1889,-5.1875,-5.2068,-5.2476,-5.3014,-5.3698,-5.4363,-5.524,-5.626,-5.6474,-5.6492,-5.6528,-5.6492,-5.6241,-5.5973,-5.6009,-5.6062,-5.556,-5.5666,-5.6093,-5.5662,-5.5378,-5.5127,-5.5127,-5.4896,-5.4295,-5.433,-5.4454,-5.4098,-5.4435,-5.4667,-5.5284,-5.5791,-5.5975,-5.5993,-5.6049,-5.6019,-5.6111,-5.6274,-5.6455,-5.6492,-5.6528,-5.6635,-5.6724,-5.674,-5.6758,-5.6777,-5.6724,-5.6707,-5.6742,-5.6847,-5.7025,-5.76,-5.8392,-5.9077,-5.9653,-6.0051,-6.0484,-6.0267,-6.0031,-5.9959,-5.9905,-5.9887,-5.9705,-5.9615,-5.9887,-6.0339,-6.0846,-6.1498,-6.1623,-6.1615,-6.1444,-6.1328,-6.1211,-6.1093,-6.1093,-6.1075,-6.0986,-6.0826,-6.0683,-6.0522,-6.0183,-5.9791,-5.9577,-5.9791,-6.0165,-4.8324,-4.8324,-4.8475,-4.8513,-4.8494,-4.8605,-4.8697,-4.8787,-4.8874,-4.8785,-4.8587,-4.8697,-4.8642,-4.8457,-4.8324,-4.8247,-4.8151,-4.7947,-4.8229,-4.8617,-4.8905,-4.9828,-5.0579,-5.112,-5.1622,-5.2018,-5.2132,-5.1982,-5.2048,-5.1802,-5.182,-5.2174,-5.2569,-5.3095,-5.3835,-5.4825,-5.5739,-5.6206,-5.6474,-5.651,-5.6653,-5.6492,-5.6366,-5.6277,-5.633,-5.6044,-5.5793,-5.5954,-5.5829,-5.5544,-5.5205,-5.5097,-5.508,-5.5097,-5.4617,-5.4314,-5.4634,-5.4652,-5.4581,-5.467,-5.5311,-5.5788,-5.6144,-5.6179,-5.6253,-5.629,-5.6346,-5.6346,-5.6455,-5.6383,-5.6437,-5.6492,-5.6582,-5.6617,-5.6671,-5.6653,-5.6653,-5.6653,-5.6689,-5.6795,-5.7027,-5.7655,-5.9039,-5.9852,-6.0232,-6.0937,-6.1263,-6.1154,-6.0883,-6.0538,-6.0502,-6.043,-6.0176,-5.9742,-6.005,-6.0575,-6.0846,-6.1335,-6.1568,-6.1633,-6.1519,-6.1386,-6.1288,-6.1152,-6.1093,-6.1058,-6.1022,-6.1022,-6.1022,-6.0879,-6.0683,-6.0647,-6.029,-6.0487,-6.079,-4.8324,-4.8324,-4.8344,-4.8363,-4.8363,-4.8476,-4.8569,-4.8606,-4.8642,-4.8624,-4.8532,-4.8476,-4.8438,-4.8363,-4.8126,-4.8006,-4.7866,-4.7699,-4.7747,-4.8048,-4.8482,-4.936,-5.0073,-5.0741,-5.1387,-5.1862,-5.1994,-5.1796,-5.1383,-5.1275,-5.182,-5.2198,-5.3021,-5.3657,-5.4431,-5.5692,-5.5859,-5.6113,-5.6259,-5.6599,-5.6653,-5.6564,-5.6437,-5.6383,-5.6383,-5.6133,-5.6097,-5.6169,-5.5955,-5.5384,-5.5241,-5.5009,-5.4331,-5.4759,-5.4813,-5.41,-5.4135,-5.41,-5.3725,-5.4028,-5.4759,-5.5597,-5.6007,-5.631,-5.6346,-5.6401,-5.6383,-5.6383,-5.6383,-5.6383,-5.6383,-5.6437,-5.6492,-5.6546,-5.6582,-5.6546,-5.6546,-5.66,-5.6653,-5.6831,-5.701,-5.7906,-5.9327,-6.0086,-6.0485,-6.1498,-6.1951,-6.177,-6.1534,-6.1118,-6.0846,-6.0756,-6.0575,-6.0122,-6.0285,-6.0756,-6.0883,-6.1082,-6.1405,-6.1672,-6.1577,-6.1462,-6.1346,-6.1229,-6.117,-6.1152,-6.1075,-6.1093,-6.1093,-6.1093,-6.095,-6.1022,-6.1093,-6.1093,-6.1093,-4.8031,-4.8288,-4.8324,-4.8324,-4.8306,-4.8438,-4.8347,-4.8126,-4.8421,-4.8587,-4.8494,-4.8419,-4.8324,-4.8247,-4.8068,-4.7925,-4.7819,-4.7717,-4.7651,-4.7777,-4.8085,-4.8822,-4.9582,-5.0144,-5.0633,-5.1248,-5.1643,-5.1535,-5.121,-5.1509,-5.2007,-5.2434,-5.3573,-5.3707,-5.405,-5.4634,-5.5338,-5.5707,-5.6075,-5.6562,-5.6689,-5.6582,-5.6492,-5.6347,-5.6347,-5.6204,-5.6026,-5.6097,-5.5919,-5.5348,-5.5223,-5.5027,-5.4438,-5.4723,-5.4937,-5.4349,-5.4581,-5.4474,-5.4277,-5.4367,-5.492,-5.5437,-5.5847,-5.6026,-5.6294,-5.6383,-5.6383,-5.6383,-5.6383,-5.6383,-5.6383,-5.6383,-5.6383,-5.6383,-5.6437,-5.6437,-5.6492,-5.6492,-5.6653,-5.6832,-5.7405,-5.8193,-5.9075,-5.987,-6.0557,-6.1118,-6.1516,-6.1625,-6.1462,-6.1208,-6.0937,-6.0792,-6.0701,-6.0502,-6.0665,-6.0683,-6.0955,-6.1118,-6.1461,-6.1638,-6.1654,-6.1613,-6.1458,-6.1324,-6.1229,-6.1211,-6.1117,-6.1093,-6.1093,-6.1093,-6.1093,-6.1093,-6.1093,-6.1093,-6.1093,-4.7443,-4.8086,-4.8196,-4.8252,-4.8344,-4.8346,-4.7979,-4.7408,-4.8015,-4.8366,-4.8329,-4.842,-4.8304,-4.813,-4.8028,-4.7947,-4.7866,-4.7783,-4.7741,-4.7741,-4.7979,-4.8571,-4.9159,-4.946,-5.0289,-5.0666,-5.0962,-5.132,-5.1538,-5.1647,-5.1873,-5.2599,-5.2917,-5.3162,-5.3396,-5.4103,-5.481,-5.5269,-5.5898,-5.6482,-5.6615,-5.6617,-5.6385,-5.6277,-5.6062,-5.583,-5.5491,-5.5562,-5.5883,-5.5366,-5.5062,-5.4991,-5.4937,-5.4688,-5.4759,-5.4795,-5.4902,-5.4795,-5.4706,-5.4813,-5.5473,-5.5758,-5.5776,-5.5955,-5.6222,-5.6383,-5.6383,-5.6383,-5.6383,-5.6383,-5.6383,-5.6383,-5.6383,-5.6383,-5.6383,-5.6437,-5.6437,-5.6492,-5.6564,-5.6886,-5.746,-5.8195,-5.8623,-5.9399,-6.005,-6.0557,-6.0792,-6.1045,-6.0991,-6.081,-6.0701,-6.052,-6.0465,-6.0265,-6.0102,-6.0247,-6.0901,-6.1227,-6.1498,-6.1441,-6.1332,-6.1454,-6.1588,-6.1386,-6.1167,-6.118,-6.1122,-6.0974,-6.0897,-6.1093,-6.1093,-6.1093,-6.1093,-6.1093,-6.1093,-4.6433,-4.6691,-4.7334,-4.7942,-4.8384,-4.7905,-4.7536,-4.7242,-4.6837,-4.7003,-4.7443,-4.786,-4.8111,-4.809,-4.7988,-4.7907,-4.787,-4.7947,-4.7929,-4.7951,-4.8053,-4.8501,-4.9237,-4.9386,-5.0116,-5.0991,-5.125,-5.1012,-5.1431,-5.1449,-5.1704,-5.2707,-5.3126,-5.339,-5.3399,-5.4127,-5.4618,-5.4963,-5.5207,-5.5998,-5.6554,-5.5592,-5.4917,-5.5169,-5.5222,-5.4812,-5.4597,-5.4685,-5.4616,-5.4295,-5.44,-5.4686,-5.5116,-5.4973,-5.4706,-5.4509,-5.5009,-5.5009,-5.492,-5.5134,-5.5705,-5.6133,-5.6186,-5.624,-5.6329,-5.6365,-5.6383,-5.6383,-5.6383,-5.6383,-5.6383,-5.6383,-5.6383,-5.6383,-5.6383,-5.6383,-5.6383,-5.6492,-5.6546,-5.6976,-5.7567,-5.7978,-5.8352,-5.882,-5.9524,-5.9796,-5.9868,-5.9959,-5.9887,-5.976,-5.9937,-5.9828,-5.9953,-5.9808,-5.9626,-6.001,-6.079,-6.1135,-6.1353,-6.1227,-6.1063,-6.1292,-6.1498,-6.1229,-6.1067,-6.1006,-6.0818,-6.0492,-6.0504,-6.079,-6.1093,-6.1093,-6.1093,-6.1093,-6.1093,-4.5821,-4.6225,-4.6701,-4.7348,-4.7885,-4.7571,-4.7166,-4.6836,-4.6599,-4.6324,-4.6269,-4.7091,-4.7764,-4.8017,-4.8028,-4.7988,-4.7992,-4.8032,-4.809,-4.8151,-4.8306,-4.8566,-4.8954,-4.9212,-4.9433,-5.0204,-5.035,-5.0446,-5.137,-5.1548,-5.1871,-5.2802,-5.3441,-5.3642,-5.3616,-5.4036,-5.4437,-5.472,-5.4456,-5.4982,-5.5962,-5.5062,-5.4715,-5.4934,-5.4633,-5.4186,-5.4275,-5.4434,-5.465,-5.4829,-5.5132,-5.5401,-5.5777,-5.574,-5.5526,-5.5401,-5.5508,-5.5544,-5.5294,-5.5419,-5.5883,-5.624,-5.6383,-5.6347,-5.6347,-5.6383,-5.6383,-5.6383,-5.6383,-5.6383,-5.6383,-5.6383,-5.6383,-5.6383,-5.6383,-5.6383,-5.6492,-5.66,-5.6653,-5.6849,-5.7225,-5.7384,-5.7702,-5.7891,-5.8525,-5.9017,-5.9072,-5.9414,-5.925,-5.9012,-5.9081,-5.9183,-5.9274,-5.9361,-5.9215,-5.9856,-6.0822,-6.1079,-6.1172,-6.1444,-6.1516,-6.1436,-6.139,-6.1225,-6.1006,-6.0791,-6.055,-6.0349,-6.0165,-6.038,-6.0772,-6.1093,-6.1093,-6.1093,-6.1093,-4.5183,-4.5971,-4.6153,-4.6638,-4.7182,-4.7126,-4.6666,-4.6151,-4.6397,-4.5902,-4.5113,-4.6342,-4.7313,-4.7842,-4.8226,-4.8226,-4.8265,-4.8343,-4.8343,-4.8438,-4.8569,-4.8753,-4.8825,-4.8879,-4.9066,-4.927,-4.9505,-5.0472,-5.155,-5.1509,-5.1839,-5.2767,-5.3042,-5.306,-5.2999,-5.3047,-5.3368,-5.3741,-5.377,-5.3836,-5.4234,-5.4502,-5.4593,-5.4502,-5.4311,-5.3917,-5.4184,-5.4524,-5.4919,-5.5526,-5.5866,-5.6134,-5.6223,-5.6186,-5.6026,-5.5919,-5.6008,-5.6062,-5.6026,-5.6062,-5.6258,-5.6383,-5.6383,-5.6383,-5.6383,-5.6437,-5.6437,-5.6437,-5.6437,-5.6383,-5.6383,-5.6383,-5.6383,-5.6437,-5.6437,-5.6492,-5.66,-5.676,-5.6742,-5.6794,-5.6917,-5.7057,-5.721,-5.7361,-5.7651,-5.8196,-5.854,-5.8867,-5.8976,-5.8714,-5.8633,-5.8591,-5.8622,-5.864,-5.8786,-5.9593,-6.0617,-6.0931,-6.1062,-6.157,-6.1823,-6.1597,-6.1458,-6.1431,-6.1176,-6.0711,-6.0603,-6.0492,-6.0308,-6.0201,-6.0647,-6.1093,-6.1093,-6.1093,-6.1093,-4.3776,-4.4556,-4.5257,-4.6006,-4.6483,-4.5897,-4.5404,-4.5152,-4.4591,-4.434,-4.4821,-4.5608,-4.6562,-4.7273,-4.8009,-4.8306,-4.8419,-4.8532,-4.8642,-4.8751,-4.8857,-4.8946,-4.898,-4.8962,-4.8892,-4.9065,-4.9473,-5.0398,-5.1216,-5.1385,-5.1937,-5.3143,-5.3217,-5.3193,-5.3164,-5.3158,-5.3195,-5.3378,-5.3408,-5.3441,-5.3334,-5.3501,-5.3285,-5.3091,-5.2767,-5.2992,-5.3293,-5.353,-5.4271,-5.5168,-5.6009,-5.633,-5.6383,-5.6365,-5.6169,-5.6026,-5.6169,-5.6097,-5.6079,-5.624,-5.6329,-5.6383,-5.6383,-5.6383,-5.6437,-5.6492,-5.6492,-5.6492,-5.6492,-5.6437,-5.6383,-5.6383,-5.6383,-5.6528,-5.6617,-5.6689,-5.6742,-5.6847,-5.6847,-5.6951,-5.7003,-5.7174,-5.7325,-5.7424,-5.7442,-5.7806,-5.7824,-5.8164,-5.8219,-5.8172,-5.8166,-5.816,-5.8135,-5.8476,-5.8841,-5.9365,-6.0208,-6.058,-6.106,-6.1571,-6.182,-6.1537,-6.1377,-6.1313,-6.0974,-6.0474,-6.0397,-6.0527,-6.0504,-6.0469,-6.0808,-6.1093,-6.1093,-6.1093,-6.1093]}]]